<?xml version="1.0" encoding="UTF-8" standalone="no" ?>
<gpx xmlns="http://www.topografix.com/GPX/1/1" xmlns:xsi="http://www.w3.org/2001/XMLSchema-instance" xsi:schemaLocation="http://www.topografix.com/GPX/1/1 http://www.topografix.com/GPX/1/1/gpx.xsd" version="1.1" creator="VisuGPX - https://www.visugpx.com">
  <metadata>
    <name>chevreuse</name>
    <desc><![CDATA[Trace AlpineQuest 29/04/2014 09:34:18]]></desc>
  </metadata>
  <trk>
    <name><![CDATA[Chevreuse]]></name>
    <trkseg>
      <trkpt lat="48.70578" lon="2.04062">
        <ele>48</ele>
        <time>2014-04-29T07:34:18Z</time>
      </trkpt>
      <trkpt lat="48.70583" lon="2.04046">
        <ele>72.1</ele>
        <time>2014-04-29T07:34:20Z</time>
      </trkpt>
      <trkpt lat="48.70586" lon="2.04046">
        <ele>78.8</ele>
        <time>2014-04-29T07:34:21Z</time>
      </trkpt>
      <trkpt lat="48.70586" lon="2.04041">
        <ele>98.5</ele>
        <time>2014-04-29T07:34:22Z</time>
      </trkpt>
      <trkpt lat="48.70587" lon="2.04047">
        <ele>104.8</ele>
        <time>2014-04-29T07:34:26Z</time>
      </trkpt>
      <trkpt lat="48.70595" lon="2.04057">
        <ele>111</ele>
        <time>2014-04-29T07:34:35Z</time>
      </trkpt>
      <trkpt lat="48.70601" lon="2.04059">
        <ele>115.1</ele>
        <time>2014-04-29T07:34:48Z</time>
      </trkpt>
      <trkpt lat="48.70598" lon="2.04058">
        <ele>116.2</ele>
        <time>2014-04-29T07:34:58Z</time>
      </trkpt>
      <trkpt lat="48.70595" lon="2.04059">
        <ele>114.7</ele>
        <time>2014-04-29T07:35:20Z</time>
      </trkpt>
      <trkpt lat="48.70598" lon="2.04055">
        <ele>114.8</ele>
        <time>2014-04-29T07:36:10Z</time>
      </trkpt>
      <trkpt lat="48.70608" lon="2.04056">
        <ele>115.9</ele>
        <time>2014-04-29T07:36:22Z</time>
      </trkpt>
      <trkpt lat="48.7062" lon="2.0405">
        <ele>114.9</ele>
        <time>2014-04-29T07:36:33Z</time>
      </trkpt>
      <trkpt lat="48.70626" lon="2.04039">
        <ele>121</ele>
        <time>2014-04-29T07:36:43Z</time>
      </trkpt>
      <trkpt lat="48.70626" lon="2.04018">
        <ele>121.1</ele>
        <time>2014-04-29T07:36:54Z</time>
      </trkpt>
      <trkpt lat="48.70625" lon="2.04008">
        <ele>121.3</ele>
        <time>2014-04-29T07:37:06Z</time>
      </trkpt>
      <trkpt lat="48.70624" lon="2.03987">
        <ele>118.1</ele>
        <time>2014-04-29T07:37:18Z</time>
      </trkpt>
      <trkpt lat="48.70622" lon="2.03965">
        <ele>119.4</ele>
        <time>2014-04-29T07:37:29Z</time>
      </trkpt>
      <trkpt lat="48.70628" lon="2.03945">
        <ele>114.8</ele>
        <time>2014-04-29T07:37:39Z</time>
      </trkpt>
      <trkpt lat="48.70637" lon="2.03942">
        <ele>108.8</ele>
        <time>2014-04-29T07:37:50Z</time>
      </trkpt>
      <trkpt lat="48.70644" lon="2.03956">
        <ele>110.4</ele>
        <time>2014-04-29T07:38:01Z</time>
      </trkpt>
      <trkpt lat="48.70653" lon="2.0397">
        <ele>112.2</ele>
        <time>2014-04-29T07:38:11Z</time>
      </trkpt>
      <trkpt lat="48.7067" lon="2.03975">
        <ele>111.9</ele>
        <time>2014-04-29T07:38:23Z</time>
      </trkpt>
      <trkpt lat="48.70682" lon="2.03972">
        <ele>114.2</ele>
        <time>2014-04-29T07:38:33Z</time>
      </trkpt>
      <trkpt lat="48.70693" lon="2.03977">
        <ele>120.5</ele>
        <time>2014-04-29T07:38:45Z</time>
      </trkpt>
      <trkpt lat="48.70708" lon="2.03962">
        <ele>123.4</ele>
        <time>2014-04-29T07:38:55Z</time>
      </trkpt>
      <trkpt lat="48.70718" lon="2.03956">
        <ele>123.8</ele>
        <time>2014-04-29T07:39:06Z</time>
      </trkpt>
      <trkpt lat="48.70721" lon="2.03953">
        <ele>124</ele>
        <time>2014-04-29T07:39:16Z</time>
      </trkpt>
      <trkpt lat="48.70723" lon="2.0395">
        <ele>123.3</ele>
        <time>2014-04-29T07:39:22Z</time>
      </trkpt>
      <trkpt lat="48.7074" lon="2.03954">
        <ele>124.6</ele>
        <time>2014-04-29T07:39:32Z</time>
      </trkpt>
      <trkpt lat="48.70754" lon="2.03962">
        <ele>126.8</ele>
        <time>2014-04-29T07:39:43Z</time>
      </trkpt>
      <trkpt lat="48.70766" lon="2.03971">
        <ele>125.7</ele>
        <time>2014-04-29T07:39:54Z</time>
      </trkpt>
      <trkpt lat="48.70772" lon="2.03994">
        <ele>125.7</ele>
        <time>2014-04-29T07:40:04Z</time>
      </trkpt>
      <trkpt lat="48.7078" lon="2.04008">
        <ele>126</ele>
        <time>2014-04-29T07:40:14Z</time>
      </trkpt>
      <trkpt lat="48.70787" lon="2.04021">
        <ele>126</ele>
        <time>2014-04-29T07:40:24Z</time>
      </trkpt>
      <trkpt lat="48.70801" lon="2.04031">
        <ele>126.7</ele>
        <time>2014-04-29T07:40:34Z</time>
      </trkpt>
      <trkpt lat="48.70806" lon="2.04034">
        <ele>125.5</ele>
        <time>2014-04-29T07:40:40Z</time>
      </trkpt>
      <trkpt lat="48.70808" lon="2.04038">
        <ele>129.2</ele>
        <time>2014-04-29T07:40:44Z</time>
      </trkpt>
      <trkpt lat="48.7081" lon="2.04043">
        <ele>131.6</ele>
        <time>2014-04-29T07:40:46Z</time>
      </trkpt>
      <trkpt lat="48.70814" lon="2.04055">
        <ele>132.3</ele>
        <time>2014-04-29T07:40:56Z</time>
      </trkpt>
      <trkpt lat="48.7082" lon="2.04068">
        <ele>133.8</ele>
        <time>2014-04-29T07:41:09Z</time>
      </trkpt>
      <trkpt lat="48.70821" lon="2.04074">
        <ele>134.7</ele>
        <time>2014-04-29T07:41:14Z</time>
      </trkpt>
      <trkpt lat="48.70831" lon="2.04092">
        <ele>136.9</ele>
        <time>2014-04-29T07:41:24Z</time>
      </trkpt>
      <trkpt lat="48.70839" lon="2.04099">
        <ele>135.3</ele>
        <time>2014-04-29T07:41:37Z</time>
      </trkpt>
      <trkpt lat="48.70843" lon="2.04105">
        <ele>135.4</ele>
        <time>2014-04-29T07:41:40Z</time>
      </trkpt>
      <trkpt lat="48.7085" lon="2.04113">
        <ele>136</ele>
        <time>2014-04-29T07:41:51Z</time>
      </trkpt>
      <trkpt lat="48.70861" lon="2.04123">
        <ele>136.1</ele>
        <time>2014-04-29T07:42:01Z</time>
      </trkpt>
      <trkpt lat="48.70869" lon="2.04121">
        <ele>135.5</ele>
        <time>2014-04-29T07:42:14Z</time>
      </trkpt>
      <trkpt lat="48.70875" lon="2.0411">
        <ele>133.5</ele>
        <time>2014-04-29T07:42:22Z</time>
      </trkpt>
      <trkpt lat="48.7088" lon="2.04109">
        <ele>132.2</ele>
        <time>2014-04-29T07:42:29Z</time>
      </trkpt>
      <trkpt lat="48.70887" lon="2.04102">
        <ele>130</ele>
        <time>2014-04-29T07:42:40Z</time>
      </trkpt>
      <trkpt lat="48.70892" lon="2.04081">
        <ele>132.7</ele>
        <time>2014-04-29T07:42:52Z</time>
      </trkpt>
      <trkpt lat="48.70895" lon="2.04082">
        <ele>133.9</ele>
        <time>2014-04-29T07:43:09Z</time>
      </trkpt>
      <trkpt lat="48.70902" lon="2.04092">
        <ele>134.9</ele>
        <time>2014-04-29T07:43:19Z</time>
      </trkpt>
      <trkpt lat="48.70906" lon="2.04105">
        <ele>136.8</ele>
        <time>2014-04-29T07:43:28Z</time>
      </trkpt>
      <trkpt lat="48.70911" lon="2.04118">
        <ele>137.8</ele>
        <time>2014-04-29T07:43:39Z</time>
      </trkpt>
      <trkpt lat="48.70912" lon="2.04124">
        <ele>138.4</ele>
        <time>2014-04-29T07:43:49Z</time>
      </trkpt>
      <trkpt lat="48.70914" lon="2.04143">
        <ele>140.2</ele>
        <time>2014-04-29T07:44:02Z</time>
      </trkpt>
      <trkpt lat="48.70919" lon="2.04151">
        <ele>141.4</ele>
        <time>2014-04-29T07:44:21Z</time>
      </trkpt>
      <trkpt lat="48.7092" lon="2.04156">
        <ele>142.8</ele>
        <time>2014-04-29T07:44:32Z</time>
      </trkpt>
      <trkpt lat="48.70921" lon="2.04172">
        <ele>143.3</ele>
        <time>2014-04-29T07:44:44Z</time>
      </trkpt>
      <trkpt lat="48.70931" lon="2.04178">
        <ele>145.3</ele>
        <time>2014-04-29T07:45:23Z</time>
      </trkpt>
      <trkpt lat="48.70938" lon="2.04168">
        <ele>146.9</ele>
        <time>2014-04-29T07:45:27Z</time>
      </trkpt>
      <trkpt lat="48.70947" lon="2.04166">
        <ele>149.7</ele>
        <time>2014-04-29T07:45:38Z</time>
      </trkpt>
      <trkpt lat="48.7095" lon="2.04174">
        <ele>151.8</ele>
        <time>2014-04-29T07:45:48Z</time>
      </trkpt>
      <trkpt lat="48.70948" lon="2.04194">
        <ele>157.3</ele>
        <time>2014-04-29T07:46:01Z</time>
      </trkpt>
      <trkpt lat="48.70948" lon="2.04209">
        <ele>161</ele>
        <time>2014-04-29T07:46:11Z</time>
      </trkpt>
      <trkpt lat="48.70953" lon="2.04217">
        <ele>168.6</ele>
        <time>2014-04-29T07:46:24Z</time>
      </trkpt>
      <trkpt lat="48.70956" lon="2.04216">
        <ele>173</ele>
        <time>2014-04-29T07:46:28Z</time>
      </trkpt>
      <trkpt lat="48.70957" lon="2.04207">
        <ele>177.9</ele>
        <time>2014-04-29T07:46:39Z</time>
      </trkpt>
      <trkpt lat="48.70961" lon="2.04191">
        <ele>176.7</ele>
        <time>2014-04-29T07:46:52Z</time>
      </trkpt>
      <trkpt lat="48.70965" lon="2.04179">
        <ele>173.6</ele>
        <time>2014-04-29T07:47:02Z</time>
      </trkpt>
      <trkpt lat="48.70973" lon="2.04171">
        <ele>173.9</ele>
        <time>2014-04-29T07:47:13Z</time>
      </trkpt>
      <trkpt lat="48.70981" lon="2.04162">
        <ele>174.6</ele>
        <time>2014-04-29T07:47:23Z</time>
      </trkpt>
      <trkpt lat="48.70985" lon="2.04163">
        <ele>175.1</ele>
        <time>2014-04-29T07:47:34Z</time>
      </trkpt>
      <trkpt lat="48.70988" lon="2.04159">
        <ele>176.1</ele>
        <time>2014-04-29T07:47:37Z</time>
      </trkpt>
      <trkpt lat="48.70999" lon="2.04156">
        <ele>177.8</ele>
        <time>2014-04-29T07:47:55Z</time>
      </trkpt>
      <trkpt lat="48.71007" lon="2.04142">
        <ele>183.3</ele>
        <time>2014-04-29T07:48:08Z</time>
      </trkpt>
      <trkpt lat="48.71013" lon="2.0414">
        <ele>188.6</ele>
        <time>2014-04-29T07:49:21Z</time>
      </trkpt>
      <trkpt lat="48.71018" lon="2.0414">
        <ele>194.2</ele>
        <time>2014-04-29T07:49:45Z</time>
      </trkpt>
      <trkpt lat="48.71036" lon="2.04119">
        <ele>201.2</ele>
        <time>2014-04-29T07:49:56Z</time>
      </trkpt>
      <trkpt lat="48.71052" lon="2.04123">
        <ele>200.6</ele>
        <time>2014-04-29T07:50:08Z</time>
      </trkpt>
      <trkpt lat="48.71065" lon="2.0413">
        <ele>199.5</ele>
        <time>2014-04-29T07:50:18Z</time>
      </trkpt>
      <trkpt lat="48.7108" lon="2.04139">
        <ele>197.2</ele>
        <time>2014-04-29T07:50:29Z</time>
      </trkpt>
      <trkpt lat="48.71094" lon="2.04138">
        <ele>197.1</ele>
        <time>2014-04-29T07:50:40Z</time>
      </trkpt>
      <trkpt lat="48.71106" lon="2.0414">
        <ele>195.4</ele>
        <time>2014-04-29T07:50:51Z</time>
      </trkpt>
      <trkpt lat="48.71119" lon="2.04142">
        <ele>194.6</ele>
        <time>2014-04-29T07:51:02Z</time>
      </trkpt>
      <trkpt lat="48.71128" lon="2.04154">
        <ele>194.8</ele>
        <time>2014-04-29T07:51:12Z</time>
      </trkpt>
      <trkpt lat="48.71135" lon="2.04173">
        <ele>197.1</ele>
        <time>2014-04-29T07:51:23Z</time>
      </trkpt>
      <trkpt lat="48.71141" lon="2.04192">
        <ele>192.1</ele>
        <time>2014-04-29T07:51:34Z</time>
      </trkpt>
      <trkpt lat="48.71148" lon="2.04213">
        <ele>194.4</ele>
        <time>2014-04-29T07:51:46Z</time>
      </trkpt>
      <trkpt lat="48.71148" lon="2.04218">
        <ele>194.7</ele>
        <time>2014-04-29T07:51:48Z</time>
      </trkpt>
      <trkpt lat="48.71153" lon="2.04239">
        <ele>199.7</ele>
        <time>2014-04-29T07:51:58Z</time>
      </trkpt>
      <trkpt lat="48.71155" lon="2.04259">
        <ele>208.6</ele>
        <time>2014-04-29T07:52:11Z</time>
      </trkpt>
      <trkpt lat="48.71156" lon="2.04286">
        <ele>206.4</ele>
        <time>2014-04-29T07:52:21Z</time>
      </trkpt>
      <trkpt lat="48.71157" lon="2.04313">
        <ele>206.4</ele>
        <time>2014-04-29T07:52:32Z</time>
      </trkpt>
      <trkpt lat="48.71166" lon="2.04329">
        <ele>203.7</ele>
        <time>2014-04-29T07:52:43Z</time>
      </trkpt>
      <trkpt lat="48.71168" lon="2.04344">
        <ele>203.6</ele>
        <time>2014-04-29T07:52:53Z</time>
      </trkpt>
      <trkpt lat="48.71167" lon="2.04363">
        <ele>202</ele>
        <time>2014-04-29T07:53:04Z</time>
      </trkpt>
      <trkpt lat="48.71166" lon="2.04383">
        <ele>203.1</ele>
        <time>2014-04-29T07:53:14Z</time>
      </trkpt>
      <trkpt lat="48.71167" lon="2.04402">
        <ele>205.7</ele>
        <time>2014-04-29T07:53:24Z</time>
      </trkpt>
      <trkpt lat="48.71169" lon="2.04421">
        <ele>204.4</ele>
        <time>2014-04-29T07:53:34Z</time>
      </trkpt>
      <trkpt lat="48.71167" lon="2.04443">
        <ele>205.8</ele>
        <time>2014-04-29T07:53:45Z</time>
      </trkpt>
      <trkpt lat="48.71167" lon="2.04461">
        <ele>207.6</ele>
        <time>2014-04-29T07:53:55Z</time>
      </trkpt>
      <trkpt lat="48.71164" lon="2.04482">
        <ele>203.8</ele>
        <time>2014-04-29T07:54:05Z</time>
      </trkpt>
      <trkpt lat="48.7116" lon="2.04503">
        <ele>201.8</ele>
        <time>2014-04-29T07:54:15Z</time>
      </trkpt>
      <trkpt lat="48.71161" lon="2.04522">
        <ele>204.7</ele>
        <time>2014-04-29T07:54:25Z</time>
      </trkpt>
      <trkpt lat="48.71161" lon="2.04546">
        <ele>205.8</ele>
        <time>2014-04-29T07:54:36Z</time>
      </trkpt>
      <trkpt lat="48.71158" lon="2.04566">
        <ele>205.1</ele>
        <time>2014-04-29T07:54:46Z</time>
      </trkpt>
      <trkpt lat="48.71157" lon="2.04586">
        <ele>207.9</ele>
        <time>2014-04-29T07:54:56Z</time>
      </trkpt>
      <trkpt lat="48.7116" lon="2.0461">
        <ele>208.5</ele>
        <time>2014-04-29T07:55:09Z</time>
      </trkpt>
      <trkpt lat="48.7116" lon="2.04626">
        <ele>210.7</ele>
        <time>2014-04-29T07:55:19Z</time>
      </trkpt>
      <trkpt lat="48.71155" lon="2.04658">
        <ele>211.4</ele>
        <time>2014-04-29T07:55:31Z</time>
      </trkpt>
      <trkpt lat="48.7116" lon="2.04676">
        <ele>211.2</ele>
        <time>2014-04-29T07:55:41Z</time>
      </trkpt>
      <trkpt lat="48.71167" lon="2.04692">
        <ele>212.3</ele>
        <time>2014-04-29T07:55:51Z</time>
      </trkpt>
      <trkpt lat="48.71171" lon="2.04712">
        <ele>214.8</ele>
        <time>2014-04-29T07:56:03Z</time>
      </trkpt>
      <trkpt lat="48.71174" lon="2.04734">
        <ele>217.8</ele>
        <time>2014-04-29T07:56:13Z</time>
      </trkpt>
      <trkpt lat="48.71178" lon="2.04755">
        <ele>218.4</ele>
        <time>2014-04-29T07:56:24Z</time>
      </trkpt>
      <trkpt lat="48.71181" lon="2.04775">
        <ele>218.8</ele>
        <time>2014-04-29T07:56:35Z</time>
      </trkpt>
      <trkpt lat="48.71182" lon="2.04801">
        <ele>221</ele>
        <time>2014-04-29T07:56:46Z</time>
      </trkpt>
      <trkpt lat="48.71182" lon="2.04822">
        <ele>221.9</ele>
        <time>2014-04-29T07:56:57Z</time>
      </trkpt>
      <trkpt lat="48.71183" lon="2.04846">
        <ele>224.1</ele>
        <time>2014-04-29T07:57:07Z</time>
      </trkpt>
      <trkpt lat="48.71184" lon="2.04867">
        <ele>218.7</ele>
        <time>2014-04-29T07:57:17Z</time>
      </trkpt>
      <trkpt lat="48.71184" lon="2.04889">
        <ele>218.9</ele>
        <time>2014-04-29T07:57:27Z</time>
      </trkpt>
      <trkpt lat="48.71188" lon="2.04911">
        <ele>218.9</ele>
        <time>2014-04-29T07:57:38Z</time>
      </trkpt>
      <trkpt lat="48.7119" lon="2.04932">
        <ele>221.6</ele>
        <time>2014-04-29T07:57:50Z</time>
      </trkpt>
      <trkpt lat="48.71192" lon="2.04954">
        <ele>221.4</ele>
        <time>2014-04-29T07:58:01Z</time>
      </trkpt>
      <trkpt lat="48.71189" lon="2.0498">
        <ele>215.3</ele>
        <time>2014-04-29T07:58:13Z</time>
      </trkpt>
      <trkpt lat="48.71188" lon="2.04999">
        <ele>217.1</ele>
        <time>2014-04-29T07:58:23Z</time>
      </trkpt>
      <trkpt lat="48.71189" lon="2.05025">
        <ele>219.1</ele>
        <time>2014-04-29T07:58:35Z</time>
      </trkpt>
      <trkpt lat="48.71189" lon="2.05051">
        <ele>220</ele>
        <time>2014-04-29T07:58:46Z</time>
      </trkpt>
      <trkpt lat="48.71194" lon="2.05074">
        <ele>220.5</ele>
        <time>2014-04-29T07:58:57Z</time>
      </trkpt>
      <trkpt lat="48.71198" lon="2.05095">
        <ele>220.8</ele>
        <time>2014-04-29T07:59:08Z</time>
      </trkpt>
      <trkpt lat="48.71199" lon="2.0512">
        <ele>218.6</ele>
        <time>2014-04-29T07:59:20Z</time>
      </trkpt>
      <trkpt lat="48.71199" lon="2.05145">
        <ele>219</ele>
        <time>2014-04-29T07:59:30Z</time>
      </trkpt>
      <trkpt lat="48.71203" lon="2.05165">
        <ele>216.1</ele>
        <time>2014-04-29T07:59:41Z</time>
      </trkpt>
      <trkpt lat="48.71207" lon="2.0519">
        <ele>217.9</ele>
        <time>2014-04-29T07:59:51Z</time>
      </trkpt>
      <trkpt lat="48.71207" lon="2.05202">
        <ele>221.3</ele>
        <time>2014-04-29T08:00:02Z</time>
      </trkpt>
      <trkpt lat="48.71204" lon="2.052">
        <ele>220.7</ele>
        <time>2014-04-29T08:00:21Z</time>
      </trkpt>
      <trkpt lat="48.71206" lon="2.05197">
        <ele>219.9</ele>
        <time>2014-04-29T08:00:49Z</time>
      </trkpt>
      <trkpt lat="48.71223" lon="2.05175">
        <ele>220.9</ele>
        <time>2014-04-29T08:00:59Z</time>
      </trkpt>
      <trkpt lat="48.71241" lon="2.05152">
        <ele>219.5</ele>
        <time>2014-04-29T08:01:10Z</time>
      </trkpt>
      <trkpt lat="48.71254" lon="2.05155">
        <ele>211.5</ele>
        <time>2014-04-29T08:01:26Z</time>
      </trkpt>
      <trkpt lat="48.7125" lon="2.05157">
        <ele>209.4</ele>
        <time>2014-04-29T08:03:17Z</time>
      </trkpt>
      <trkpt lat="48.71254" lon="2.05166">
        <ele>208.1</ele>
        <time>2014-04-29T08:03:41Z</time>
      </trkpt>
      <trkpt lat="48.71263" lon="2.052">
        <ele>210.4</ele>
        <time>2014-04-29T08:03:51Z</time>
      </trkpt>
      <trkpt lat="48.71267" lon="2.05224">
        <ele>210.8</ele>
        <time>2014-04-29T08:04:01Z</time>
      </trkpt>
      <trkpt lat="48.71276" lon="2.05243">
        <ele>209.7</ele>
        <time>2014-04-29T08:04:12Z</time>
      </trkpt>
      <trkpt lat="48.71283" lon="2.05263">
        <ele>208.3</ele>
        <time>2014-04-29T08:04:22Z</time>
      </trkpt>
      <trkpt lat="48.71293" lon="2.05282">
        <ele>206</ele>
        <time>2014-04-29T08:04:33Z</time>
      </trkpt>
      <trkpt lat="48.71305" lon="2.05298">
        <ele>208.5</ele>
        <time>2014-04-29T08:04:45Z</time>
      </trkpt>
      <trkpt lat="48.71319" lon="2.05304">
        <ele>209.2</ele>
        <time>2014-04-29T08:04:56Z</time>
      </trkpt>
      <trkpt lat="48.71334" lon="2.05305">
        <ele>210.2</ele>
        <time>2014-04-29T08:05:06Z</time>
      </trkpt>
      <trkpt lat="48.71347" lon="2.05312">
        <ele>211.8</ele>
        <time>2014-04-29T08:05:19Z</time>
      </trkpt>
      <trkpt lat="48.71358" lon="2.05318">
        <ele>210.2</ele>
        <time>2014-04-29T08:05:29Z</time>
      </trkpt>
      <trkpt lat="48.71374" lon="2.05321">
        <ele>213.1</ele>
        <time>2014-04-29T08:05:40Z</time>
      </trkpt>
      <trkpt lat="48.7139" lon="2.05326">
        <ele>214.9</ele>
        <time>2014-04-29T08:05:50Z</time>
      </trkpt>
      <trkpt lat="48.71404" lon="2.05336">
        <ele>216.3</ele>
        <time>2014-04-29T08:06:01Z</time>
      </trkpt>
      <trkpt lat="48.71416" lon="2.0534">
        <ele>213.8</ele>
        <time>2014-04-29T08:06:11Z</time>
      </trkpt>
      <trkpt lat="48.71434" lon="2.05343">
        <ele>213.8</ele>
        <time>2014-04-29T08:06:23Z</time>
      </trkpt>
      <trkpt lat="48.7145" lon="2.05347">
        <ele>215.3</ele>
        <time>2014-04-29T08:06:33Z</time>
      </trkpt>
      <trkpt lat="48.71465" lon="2.05351">
        <ele>215.8</ele>
        <time>2014-04-29T08:06:45Z</time>
      </trkpt>
      <trkpt lat="48.7148" lon="2.05352">
        <ele>215.3</ele>
        <time>2014-04-29T08:06:55Z</time>
      </trkpt>
      <trkpt lat="48.71494" lon="2.05351">
        <ele>212.3</ele>
        <time>2014-04-29T08:07:05Z</time>
      </trkpt>
      <trkpt lat="48.7151" lon="2.05348">
        <ele>210.7</ele>
        <time>2014-04-29T08:07:15Z</time>
      </trkpt>
      <trkpt lat="48.71524" lon="2.05343">
        <ele>209.5</ele>
        <time>2014-04-29T08:07:26Z</time>
      </trkpt>
      <trkpt lat="48.71538" lon="2.05341">
        <ele>210.5</ele>
        <time>2014-04-29T08:07:36Z</time>
      </trkpt>
      <trkpt lat="48.71551" lon="2.05338">
        <ele>211.1</ele>
        <time>2014-04-29T08:07:47Z</time>
      </trkpt>
      <trkpt lat="48.71564" lon="2.05332">
        <ele>212.7</ele>
        <time>2014-04-29T08:07:58Z</time>
      </trkpt>
      <trkpt lat="48.71579" lon="2.05329">
        <ele>212.6</ele>
        <time>2014-04-29T08:08:08Z</time>
      </trkpt>
      <trkpt lat="48.71592" lon="2.05315">
        <ele>208.6</ele>
        <time>2014-04-29T08:08:19Z</time>
      </trkpt>
      <trkpt lat="48.71603" lon="2.05302">
        <ele>205.1</ele>
        <time>2014-04-29T08:08:30Z</time>
      </trkpt>
      <trkpt lat="48.71616" lon="2.05295">
        <ele>202.6</ele>
        <time>2014-04-29T08:08:40Z</time>
      </trkpt>
      <trkpt lat="48.71631" lon="2.05284">
        <ele>200.6</ele>
        <time>2014-04-29T08:08:50Z</time>
      </trkpt>
      <trkpt lat="48.71644" lon="2.05275">
        <ele>201.2</ele>
        <time>2014-04-29T08:09:00Z</time>
      </trkpt>
      <trkpt lat="48.71656" lon="2.05274">
        <ele>201.7</ele>
        <time>2014-04-29T08:09:10Z</time>
      </trkpt>
      <trkpt lat="48.71668" lon="2.05262">
        <ele>203.5</ele>
        <time>2014-04-29T08:09:21Z</time>
      </trkpt>
      <trkpt lat="48.71677" lon="2.05259">
        <ele>206.4</ele>
        <time>2014-04-29T08:10:19Z</time>
      </trkpt>
      <trkpt lat="48.71684" lon="2.05256">
        <ele>210</ele>
        <time>2014-04-29T08:10:36Z</time>
      </trkpt>
      <trkpt lat="48.71697" lon="2.05256">
        <ele>207.2</ele>
        <time>2014-04-29T08:10:46Z</time>
      </trkpt>
      <trkpt lat="48.71713" lon="2.05256">
        <ele>203.9</ele>
        <time>2014-04-29T08:10:56Z</time>
      </trkpt>
      <trkpt lat="48.71727" lon="2.0525">
        <ele>203.9</ele>
        <time>2014-04-29T08:11:07Z</time>
      </trkpt>
      <trkpt lat="48.71738" lon="2.05246">
        <ele>203.7</ele>
        <time>2014-04-29T08:11:17Z</time>
      </trkpt>
      <trkpt lat="48.71755" lon="2.05241">
        <ele>203.2</ele>
        <time>2014-04-29T08:11:29Z</time>
      </trkpt>
      <trkpt lat="48.71771" lon="2.05237">
        <ele>204.8</ele>
        <time>2014-04-29T08:11:39Z</time>
      </trkpt>
      <trkpt lat="48.71786" lon="2.05242">
        <ele>202.2</ele>
        <time>2014-04-29T08:11:50Z</time>
      </trkpt>
      <trkpt lat="48.718" lon="2.05239">
        <ele>200.2</ele>
        <time>2014-04-29T08:12:00Z</time>
      </trkpt>
      <trkpt lat="48.71815" lon="2.05242">
        <ele>196.8</ele>
        <time>2014-04-29T08:12:12Z</time>
      </trkpt>
      <trkpt lat="48.71835" lon="2.05242">
        <ele>193</ele>
        <time>2014-04-29T08:12:24Z</time>
      </trkpt>
      <trkpt lat="48.7185" lon="2.05247">
        <ele>189.3</ele>
        <time>2014-04-29T08:12:34Z</time>
      </trkpt>
      <trkpt lat="48.71862" lon="2.05253">
        <ele>190.6</ele>
        <time>2014-04-29T08:12:44Z</time>
      </trkpt>
      <trkpt lat="48.71876" lon="2.05257">
        <ele>192</ele>
        <time>2014-04-29T08:12:54Z</time>
      </trkpt>
      <trkpt lat="48.71896" lon="2.05256">
        <ele>197.8</ele>
        <time>2014-04-29T08:13:06Z</time>
      </trkpt>
      <trkpt lat="48.71909" lon="2.05259">
        <ele>203</ele>
        <time>2014-04-29T08:13:16Z</time>
      </trkpt>
      <trkpt lat="48.71925" lon="2.05259">
        <ele>204.4</ele>
        <time>2014-04-29T08:13:28Z</time>
      </trkpt>
      <trkpt lat="48.71936" lon="2.0525">
        <ele>199.6</ele>
        <time>2014-04-29T08:13:40Z</time>
      </trkpt>
      <trkpt lat="48.71945" lon="2.05228">
        <ele>203.3</ele>
        <time>2014-04-29T08:13:51Z</time>
      </trkpt>
      <trkpt lat="48.71957" lon="2.05217">
        <ele>200.3</ele>
        <time>2014-04-29T08:14:01Z</time>
      </trkpt>
      <trkpt lat="48.71968" lon="2.05199">
        <ele>197.2</ele>
        <time>2014-04-29T08:14:11Z</time>
      </trkpt>
      <trkpt lat="48.71976" lon="2.05179">
        <ele>192.7</ele>
        <time>2014-04-29T08:14:22Z</time>
      </trkpt>
      <trkpt lat="48.71984" lon="2.05163">
        <ele>195.6</ele>
        <time>2014-04-29T08:14:33Z</time>
      </trkpt>
      <trkpt lat="48.71992" lon="2.05144">
        <ele>196.8</ele>
        <time>2014-04-29T08:14:45Z</time>
      </trkpt>
      <trkpt lat="48.72" lon="2.05122">
        <ele>203.4</ele>
        <time>2014-04-29T08:14:56Z</time>
      </trkpt>
      <trkpt lat="48.72011" lon="2.05095">
        <ele>206.6</ele>
        <time>2014-04-29T08:15:07Z</time>
      </trkpt>
      <trkpt lat="48.7202" lon="2.05075">
        <ele>208.1</ele>
        <time>2014-04-29T08:15:17Z</time>
      </trkpt>
      <trkpt lat="48.72028" lon="2.05056">
        <ele>210.2</ele>
        <time>2014-04-29T08:15:27Z</time>
      </trkpt>
      <trkpt lat="48.72034" lon="2.05044">
        <ele>210.6</ele>
        <time>2014-04-29T08:15:37Z</time>
      </trkpt>
      <trkpt lat="48.72044" lon="2.05024">
        <ele>211.5</ele>
        <time>2014-04-29T08:15:48Z</time>
      </trkpt>
      <trkpt lat="48.72056" lon="2.05002">
        <ele>215.4</ele>
        <time>2014-04-29T08:15:59Z</time>
      </trkpt>
      <trkpt lat="48.72065" lon="2.04981">
        <ele>218.2</ele>
        <time>2014-04-29T08:16:10Z</time>
      </trkpt>
      <trkpt lat="48.72075" lon="2.04958">
        <ele>219.4</ele>
        <time>2014-04-29T08:16:21Z</time>
      </trkpt>
      <trkpt lat="48.72082" lon="2.04942">
        <ele>216.4</ele>
        <time>2014-04-29T08:16:32Z</time>
      </trkpt>
      <trkpt lat="48.7209" lon="2.0494">
        <ele>211</ele>
        <time>2014-04-29T08:16:56Z</time>
      </trkpt>
      <trkpt lat="48.72096" lon="2.04946">
        <ele>210.2</ele>
        <time>2014-04-29T08:17:12Z</time>
      </trkpt>
      <trkpt lat="48.72097" lon="2.0493">
        <ele>210.5</ele>
        <time>2014-04-29T08:17:22Z</time>
      </trkpt>
      <trkpt lat="48.72105" lon="2.04926">
        <ele>210.8</ele>
        <time>2014-04-29T08:17:32Z</time>
      </trkpt>
      <trkpt lat="48.72118" lon="2.04947">
        <ele>211.2</ele>
        <time>2014-04-29T08:17:33Z</time>
      </trkpt>
      <trkpt lat="48.72118" lon="2.04959">
        <ele>211.8</ele>
        <time>2014-04-29T08:17:34Z</time>
      </trkpt>
      <trkpt lat="48.72115" lon="2.04953">
        <ele>214.9</ele>
        <time>2014-04-29T08:17:40Z</time>
      </trkpt>
      <trkpt lat="48.72112" lon="2.04952">
        <ele>214.8</ele>
        <time>2014-04-29T08:17:42Z</time>
      </trkpt>
      <trkpt lat="48.7211" lon="2.04956">
        <ele>214.1</ele>
        <time>2014-04-29T08:17:51Z</time>
      </trkpt>
      <trkpt lat="48.72107" lon="2.04957">
        <ele>212.4</ele>
        <time>2014-04-29T08:20:28Z</time>
      </trkpt>
      <trkpt lat="48.72112" lon="2.04957">
        <ele>214.6</ele>
        <time>2014-04-29T08:21:41Z</time>
      </trkpt>
      <trkpt lat="48.72105" lon="2.04948">
        <ele>212.6</ele>
        <time>2014-04-29T08:21:52Z</time>
      </trkpt>
      <trkpt lat="48.72105" lon="2.04931">
        <ele>206.3</ele>
        <time>2014-04-29T08:22:03Z</time>
      </trkpt>
      <trkpt lat="48.72107" lon="2.04912">
        <ele>202</ele>
        <time>2014-04-29T08:22:15Z</time>
      </trkpt>
      <trkpt lat="48.72117" lon="2.04897">
        <ele>204.3</ele>
        <time>2014-04-29T08:22:26Z</time>
      </trkpt>
      <trkpt lat="48.72128" lon="2.04888">
        <ele>205.8</ele>
        <time>2014-04-29T08:22:38Z</time>
      </trkpt>
      <trkpt lat="48.72137" lon="2.04874">
        <ele>205.9</ele>
        <time>2014-04-29T08:22:48Z</time>
      </trkpt>
      <trkpt lat="48.72151" lon="2.04862">
        <ele>206.2</ele>
        <time>2014-04-29T08:22:59Z</time>
      </trkpt>
      <trkpt lat="48.72161" lon="2.04851">
        <ele>206</ele>
        <time>2014-04-29T08:23:12Z</time>
      </trkpt>
      <trkpt lat="48.72175" lon="2.04846">
        <ele>206</ele>
        <time>2014-04-29T08:23:24Z</time>
      </trkpt>
      <trkpt lat="48.72191" lon="2.04833">
        <ele>200.8</ele>
        <time>2014-04-29T08:23:36Z</time>
      </trkpt>
      <trkpt lat="48.72201" lon="2.04831">
        <ele>197.8</ele>
        <time>2014-04-29T08:23:46Z</time>
      </trkpt>
      <trkpt lat="48.72215" lon="2.04831">
        <ele>195.6</ele>
        <time>2014-04-29T08:23:59Z</time>
      </trkpt>
      <trkpt lat="48.72231" lon="2.04833">
        <ele>190.3</ele>
        <time>2014-04-29T08:24:09Z</time>
      </trkpt>
      <trkpt lat="48.72243" lon="2.04838">
        <ele>186.1</ele>
        <time>2014-04-29T08:24:20Z</time>
      </trkpt>
      <trkpt lat="48.72254" lon="2.0484">
        <ele>183.3</ele>
        <time>2014-04-29T08:24:32Z</time>
      </trkpt>
      <trkpt lat="48.72266" lon="2.04846">
        <ele>179.3</ele>
        <time>2014-04-29T08:24:44Z</time>
      </trkpt>
      <trkpt lat="48.72276" lon="2.04848">
        <ele>176.3</ele>
        <time>2014-04-29T08:24:54Z</time>
      </trkpt>
      <trkpt lat="48.72292" lon="2.04849">
        <ele>172.9</ele>
        <time>2014-04-29T08:25:06Z</time>
      </trkpt>
      <trkpt lat="48.72302" lon="2.04849">
        <ele>171.1</ele>
        <time>2014-04-29T08:25:16Z</time>
      </trkpt>
      <trkpt lat="48.72317" lon="2.0485">
        <ele>170.5</ele>
        <time>2014-04-29T08:25:26Z</time>
      </trkpt>
      <trkpt lat="48.72332" lon="2.04848">
        <ele>173.1</ele>
        <time>2014-04-29T08:25:38Z</time>
      </trkpt>
      <trkpt lat="48.72348" lon="2.04849">
        <ele>175.2</ele>
        <time>2014-04-29T08:25:50Z</time>
      </trkpt>
      <trkpt lat="48.72361" lon="2.04853">
        <ele>172.1</ele>
        <time>2014-04-29T08:26:00Z</time>
      </trkpt>
      <trkpt lat="48.72374" lon="2.04852">
        <ele>170.5</ele>
        <time>2014-04-29T08:26:11Z</time>
      </trkpt>
      <trkpt lat="48.72378" lon="2.04853">
        <ele>170.2</ele>
        <time>2014-04-29T08:26:15Z</time>
      </trkpt>
      <trkpt lat="48.72384" lon="2.0485">
        <ele>169.1</ele>
        <time>2014-04-29T08:26:25Z</time>
      </trkpt>
      <trkpt lat="48.72398" lon="2.04853">
        <ele>168.6</ele>
        <time>2014-04-29T08:26:38Z</time>
      </trkpt>
      <trkpt lat="48.72417" lon="2.04852">
        <ele>162.4</ele>
        <time>2014-04-29T08:26:49Z</time>
      </trkpt>
      <trkpt lat="48.72431" lon="2.0485">
        <ele>162.6</ele>
        <time>2014-04-29T08:27:00Z</time>
      </trkpt>
      <trkpt lat="48.72445" lon="2.04846">
        <ele>165.4</ele>
        <time>2014-04-29T08:27:11Z</time>
      </trkpt>
      <trkpt lat="48.7246" lon="2.04841">
        <ele>165.2</ele>
        <time>2014-04-29T08:27:22Z</time>
      </trkpt>
      <trkpt lat="48.72472" lon="2.0484">
        <ele>165.2</ele>
        <time>2014-04-29T08:27:32Z</time>
      </trkpt>
      <trkpt lat="48.72485" lon="2.04842">
        <ele>162.1</ele>
        <time>2014-04-29T08:27:42Z</time>
      </trkpt>
      <trkpt lat="48.72502" lon="2.0485">
        <ele>153</ele>
        <time>2014-04-29T08:27:55Z</time>
      </trkpt>
      <trkpt lat="48.72515" lon="2.04867">
        <ele>149.5</ele>
        <time>2014-04-29T08:28:06Z</time>
      </trkpt>
      <trkpt lat="48.72519" lon="2.04885">
        <ele>149.4</ele>
        <time>2014-04-29T08:28:19Z</time>
      </trkpt>
      <trkpt lat="48.72528" lon="2.04896">
        <ele>152</ele>
        <time>2014-04-29T08:28:29Z</time>
      </trkpt>
      <trkpt lat="48.72539" lon="2.04895">
        <ele>151.7</ele>
        <time>2014-04-29T08:28:41Z</time>
      </trkpt>
      <trkpt lat="48.72556" lon="2.0489">
        <ele>151.2</ele>
        <time>2014-04-29T08:28:53Z</time>
      </trkpt>
      <trkpt lat="48.72572" lon="2.04893">
        <ele>147.8</ele>
        <time>2014-04-29T08:29:04Z</time>
      </trkpt>
      <trkpt lat="48.72584" lon="2.04895">
        <ele>150.9</ele>
        <time>2014-04-29T08:29:14Z</time>
      </trkpt>
      <trkpt lat="48.72593" lon="2.049">
        <ele>149.3</ele>
        <time>2014-04-29T08:29:25Z</time>
      </trkpt>
      <trkpt lat="48.72608" lon="2.04902">
        <ele>149.4</ele>
        <time>2014-04-29T08:29:36Z</time>
      </trkpt>
      <trkpt lat="48.72622" lon="2.04902">
        <ele>145.3</ele>
        <time>2014-04-29T08:29:47Z</time>
      </trkpt>
      <trkpt lat="48.7264" lon="2.04902">
        <ele>143.9</ele>
        <time>2014-04-29T08:29:58Z</time>
      </trkpt>
      <trkpt lat="48.72649" lon="2.04902">
        <ele>141.9</ele>
        <time>2014-04-29T08:30:08Z</time>
      </trkpt>
      <trkpt lat="48.72663" lon="2.04903">
        <ele>142.1</ele>
        <time>2014-04-29T08:30:20Z</time>
      </trkpt>
      <trkpt lat="48.72679" lon="2.04906">
        <ele>139.1</ele>
        <time>2014-04-29T08:30:31Z</time>
      </trkpt>
      <trkpt lat="48.72691" lon="2.04901">
        <ele>139.5</ele>
        <time>2014-04-29T08:30:41Z</time>
      </trkpt>
      <trkpt lat="48.72705" lon="2.04899">
        <ele>138.2</ele>
        <time>2014-04-29T08:30:51Z</time>
      </trkpt>
      <trkpt lat="48.72718" lon="2.04891">
        <ele>138.8</ele>
        <time>2014-04-29T08:31:01Z</time>
      </trkpt>
      <trkpt lat="48.7273" lon="2.04898">
        <ele>135.4</ele>
        <time>2014-04-29T08:31:12Z</time>
      </trkpt>
      <trkpt lat="48.72744" lon="2.049">
        <ele>137.1</ele>
        <time>2014-04-29T08:31:23Z</time>
      </trkpt>
      <trkpt lat="48.72753" lon="2.04903">
        <ele>141.1</ele>
        <time>2014-04-29T08:31:33Z</time>
      </trkpt>
      <trkpt lat="48.72764" lon="2.04906">
        <ele>141.6</ele>
        <time>2014-04-29T08:31:43Z</time>
      </trkpt>
      <trkpt lat="48.72777" lon="2.04911">
        <ele>142.4</ele>
        <time>2014-04-29T08:31:55Z</time>
      </trkpt>
      <trkpt lat="48.72795" lon="2.04925">
        <ele>130.9</ele>
        <time>2014-04-29T08:32:05Z</time>
      </trkpt>
      <trkpt lat="48.72807" lon="2.04932">
        <ele>133</ele>
        <time>2014-04-29T08:32:18Z</time>
      </trkpt>
      <trkpt lat="48.72817" lon="2.04932">
        <ele>139.8</ele>
        <time>2014-04-29T08:32:31Z</time>
      </trkpt>
      <trkpt lat="48.72826" lon="2.04934">
        <ele>143.5</ele>
        <time>2014-04-29T08:32:41Z</time>
      </trkpt>
      <trkpt lat="48.72835" lon="2.04933">
        <ele>148.7</ele>
        <time>2014-04-29T08:32:52Z</time>
      </trkpt>
      <trkpt lat="48.72843" lon="2.04927">
        <ele>154.3</ele>
        <time>2014-04-29T08:33:03Z</time>
      </trkpt>
      <trkpt lat="48.72853" lon="2.04922">
        <ele>157.2</ele>
        <time>2014-04-29T08:33:13Z</time>
      </trkpt>
      <trkpt lat="48.72861" lon="2.04922">
        <ele>160</ele>
        <time>2014-04-29T08:33:40Z</time>
      </trkpt>
      <trkpt lat="48.72876" lon="2.04917">
        <ele>169.1</ele>
        <time>2014-04-29T08:33:53Z</time>
      </trkpt>
      <trkpt lat="48.72888" lon="2.04916">
        <ele>169.6</ele>
        <time>2014-04-29T08:34:18Z</time>
      </trkpt>
      <trkpt lat="48.72895" lon="2.04899">
        <ele>171.8</ele>
        <time>2014-04-29T08:34:29Z</time>
      </trkpt>
      <trkpt lat="48.72902" lon="2.04883">
        <ele>173.4</ele>
        <time>2014-04-29T08:34:41Z</time>
      </trkpt>
      <trkpt lat="48.72904" lon="2.0487">
        <ele>179.1</ele>
        <time>2014-04-29T08:34:54Z</time>
      </trkpt>
      <trkpt lat="48.72906" lon="2.04855">
        <ele>181.8</ele>
        <time>2014-04-29T08:35:11Z</time>
      </trkpt>
      <trkpt lat="48.72904" lon="2.0484">
        <ele>184.3</ele>
        <time>2014-04-29T08:35:33Z</time>
      </trkpt>
      <trkpt lat="48.72905" lon="2.04817">
        <ele>186.1</ele>
        <time>2014-04-29T08:35:44Z</time>
      </trkpt>
      <trkpt lat="48.72909" lon="2.04805">
        <ele>189.7</ele>
        <time>2014-04-29T08:35:59Z</time>
      </trkpt>
      <trkpt lat="48.72915" lon="2.04778">
        <ele>195.2</ele>
        <time>2014-04-29T08:36:10Z</time>
      </trkpt>
      <trkpt lat="48.72916" lon="2.04766">
        <ele>199.1</ele>
        <time>2014-04-29T08:36:20Z</time>
      </trkpt>
      <trkpt lat="48.72926" lon="2.04754">
        <ele>199.8</ele>
        <time>2014-04-29T08:36:33Z</time>
      </trkpt>
      <trkpt lat="48.72932" lon="2.04744">
        <ele>202.8</ele>
        <time>2014-04-29T08:37:06Z</time>
      </trkpt>
      <trkpt lat="48.72947" lon="2.04723">
        <ele>206.8</ele>
        <time>2014-04-29T08:37:21Z</time>
      </trkpt>
      <trkpt lat="48.72953" lon="2.04718">
        <ele>208.2</ele>
        <time>2014-04-29T08:37:31Z</time>
      </trkpt>
      <trkpt lat="48.72972" lon="2.04709">
        <ele>214.6</ele>
        <time>2014-04-29T08:37:43Z</time>
      </trkpt>
      <trkpt lat="48.7299" lon="2.047">
        <ele>217.3</ele>
        <time>2014-04-29T08:37:54Z</time>
      </trkpt>
      <trkpt lat="48.73004" lon="2.04689">
        <ele>219.1</ele>
        <time>2014-04-29T08:38:06Z</time>
      </trkpt>
      <trkpt lat="48.73014" lon="2.04684">
        <ele>218.3</ele>
        <time>2014-04-29T08:38:17Z</time>
      </trkpt>
      <trkpt lat="48.7303" lon="2.04673">
        <ele>220.2</ele>
        <time>2014-04-29T08:38:29Z</time>
      </trkpt>
      <trkpt lat="48.7304" lon="2.04671">
        <ele>220.3</ele>
        <time>2014-04-29T08:38:39Z</time>
      </trkpt>
      <trkpt lat="48.73049" lon="2.04665">
        <ele>222.7</ele>
        <time>2014-04-29T08:38:50Z</time>
      </trkpt>
      <trkpt lat="48.73055" lon="2.0467">
        <ele>217.9</ele>
        <time>2014-04-29T08:39:01Z</time>
      </trkpt>
      <trkpt lat="48.73059" lon="2.04679">
        <ele>216</ele>
        <time>2014-04-29T08:39:45Z</time>
      </trkpt>
      <trkpt lat="48.73057" lon="2.04675">
        <ele>218.4</ele>
        <time>2014-04-29T08:39:49Z</time>
      </trkpt>
      <trkpt lat="48.73048" lon="2.0467">
        <ele>217.2</ele>
        <time>2014-04-29T08:40:47Z</time>
      </trkpt>
      <trkpt lat="48.73051" lon="2.04673">
        <ele>215.1</ele>
        <time>2014-04-29T08:40:59Z</time>
      </trkpt>
      <trkpt lat="48.73056" lon="2.04674">
        <ele>214.3</ele>
        <time>2014-04-29T08:42:04Z</time>
      </trkpt>
      <trkpt lat="48.73062" lon="2.04674">
        <ele>214</ele>
        <time>2014-04-29T08:42:37Z</time>
      </trkpt>
      <trkpt lat="48.73065" lon="2.0467">
        <ele>216</ele>
        <time>2014-04-29T08:42:56Z</time>
      </trkpt>
      <trkpt lat="48.73075" lon="2.04655">
        <ele>213.9</ele>
        <time>2014-04-29T08:43:07Z</time>
      </trkpt>
      <trkpt lat="48.7309" lon="2.04644">
        <ele>218.4</ele>
        <time>2014-04-29T08:43:19Z</time>
      </trkpt>
      <trkpt lat="48.73099" lon="2.04638">
        <ele>221.4</ele>
        <time>2014-04-29T08:43:29Z</time>
      </trkpt>
      <trkpt lat="48.73113" lon="2.04632">
        <ele>218.6</ele>
        <time>2014-04-29T08:43:41Z</time>
      </trkpt>
      <trkpt lat="48.73125" lon="2.04624">
        <ele>217.4</ele>
        <time>2014-04-29T08:43:51Z</time>
      </trkpt>
      <trkpt lat="48.73138" lon="2.0462">
        <ele>217.1</ele>
        <time>2014-04-29T08:44:01Z</time>
      </trkpt>
      <trkpt lat="48.73151" lon="2.04613">
        <ele>217.3</ele>
        <time>2014-04-29T08:44:11Z</time>
      </trkpt>
      <trkpt lat="48.73163" lon="2.04607">
        <ele>219.3</ele>
        <time>2014-04-29T08:44:22Z</time>
      </trkpt>
      <trkpt lat="48.73171" lon="2.04604">
        <ele>218.2</ele>
        <time>2014-04-29T08:44:34Z</time>
      </trkpt>
      <trkpt lat="48.73192" lon="2.04594">
        <ele>219.7</ele>
        <time>2014-04-29T08:44:45Z</time>
      </trkpt>
      <trkpt lat="48.732" lon="2.0459">
        <ele>220</ele>
        <time>2014-04-29T08:44:55Z</time>
      </trkpt>
      <trkpt lat="48.73216" lon="2.04578">
        <ele>223.1</ele>
        <time>2014-04-29T08:45:06Z</time>
      </trkpt>
      <trkpt lat="48.73227" lon="2.04565">
        <ele>228</ele>
        <time>2014-04-29T08:45:16Z</time>
      </trkpt>
      <trkpt lat="48.7324" lon="2.04558">
        <ele>228.2</ele>
        <time>2014-04-29T08:45:26Z</time>
      </trkpt>
      <trkpt lat="48.73258" lon="2.04545">
        <ele>226.7</ele>
        <time>2014-04-29T08:45:37Z</time>
      </trkpt>
      <trkpt lat="48.73274" lon="2.04535">
        <ele>226.8</ele>
        <time>2014-04-29T08:45:51Z</time>
      </trkpt>
      <trkpt lat="48.73282" lon="2.04521">
        <ele>226.1</ele>
        <time>2014-04-29T08:46:01Z</time>
      </trkpt>
      <trkpt lat="48.73285" lon="2.0451">
        <ele>223.7</ele>
        <time>2014-04-29T08:46:14Z</time>
      </trkpt>
      <trkpt lat="48.73279" lon="2.04497">
        <ele>218.2</ele>
        <time>2014-04-29T08:46:27Z</time>
      </trkpt>
      <trkpt lat="48.73275" lon="2.04489">
        <ele>217.2</ele>
        <time>2014-04-29T08:46:38Z</time>
      </trkpt>
      <trkpt lat="48.73267" lon="2.04467">
        <ele>212.6</ele>
        <time>2014-04-29T08:46:48Z</time>
      </trkpt>
      <trkpt lat="48.73262" lon="2.04448">
        <ele>210.4</ele>
        <time>2014-04-29T08:46:58Z</time>
      </trkpt>
      <trkpt lat="48.73259" lon="2.04434">
        <ele>199.5</ele>
        <time>2014-04-29T08:47:09Z</time>
      </trkpt>
      <trkpt lat="48.73259" lon="2.04424">
        <ele>199.2</ele>
        <time>2014-04-29T08:47:21Z</time>
      </trkpt>
      <trkpt lat="48.73252" lon="2.04398">
        <ele>197.1</ele>
        <time>2014-04-29T08:47:31Z</time>
      </trkpt>
      <trkpt lat="48.73243" lon="2.04376">
        <ele>199.5</ele>
        <time>2014-04-29T08:47:42Z</time>
      </trkpt>
      <trkpt lat="48.73227" lon="2.04353">
        <ele>202</ele>
        <time>2014-04-29T08:47:54Z</time>
      </trkpt>
      <trkpt lat="48.73221" lon="2.0433">
        <ele>207.9</ele>
        <time>2014-04-29T08:48:05Z</time>
      </trkpt>
      <trkpt lat="48.73219" lon="2.04316">
        <ele>210.4</ele>
        <time>2014-04-29T08:48:15Z</time>
      </trkpt>
      <trkpt lat="48.73213" lon="2.04299">
        <ele>206.4</ele>
        <time>2014-04-29T08:48:26Z</time>
      </trkpt>
      <trkpt lat="48.73208" lon="2.04285">
        <ele>201.6</ele>
        <time>2014-04-29T08:48:36Z</time>
      </trkpt>
      <trkpt lat="48.73202" lon="2.04268">
        <ele>201</ele>
        <time>2014-04-29T08:48:47Z</time>
      </trkpt>
      <trkpt lat="48.73191" lon="2.04248">
        <ele>207</ele>
        <time>2014-04-29T08:48:57Z</time>
      </trkpt>
      <trkpt lat="48.73185" lon="2.04231">
        <ele>211.2</ele>
        <time>2014-04-29T08:49:09Z</time>
      </trkpt>
      <trkpt lat="48.73182" lon="2.04219">
        <ele>212.1</ele>
        <time>2014-04-29T08:49:19Z</time>
      </trkpt>
      <trkpt lat="48.73175" lon="2.04206">
        <ele>210.1</ele>
        <time>2014-04-29T08:49:30Z</time>
      </trkpt>
      <trkpt lat="48.7317" lon="2.0419">
        <ele>200.3</ele>
        <time>2014-04-29T08:49:41Z</time>
      </trkpt>
      <trkpt lat="48.73164" lon="2.0417">
        <ele>203.1</ele>
        <time>2014-04-29T08:49:51Z</time>
      </trkpt>
      <trkpt lat="48.73159" lon="2.04156">
        <ele>201.1</ele>
        <time>2014-04-29T08:50:01Z</time>
      </trkpt>
      <trkpt lat="48.73157" lon="2.04134">
        <ele>207.3</ele>
        <time>2014-04-29T08:50:11Z</time>
      </trkpt>
      <trkpt lat="48.73151" lon="2.0412">
        <ele>199.4</ele>
        <time>2014-04-29T08:50:21Z</time>
      </trkpt>
      <trkpt lat="48.73151" lon="2.041">
        <ele>202</ele>
        <time>2014-04-29T08:50:33Z</time>
      </trkpt>
      <trkpt lat="48.73145" lon="2.04079">
        <ele>211.6</ele>
        <time>2014-04-29T08:50:43Z</time>
      </trkpt>
      <trkpt lat="48.73139" lon="2.04061">
        <ele>206.6</ele>
        <time>2014-04-29T08:50:53Z</time>
      </trkpt>
      <trkpt lat="48.73138" lon="2.04041">
        <ele>200.1</ele>
        <time>2014-04-29T08:51:05Z</time>
      </trkpt>
      <trkpt lat="48.73138" lon="2.04021">
        <ele>198.5</ele>
        <time>2014-04-29T08:51:15Z</time>
      </trkpt>
      <trkpt lat="48.73133" lon="2.04002">
        <ele>199.6</ele>
        <time>2014-04-29T08:51:26Z</time>
      </trkpt>
      <trkpt lat="48.73135" lon="2.03981">
        <ele>200.4</ele>
        <time>2014-04-29T08:51:38Z</time>
      </trkpt>
      <trkpt lat="48.73138" lon="2.03951">
        <ele>206.5</ele>
        <time>2014-04-29T08:51:48Z</time>
      </trkpt>
      <trkpt lat="48.73143" lon="2.03928">
        <ele>209.3</ele>
        <time>2014-04-29T08:51:59Z</time>
      </trkpt>
      <trkpt lat="48.73139" lon="2.03904">
        <ele>207.7</ele>
        <time>2014-04-29T08:52:10Z</time>
      </trkpt>
      <trkpt lat="48.73135" lon="2.03879">
        <ele>208.1</ele>
        <time>2014-04-29T08:52:21Z</time>
      </trkpt>
      <trkpt lat="48.73132" lon="2.03859">
        <ele>209.1</ele>
        <time>2014-04-29T08:52:33Z</time>
      </trkpt>
      <trkpt lat="48.7313" lon="2.03841">
        <ele>205.9</ele>
        <time>2014-04-29T08:52:44Z</time>
      </trkpt>
      <trkpt lat="48.73125" lon="2.03829">
        <ele>204.5</ele>
        <time>2014-04-29T08:52:54Z</time>
      </trkpt>
      <trkpt lat="48.73124" lon="2.0382">
        <ele>203.8</ele>
        <time>2014-04-29T08:53:08Z</time>
      </trkpt>
      <trkpt lat="48.73118" lon="2.03799">
        <ele>204.5</ele>
        <time>2014-04-29T08:53:18Z</time>
      </trkpt>
      <trkpt lat="48.73117" lon="2.03775">
        <ele>201.4</ele>
        <time>2014-04-29T08:53:28Z</time>
      </trkpt>
      <trkpt lat="48.73117" lon="2.03755">
        <ele>201.5</ele>
        <time>2014-04-29T08:53:38Z</time>
      </trkpt>
      <trkpt lat="48.7312" lon="2.03739">
        <ele>195.8</ele>
        <time>2014-04-29T08:53:48Z</time>
      </trkpt>
      <trkpt lat="48.73115" lon="2.0372">
        <ele>190.6</ele>
        <time>2014-04-29T08:53:59Z</time>
      </trkpt>
      <trkpt lat="48.73114" lon="2.03696">
        <ele>194.9</ele>
        <time>2014-04-29T08:54:10Z</time>
      </trkpt>
      <trkpt lat="48.73124" lon="2.03678">
        <ele>191.3</ele>
        <time>2014-04-29T08:54:21Z</time>
      </trkpt>
      <trkpt lat="48.73129" lon="2.0366">
        <ele>193.6</ele>
        <time>2014-04-29T08:54:31Z</time>
      </trkpt>
      <trkpt lat="48.73138" lon="2.03643">
        <ele>197</ele>
        <time>2014-04-29T08:54:43Z</time>
      </trkpt>
      <trkpt lat="48.7314" lon="2.03619">
        <ele>202.2</ele>
        <time>2014-04-29T08:54:54Z</time>
      </trkpt>
      <trkpt lat="48.73148" lon="2.03596">
        <ele>209</ele>
        <time>2014-04-29T08:55:07Z</time>
      </trkpt>
      <trkpt lat="48.73158" lon="2.03577">
        <ele>211.5</ele>
        <time>2014-04-29T08:55:17Z</time>
      </trkpt>
      <trkpt lat="48.73165" lon="2.03561">
        <ele>209</ele>
        <time>2014-04-29T08:55:27Z</time>
      </trkpt>
      <trkpt lat="48.73175" lon="2.03547">
        <ele>212.5</ele>
        <time>2014-04-29T08:55:39Z</time>
      </trkpt>
      <trkpt lat="48.73183" lon="2.03523">
        <ele>212.3</ele>
        <time>2014-04-29T08:55:51Z</time>
      </trkpt>
      <trkpt lat="48.73192" lon="2.03503">
        <ele>221.9</ele>
        <time>2014-04-29T08:56:02Z</time>
      </trkpt>
      <trkpt lat="48.73199" lon="2.03485">
        <ele>227.5</ele>
        <time>2014-04-29T08:56:13Z</time>
      </trkpt>
      <trkpt lat="48.7321" lon="2.03474">
        <ele>224.2</ele>
        <time>2014-04-29T08:56:25Z</time>
      </trkpt>
      <trkpt lat="48.73219" lon="2.03452">
        <ele>221.1</ele>
        <time>2014-04-29T08:56:37Z</time>
      </trkpt>
      <trkpt lat="48.73226" lon="2.03428">
        <ele>220.1</ele>
        <time>2014-04-29T08:56:48Z</time>
      </trkpt>
      <trkpt lat="48.73229" lon="2.03408">
        <ele>218.3</ele>
        <time>2014-04-29T08:57:00Z</time>
      </trkpt>
      <trkpt lat="48.73236" lon="2.03386">
        <ele>212.5</ele>
        <time>2014-04-29T08:57:11Z</time>
      </trkpt>
      <trkpt lat="48.73235" lon="2.03359">
        <ele>215.5</ele>
        <time>2014-04-29T08:57:22Z</time>
      </trkpt>
      <trkpt lat="48.73236" lon="2.03337">
        <ele>211.9</ele>
        <time>2014-04-29T08:57:34Z</time>
      </trkpt>
      <trkpt lat="48.73237" lon="2.03315">
        <ele>210.1</ele>
        <time>2014-04-29T08:57:45Z</time>
      </trkpt>
      <trkpt lat="48.73239" lon="2.0329">
        <ele>212.8</ele>
        <time>2014-04-29T08:57:56Z</time>
      </trkpt>
      <trkpt lat="48.7324" lon="2.03268">
        <ele>212.4</ele>
        <time>2014-04-29T08:58:07Z</time>
      </trkpt>
      <trkpt lat="48.73239" lon="2.03244">
        <ele>212</ele>
        <time>2014-04-29T08:58:18Z</time>
      </trkpt>
      <trkpt lat="48.7324" lon="2.03223">
        <ele>212.5</ele>
        <time>2014-04-29T08:58:28Z</time>
      </trkpt>
      <trkpt lat="48.73241" lon="2.03201">
        <ele>217.6</ele>
        <time>2014-04-29T08:58:38Z</time>
      </trkpt>
      <trkpt lat="48.73244" lon="2.0318">
        <ele>219.2</ele>
        <time>2014-04-29T08:58:49Z</time>
      </trkpt>
      <trkpt lat="48.73246" lon="2.03162">
        <ele>215.8</ele>
        <time>2014-04-29T08:59:00Z</time>
      </trkpt>
      <trkpt lat="48.73247" lon="2.03143">
        <ele>211.2</ele>
        <time>2014-04-29T08:59:10Z</time>
      </trkpt>
      <trkpt lat="48.73246" lon="2.03125">
        <ele>200.4</ele>
        <time>2014-04-29T08:59:21Z</time>
      </trkpt>
      <trkpt lat="48.73242" lon="2.03099">
        <ele>201.3</ele>
        <time>2014-04-29T08:59:33Z</time>
      </trkpt>
      <trkpt lat="48.73235" lon="2.03075">
        <ele>204.2</ele>
        <time>2014-04-29T08:59:43Z</time>
      </trkpt>
      <trkpt lat="48.7323" lon="2.03057">
        <ele>206</ele>
        <time>2014-04-29T08:59:53Z</time>
      </trkpt>
      <trkpt lat="48.73223" lon="2.03036">
        <ele>209</ele>
        <time>2014-04-29T09:00:03Z</time>
      </trkpt>
      <trkpt lat="48.73213" lon="2.03017">
        <ele>212.6</ele>
        <time>2014-04-29T09:00:13Z</time>
      </trkpt>
      <trkpt lat="48.73204" lon="2.03002">
        <ele>213.2</ele>
        <time>2014-04-29T09:00:25Z</time>
      </trkpt>
      <trkpt lat="48.73214" lon="2.02991">
        <ele>208.6</ele>
        <time>2014-04-29T09:00:37Z</time>
      </trkpt>
      <trkpt lat="48.73225" lon="2.02975">
        <ele>209.6</ele>
        <time>2014-04-29T09:00:48Z</time>
      </trkpt>
      <trkpt lat="48.73232" lon="2.02967">
        <ele>208</ele>
        <time>2014-04-29T09:00:58Z</time>
      </trkpt>
      <trkpt lat="48.73237" lon="2.02954">
        <ele>203.3</ele>
        <time>2014-04-29T09:01:09Z</time>
      </trkpt>
      <trkpt lat="48.7324" lon="2.02939">
        <ele>204.8</ele>
        <time>2014-04-29T09:01:20Z</time>
      </trkpt>
      <trkpt lat="48.73244" lon="2.02922">
        <ele>204.8</ele>
        <time>2014-04-29T09:01:32Z</time>
      </trkpt>
      <trkpt lat="48.73245" lon="2.02903">
        <ele>205.1</ele>
        <time>2014-04-29T09:01:42Z</time>
      </trkpt>
      <trkpt lat="48.73243" lon="2.02881">
        <ele>203.4</ele>
        <time>2014-04-29T09:01:53Z</time>
      </trkpt>
      <trkpt lat="48.73239" lon="2.02862">
        <ele>204.2</ele>
        <time>2014-04-29T09:02:04Z</time>
      </trkpt>
      <trkpt lat="48.73243" lon="2.02846">
        <ele>205.5</ele>
        <time>2014-04-29T09:02:14Z</time>
      </trkpt>
      <trkpt lat="48.73247" lon="2.02826">
        <ele>208.1</ele>
        <time>2014-04-29T09:02:24Z</time>
      </trkpt>
      <trkpt lat="48.73252" lon="2.02812">
        <ele>205.9</ele>
        <time>2014-04-29T09:02:35Z</time>
      </trkpt>
      <trkpt lat="48.73251" lon="2.02781">
        <ele>205.1</ele>
        <time>2014-04-29T09:02:45Z</time>
      </trkpt>
      <trkpt lat="48.73259" lon="2.02769">
        <ele>206.4</ele>
        <time>2014-04-29T09:02:51Z</time>
      </trkpt>
      <trkpt lat="48.73266" lon="2.02758">
        <ele>205.7</ele>
        <time>2014-04-29T09:03:00Z</time>
      </trkpt>
      <trkpt lat="48.73276" lon="2.0274">
        <ele>206</ele>
        <time>2014-04-29T09:03:11Z</time>
      </trkpt>
      <trkpt lat="48.73283" lon="2.02724">
        <ele>204.9</ele>
        <time>2014-04-29T09:03:21Z</time>
      </trkpt>
      <trkpt lat="48.73287" lon="2.02705">
        <ele>204</ele>
        <time>2014-04-29T09:03:32Z</time>
      </trkpt>
      <trkpt lat="48.73286" lon="2.02682">
        <ele>204.3</ele>
        <time>2014-04-29T09:03:43Z</time>
      </trkpt>
      <trkpt lat="48.73287" lon="2.02661">
        <ele>207.9</ele>
        <time>2014-04-29T09:03:55Z</time>
      </trkpt>
      <trkpt lat="48.73291" lon="2.02642">
        <ele>200.2</ele>
        <time>2014-04-29T09:04:05Z</time>
      </trkpt>
      <trkpt lat="48.73294" lon="2.02624">
        <ele>199.8</ele>
        <time>2014-04-29T09:04:17Z</time>
      </trkpt>
      <trkpt lat="48.73301" lon="2.02607">
        <ele>195.7</ele>
        <time>2014-04-29T09:04:30Z</time>
      </trkpt>
      <trkpt lat="48.73302" lon="2.02601">
        <ele>200.2</ele>
        <time>2014-04-29T09:04:40Z</time>
      </trkpt>
      <trkpt lat="48.73313" lon="2.02582">
        <ele>201</ele>
        <time>2014-04-29T09:04:50Z</time>
      </trkpt>
      <trkpt lat="48.73323" lon="2.02563">
        <ele>200.8</ele>
        <time>2014-04-29T09:05:03Z</time>
      </trkpt>
      <trkpt lat="48.73325" lon="2.02558">
        <ele>200</ele>
        <time>2014-04-29T09:05:06Z</time>
      </trkpt>
      <trkpt lat="48.73335" lon="2.02544">
        <ele>200.1</ele>
        <time>2014-04-29T09:05:22Z</time>
      </trkpt>
      <trkpt lat="48.73342" lon="2.02535">
        <ele>200.9</ele>
        <time>2014-04-29T09:05:32Z</time>
      </trkpt>
      <trkpt lat="48.7336" lon="2.02511">
        <ele>196.7</ele>
        <time>2014-04-29T09:05:45Z</time>
      </trkpt>
      <trkpt lat="48.73367" lon="2.02498">
        <ele>197.2</ele>
        <time>2014-04-29T09:05:56Z</time>
      </trkpt>
      <trkpt lat="48.73378" lon="2.02485">
        <ele>192.7</ele>
        <time>2014-04-29T09:06:08Z</time>
      </trkpt>
      <trkpt lat="48.73381" lon="2.02478">
        <ele>192.8</ele>
        <time>2014-04-29T09:06:27Z</time>
      </trkpt>
      <trkpt lat="48.73402" lon="2.02456">
        <ele>193.5</ele>
        <time>2014-04-29T09:06:38Z</time>
      </trkpt>
      <trkpt lat="48.73416" lon="2.02433">
        <ele>190.9</ele>
        <time>2014-04-29T09:06:48Z</time>
      </trkpt>
      <trkpt lat="48.73418" lon="2.02425">
        <ele>188.7</ele>
        <time>2014-04-29T09:06:57Z</time>
      </trkpt>
      <trkpt lat="48.73419" lon="2.02418">
        <ele>189.1</ele>
        <time>2014-04-29T09:07:09Z</time>
      </trkpt>
      <trkpt lat="48.73421" lon="2.02403">
        <ele>189.7</ele>
        <time>2014-04-29T09:07:28Z</time>
      </trkpt>
      <trkpt lat="48.7342" lon="2.02394">
        <ele>184.5</ele>
        <time>2014-04-29T09:07:39Z</time>
      </trkpt>
      <trkpt lat="48.73421" lon="2.02367">
        <ele>180.3</ele>
        <time>2014-04-29T09:07:50Z</time>
      </trkpt>
      <trkpt lat="48.73422" lon="2.02354">
        <ele>175.1</ele>
        <time>2014-04-29T09:08:00Z</time>
      </trkpt>
      <trkpt lat="48.73419" lon="2.02338">
        <ele>174.4</ele>
        <time>2014-04-29T09:08:12Z</time>
      </trkpt>
      <trkpt lat="48.73425" lon="2.02319">
        <ele>171.5</ele>
        <time>2014-04-29T09:08:24Z</time>
      </trkpt>
      <trkpt lat="48.7343" lon="2.02307">
        <ele>169.7</ele>
        <time>2014-04-29T09:08:34Z</time>
      </trkpt>
      <trkpt lat="48.73442" lon="2.02296">
        <ele>163.6</ele>
        <time>2014-04-29T09:08:47Z</time>
      </trkpt>
      <trkpt lat="48.73448" lon="2.02289">
        <ele>159.8</ele>
        <time>2014-04-29T09:08:59Z</time>
      </trkpt>
      <trkpt lat="48.7345" lon="2.02285">
        <ele>158.3</ele>
        <time>2014-04-29T09:09:10Z</time>
      </trkpt>
      <trkpt lat="48.73453" lon="2.02288">
        <ele>159</ele>
        <time>2014-04-29T09:10:00Z</time>
      </trkpt>
      <trkpt lat="48.73452" lon="2.02292">
        <ele>151.2</ele>
        <time>2014-04-29T09:10:36Z</time>
      </trkpt>
      <trkpt lat="48.7345" lon="2.02295">
        <ele>152.7</ele>
        <time>2014-04-29T09:10:49Z</time>
      </trkpt>
      <trkpt lat="48.73453" lon="2.02293">
        <ele>143.2</ele>
        <time>2014-04-29T09:11:53Z</time>
      </trkpt>
      <trkpt lat="48.73452" lon="2.02289">
        <ele>141.8</ele>
        <time>2014-04-29T09:12:17Z</time>
      </trkpt>
      <trkpt lat="48.73446" lon="2.02289">
        <ele>141.3</ele>
        <time>2014-04-29T09:12:33Z</time>
      </trkpt>
      <trkpt lat="48.7345" lon="2.02287">
        <ele>141.2</ele>
        <time>2014-04-29T09:12:46Z</time>
      </trkpt>
      <trkpt lat="48.73452" lon="2.02289">
        <ele>140</ele>
        <time>2014-04-29T09:12:47Z</time>
      </trkpt>
      <trkpt lat="48.73455" lon="2.02291">
        <ele>135.1</ele>
        <time>2014-04-29T09:13:34Z</time>
      </trkpt>
      <trkpt lat="48.73459" lon="2.02293">
        <ele>139.5</ele>
        <time>2014-04-29T09:17:24Z</time>
      </trkpt>
      <trkpt lat="48.73478" lon="2.02296">
        <ele>140.4</ele>
        <time>2014-04-29T09:17:35Z</time>
      </trkpt>
      <trkpt lat="48.7349" lon="2.02295">
        <ele>142.4</ele>
        <time>2014-04-29T09:17:45Z</time>
      </trkpt>
      <trkpt lat="48.73493" lon="2.02294">
        <ele>142.9</ele>
        <time>2014-04-29T09:17:55Z</time>
      </trkpt>
      <trkpt lat="48.73512" lon="2.02294">
        <ele>148.1</ele>
        <time>2014-04-29T09:18:06Z</time>
      </trkpt>
      <trkpt lat="48.73529" lon="2.02293">
        <ele>149.6</ele>
        <time>2014-04-29T09:18:17Z</time>
      </trkpt>
      <trkpt lat="48.73539" lon="2.0229">
        <ele>149</ele>
        <time>2014-04-29T09:18:34Z</time>
      </trkpt>
      <trkpt lat="48.7356" lon="2.02299">
        <ele>150.6</ele>
        <time>2014-04-29T09:18:44Z</time>
      </trkpt>
      <trkpt lat="48.73578" lon="2.02293">
        <ele>152.9</ele>
        <time>2014-04-29T09:18:55Z</time>
      </trkpt>
      <trkpt lat="48.73596" lon="2.02287">
        <ele>155.4</ele>
        <time>2014-04-29T09:19:08Z</time>
      </trkpt>
      <trkpt lat="48.7361" lon="2.02284">
        <ele>158.1</ele>
        <time>2014-04-29T09:19:21Z</time>
      </trkpt>
      <trkpt lat="48.73613" lon="2.02283">
        <ele>160</ele>
        <time>2014-04-29T09:19:32Z</time>
      </trkpt>
      <trkpt lat="48.73629" lon="2.02277">
        <ele>164.5</ele>
        <time>2014-04-29T09:19:45Z</time>
      </trkpt>
      <trkpt lat="48.73647" lon="2.02285">
        <ele>161.8</ele>
        <time>2014-04-29T09:19:55Z</time>
      </trkpt>
      <trkpt lat="48.73663" lon="2.0228">
        <ele>161.3</ele>
        <time>2014-04-29T09:20:05Z</time>
      </trkpt>
      <trkpt lat="48.73666" lon="2.02279">
        <ele>161.1</ele>
        <time>2014-04-29T09:20:07Z</time>
      </trkpt>
      <trkpt lat="48.73677" lon="2.02275">
        <ele>160.7</ele>
        <time>2014-04-29T09:20:21Z</time>
      </trkpt>
      <trkpt lat="48.73685" lon="2.02271">
        <ele>160.7</ele>
        <time>2014-04-29T09:20:31Z</time>
      </trkpt>
      <trkpt lat="48.73706" lon="2.02265">
        <ele>160.5</ele>
        <time>2014-04-29T09:20:41Z</time>
      </trkpt>
      <trkpt lat="48.73721" lon="2.02261">
        <ele>163.2</ele>
        <time>2014-04-29T09:20:52Z</time>
      </trkpt>
      <trkpt lat="48.73734" lon="2.02262">
        <ele>162.7</ele>
        <time>2014-04-29T09:21:03Z</time>
      </trkpt>
      <trkpt lat="48.73739" lon="2.02256">
        <ele>165.9</ele>
        <time>2014-04-29T09:21:22Z</time>
      </trkpt>
      <trkpt lat="48.73758" lon="2.0225">
        <ele>167.5</ele>
        <time>2014-04-29T09:21:35Z</time>
      </trkpt>
      <trkpt lat="48.73765" lon="2.02246">
        <ele>168</ele>
        <time>2014-04-29T09:21:46Z</time>
      </trkpt>
      <trkpt lat="48.73791" lon="2.02244">
        <ele>167.3</ele>
        <time>2014-04-29T09:21:57Z</time>
      </trkpt>
      <trkpt lat="48.738" lon="2.02241">
        <ele>169</ele>
        <time>2014-04-29T09:22:09Z</time>
      </trkpt>
      <trkpt lat="48.73805" lon="2.02242">
        <ele>168.3</ele>
        <time>2014-04-29T09:22:26Z</time>
      </trkpt>
      <trkpt lat="48.73842" lon="2.02249">
        <ele>166</ele>
        <time>2014-04-29T09:22:37Z</time>
      </trkpt>
      <trkpt lat="48.73861" lon="2.02249">
        <ele>168.1</ele>
        <time>2014-04-29T09:22:52Z</time>
      </trkpt>
      <trkpt lat="48.73875" lon="2.0225">
        <ele>166.8</ele>
        <time>2014-04-29T09:23:06Z</time>
      </trkpt>
      <trkpt lat="48.73877" lon="2.0225">
        <ele>166.8</ele>
        <time>2014-04-29T09:23:09Z</time>
      </trkpt>
      <trkpt lat="48.73896" lon="2.02251">
        <ele>159.9</ele>
        <time>2014-04-29T09:23:19Z</time>
      </trkpt>
      <trkpt lat="48.73915" lon="2.0226">
        <ele>157.1</ele>
        <time>2014-04-29T09:23:29Z</time>
      </trkpt>
      <trkpt lat="48.73932" lon="2.02264">
        <ele>153.6</ele>
        <time>2014-04-29T09:23:39Z</time>
      </trkpt>
      <trkpt lat="48.73946" lon="2.02271">
        <ele>155.8</ele>
        <time>2014-04-29T09:23:49Z</time>
      </trkpt>
      <trkpt lat="48.73952" lon="2.02272">
        <ele>157</ele>
        <time>2014-04-29T09:23:55Z</time>
      </trkpt>
      <trkpt lat="48.73969" lon="2.02276">
        <ele>155.1</ele>
        <time>2014-04-29T09:24:06Z</time>
      </trkpt>
      <trkpt lat="48.73978" lon="2.02281">
        <ele>157.3</ele>
        <time>2014-04-29T09:24:12Z</time>
      </trkpt>
      <trkpt lat="48.73993" lon="2.02285">
        <ele>154.3</ele>
        <time>2014-04-29T09:24:22Z</time>
      </trkpt>
      <trkpt lat="48.74005" lon="2.02284">
        <ele>158.4</ele>
        <time>2014-04-29T09:24:33Z</time>
      </trkpt>
      <trkpt lat="48.74009" lon="2.02284">
        <ele>160.9</ele>
        <time>2014-04-29T09:24:44Z</time>
      </trkpt>
      <trkpt lat="48.74022" lon="2.02279">
        <ele>163.7</ele>
        <time>2014-04-29T09:24:55Z</time>
      </trkpt>
      <trkpt lat="48.74034" lon="2.02272">
        <ele>164</ele>
        <time>2014-04-29T09:25:05Z</time>
      </trkpt>
      <trkpt lat="48.74047" lon="2.02257">
        <ele>165.6</ele>
        <time>2014-04-29T09:25:17Z</time>
      </trkpt>
      <trkpt lat="48.74053" lon="2.02251">
        <ele>165.2</ele>
        <time>2014-04-29T09:25:28Z</time>
      </trkpt>
      <trkpt lat="48.74062" lon="2.02232">
        <ele>165.2</ele>
        <time>2014-04-29T09:25:38Z</time>
      </trkpt>
      <trkpt lat="48.7407" lon="2.02206">
        <ele>168.8</ele>
        <time>2014-04-29T09:25:48Z</time>
      </trkpt>
      <trkpt lat="48.7408" lon="2.02182">
        <ele>165.5</ele>
        <time>2014-04-29T09:26:00Z</time>
      </trkpt>
      <trkpt lat="48.74084" lon="2.02167">
        <ele>160.5</ele>
        <time>2014-04-29T09:26:13Z</time>
      </trkpt>
      <trkpt lat="48.74083" lon="2.02153">
        <ele>165.3</ele>
        <time>2014-04-29T09:26:23Z</time>
      </trkpt>
      <trkpt lat="48.7409" lon="2.02135">
        <ele>163.3</ele>
        <time>2014-04-29T09:26:35Z</time>
      </trkpt>
      <trkpt lat="48.74096" lon="2.02116">
        <ele>164</ele>
        <time>2014-04-29T09:26:45Z</time>
      </trkpt>
      <trkpt lat="48.74105" lon="2.02094">
        <ele>167.6</ele>
        <time>2014-04-29T09:26:56Z</time>
      </trkpt>
      <trkpt lat="48.74114" lon="2.0208">
        <ele>170.3</ele>
        <time>2014-04-29T09:27:07Z</time>
      </trkpt>
      <trkpt lat="48.74123" lon="2.0206">
        <ele>171.3</ele>
        <time>2014-04-29T09:27:18Z</time>
      </trkpt>
      <trkpt lat="48.74131" lon="2.02039">
        <ele>170.7</ele>
        <time>2014-04-29T09:27:35Z</time>
      </trkpt>
      <trkpt lat="48.74135" lon="2.0203">
        <ele>170.4</ele>
        <time>2014-04-29T09:27:47Z</time>
      </trkpt>
      <trkpt lat="48.74153" lon="2.02001">
        <ele>173.2</ele>
        <time>2014-04-29T09:27:57Z</time>
      </trkpt>
      <trkpt lat="48.74156" lon="2.01999">
        <ele>173.7</ele>
        <time>2014-04-29T09:27:59Z</time>
      </trkpt>
      <trkpt lat="48.74166" lon="2.01981">
        <ele>177.1</ele>
        <time>2014-04-29T09:28:11Z</time>
      </trkpt>
      <trkpt lat="48.7418" lon="2.01962">
        <ele>177.2</ele>
        <time>2014-04-29T09:28:22Z</time>
      </trkpt>
      <trkpt lat="48.7419" lon="2.01945">
        <ele>176.2</ele>
        <time>2014-04-29T09:28:33Z</time>
      </trkpt>
      <trkpt lat="48.74207" lon="2.01942">
        <ele>174.1</ele>
        <time>2014-04-29T09:28:43Z</time>
      </trkpt>
      <trkpt lat="48.74215" lon="2.01929">
        <ele>167.6</ele>
        <time>2014-04-29T09:28:54Z</time>
      </trkpt>
      <trkpt lat="48.74227" lon="2.01922">
        <ele>169.5</ele>
        <time>2014-04-29T09:29:04Z</time>
      </trkpt>
      <trkpt lat="48.74235" lon="2.01915">
        <ele>173.1</ele>
        <time>2014-04-29T09:29:14Z</time>
      </trkpt>
      <trkpt lat="48.74246" lon="2.01912">
        <ele>176.6</ele>
        <time>2014-04-29T09:29:25Z</time>
      </trkpt>
      <trkpt lat="48.74261" lon="2.01906">
        <ele>177.6</ele>
        <time>2014-04-29T09:29:59Z</time>
      </trkpt>
      <trkpt lat="48.74296" lon="2.01889">
        <ele>175.6</ele>
        <time>2014-04-29T09:30:10Z</time>
      </trkpt>
      <trkpt lat="48.74314" lon="2.01879">
        <ele>175.3</ele>
        <time>2014-04-29T09:30:20Z</time>
      </trkpt>
      <trkpt lat="48.74318" lon="2.01877">
        <ele>174</ele>
        <time>2014-04-29T09:30:23Z</time>
      </trkpt>
      <trkpt lat="48.74328" lon="2.01869">
        <ele>177.5</ele>
        <time>2014-04-29T09:30:34Z</time>
      </trkpt>
      <trkpt lat="48.7434" lon="2.01861">
        <ele>180.1</ele>
        <time>2014-04-29T09:30:48Z</time>
      </trkpt>
      <trkpt lat="48.74343" lon="2.01858">
        <ele>181.4</ele>
        <time>2014-04-29T09:30:58Z</time>
      </trkpt>
      <trkpt lat="48.74352" lon="2.01851">
        <ele>180.1</ele>
        <time>2014-04-29T09:31:09Z</time>
      </trkpt>
      <trkpt lat="48.74371" lon="2.01838">
        <ele>179.3</ele>
        <time>2014-04-29T09:31:20Z</time>
      </trkpt>
      <trkpt lat="48.74374" lon="2.01835">
        <ele>178.6</ele>
        <time>2014-04-29T09:31:22Z</time>
      </trkpt>
      <trkpt lat="48.74392" lon="2.01825">
        <ele>180.4</ele>
        <time>2014-04-29T09:31:32Z</time>
      </trkpt>
      <trkpt lat="48.74407" lon="2.01826">
        <ele>181.4</ele>
        <time>2014-04-29T09:31:42Z</time>
      </trkpt>
      <trkpt lat="48.74417" lon="2.01819">
        <ele>181.4</ele>
        <time>2014-04-29T09:31:53Z</time>
      </trkpt>
      <trkpt lat="48.74431" lon="2.01813">
        <ele>181.1</ele>
        <time>2014-04-29T09:32:10Z</time>
      </trkpt>
      <trkpt lat="48.74437" lon="2.01811">
        <ele>181.7</ele>
        <time>2014-04-29T09:32:21Z</time>
      </trkpt>
      <trkpt lat="48.74455" lon="2.01802">
        <ele>179.4</ele>
        <time>2014-04-29T09:32:31Z</time>
      </trkpt>
      <trkpt lat="48.74458" lon="2.01801">
        <ele>179.5</ele>
        <time>2014-04-29T09:32:34Z</time>
      </trkpt>
      <trkpt lat="48.74463" lon="2.01798">
        <ele>182.4</ele>
        <time>2014-04-29T09:34:24Z</time>
      </trkpt>
      <trkpt lat="48.74469" lon="2.01796">
        <ele>182.4</ele>
        <time>2014-04-29T09:34:27Z</time>
      </trkpt>
      <trkpt lat="48.74487" lon="2.01777">
        <ele>182.5</ele>
        <time>2014-04-29T09:34:43Z</time>
      </trkpt>
      <trkpt lat="48.74493" lon="2.01771">
        <ele>183.6</ele>
        <time>2014-04-29T09:34:53Z</time>
      </trkpt>
      <trkpt lat="48.74496" lon="2.01768">
        <ele>182.9</ele>
        <time>2014-04-29T09:34:58Z</time>
      </trkpt>
      <trkpt lat="48.74516" lon="2.01755">
        <ele>185.1</ele>
        <time>2014-04-29T09:35:09Z</time>
      </trkpt>
      <trkpt lat="48.74529" lon="2.01745">
        <ele>188.2</ele>
        <time>2014-04-29T09:35:20Z</time>
      </trkpt>
      <trkpt lat="48.74531" lon="2.01735">
        <ele>180.4</ele>
        <time>2014-04-29T09:35:33Z</time>
      </trkpt>
      <trkpt lat="48.74534" lon="2.01734">
        <ele>176.4</ele>
        <time>2014-04-29T09:36:09Z</time>
      </trkpt>
      <trkpt lat="48.74545" lon="2.01711">
        <ele>173.6</ele>
        <time>2014-04-29T09:36:19Z</time>
      </trkpt>
      <trkpt lat="48.74543" lon="2.01683">
        <ele>169</ele>
        <time>2014-04-29T09:36:31Z</time>
      </trkpt>
      <trkpt lat="48.74544" lon="2.01664">
        <ele>170.1</ele>
        <time>2014-04-29T09:36:41Z</time>
      </trkpt>
      <trkpt lat="48.74551" lon="2.01644">
        <ele>164.3</ele>
        <time>2014-04-29T09:36:54Z</time>
      </trkpt>
      <trkpt lat="48.74554" lon="2.01621">
        <ele>165.9</ele>
        <time>2014-04-29T09:37:06Z</time>
      </trkpt>
      <trkpt lat="48.74557" lon="2.01604">
        <ele>165.3</ele>
        <time>2014-04-29T09:37:17Z</time>
      </trkpt>
      <trkpt lat="48.74556" lon="2.01591">
        <ele>165.6</ele>
        <time>2014-04-29T09:37:27Z</time>
      </trkpt>
      <trkpt lat="48.74551" lon="2.01573">
        <ele>166.2</ele>
        <time>2014-04-29T09:37:39Z</time>
      </trkpt>
      <trkpt lat="48.74544" lon="2.01555">
        <ele>169.6</ele>
        <time>2014-04-29T09:37:50Z</time>
      </trkpt>
      <trkpt lat="48.74531" lon="2.01541">
        <ele>173.5</ele>
        <time>2014-04-29T09:38:02Z</time>
      </trkpt>
      <trkpt lat="48.74525" lon="2.01517">
        <ele>174.6</ele>
        <time>2014-04-29T09:38:15Z</time>
      </trkpt>
      <trkpt lat="48.7453" lon="2.01493">
        <ele>167.2</ele>
        <time>2014-04-29T09:38:25Z</time>
      </trkpt>
      <trkpt lat="48.74534" lon="2.01477">
        <ele>164.9</ele>
        <time>2014-04-29T09:38:35Z</time>
      </trkpt>
      <trkpt lat="48.7454" lon="2.01456">
        <ele>165.4</ele>
        <time>2014-04-29T09:38:46Z</time>
      </trkpt>
      <trkpt lat="48.74551" lon="2.01434">
        <ele>165</ele>
        <time>2014-04-29T09:38:57Z</time>
      </trkpt>
      <trkpt lat="48.74559" lon="2.01415">
        <ele>167</ele>
        <time>2014-04-29T09:39:07Z</time>
      </trkpt>
      <trkpt lat="48.74566" lon="2.01402">
        <ele>166</ele>
        <time>2014-04-29T09:39:17Z</time>
      </trkpt>
      <trkpt lat="48.74572" lon="2.01388">
        <ele>167.3</ele>
        <time>2014-04-29T09:39:28Z</time>
      </trkpt>
      <trkpt lat="48.74576" lon="2.01369">
        <ele>167.7</ele>
        <time>2014-04-29T09:39:38Z</time>
      </trkpt>
      <trkpt lat="48.74582" lon="2.0135">
        <ele>166.5</ele>
        <time>2014-04-29T09:39:48Z</time>
      </trkpt>
      <trkpt lat="48.74587" lon="2.01333">
        <ele>163.2</ele>
        <time>2014-04-29T09:39:59Z</time>
      </trkpt>
      <trkpt lat="48.74592" lon="2.0131">
        <ele>159.5</ele>
        <time>2014-04-29T09:40:10Z</time>
      </trkpt>
      <trkpt lat="48.74601" lon="2.01294">
        <ele>148.5</ele>
        <time>2014-04-29T09:40:22Z</time>
      </trkpt>
      <trkpt lat="48.746" lon="2.01269">
        <ele>151.8</ele>
        <time>2014-04-29T09:40:33Z</time>
      </trkpt>
      <trkpt lat="48.74601" lon="2.0125">
        <ele>153.5</ele>
        <time>2014-04-29T09:40:44Z</time>
      </trkpt>
      <trkpt lat="48.74606" lon="2.01224">
        <ele>159.2</ele>
        <time>2014-04-29T09:40:55Z</time>
      </trkpt>
      <trkpt lat="48.74607" lon="2.0121">
        <ele>162.1</ele>
        <time>2014-04-29T09:41:05Z</time>
      </trkpt>
      <trkpt lat="48.74614" lon="2.01189">
        <ele>167.1</ele>
        <time>2014-04-29T09:41:15Z</time>
      </trkpt>
      <trkpt lat="48.74621" lon="2.01172">
        <ele>172.8</ele>
        <time>2014-04-29T09:41:27Z</time>
      </trkpt>
      <trkpt lat="48.74633" lon="2.01155">
        <ele>176.2</ele>
        <time>2014-04-29T09:41:39Z</time>
      </trkpt>
      <trkpt lat="48.74637" lon="2.01141">
        <ele>175.7</ele>
        <time>2014-04-29T09:41:50Z</time>
      </trkpt>
      <trkpt lat="48.74645" lon="2.0113">
        <ele>174.3</ele>
        <time>2014-04-29T09:42:00Z</time>
      </trkpt>
      <trkpt lat="48.74649" lon="2.01107">
        <ele>178.4</ele>
        <time>2014-04-29T09:42:11Z</time>
      </trkpt>
      <trkpt lat="48.74655" lon="2.01089">
        <ele>183.7</ele>
        <time>2014-04-29T09:42:21Z</time>
      </trkpt>
      <trkpt lat="48.7466" lon="2.01071">
        <ele>181.6</ele>
        <time>2014-04-29T09:42:32Z</time>
      </trkpt>
      <trkpt lat="48.7466" lon="2.01058">
        <ele>187.2</ele>
        <time>2014-04-29T09:42:42Z</time>
      </trkpt>
      <trkpt lat="48.74665" lon="2.01044">
        <ele>186.6</ele>
        <time>2014-04-29T09:43:01Z</time>
      </trkpt>
      <trkpt lat="48.74669" lon="2.01021">
        <ele>183.3</ele>
        <time>2014-04-29T09:43:13Z</time>
      </trkpt>
      <trkpt lat="48.74674" lon="2.01004">
        <ele>185.6</ele>
        <time>2014-04-29T09:43:25Z</time>
      </trkpt>
      <trkpt lat="48.74681" lon="2.00996">
        <ele>184.3</ele>
        <time>2014-04-29T09:43:36Z</time>
      </trkpt>
      <trkpt lat="48.74687" lon="2.00984">
        <ele>185.5</ele>
        <time>2014-04-29T09:43:46Z</time>
      </trkpt>
      <trkpt lat="48.7468" lon="2.00969">
        <ele>185.1</ele>
        <time>2014-04-29T09:43:56Z</time>
      </trkpt>
      <trkpt lat="48.74673" lon="2.00951">
        <ele>184.1</ele>
        <time>2014-04-29T09:44:07Z</time>
      </trkpt>
      <trkpt lat="48.74675" lon="2.0093">
        <ele>184.5</ele>
        <time>2014-04-29T09:44:19Z</time>
      </trkpt>
      <trkpt lat="48.74679" lon="2.0091">
        <ele>187.8</ele>
        <time>2014-04-29T09:44:29Z</time>
      </trkpt>
      <trkpt lat="48.74682" lon="2.00891">
        <ele>190.9</ele>
        <time>2014-04-29T09:44:47Z</time>
      </trkpt>
      <trkpt lat="48.74671" lon="2.00873">
        <ele>187</ele>
        <time>2014-04-29T09:44:58Z</time>
      </trkpt>
      <trkpt lat="48.74663" lon="2.00855">
        <ele>184.1</ele>
        <time>2014-04-29T09:45:09Z</time>
      </trkpt>
      <trkpt lat="48.74659" lon="2.00832">
        <ele>184.7</ele>
        <time>2014-04-29T09:45:19Z</time>
      </trkpt>
      <trkpt lat="48.74669" lon="2.00806">
        <ele>176.8</ele>
        <time>2014-04-29T09:45:30Z</time>
      </trkpt>
      <trkpt lat="48.74676" lon="2.00792">
        <ele>174.1</ele>
        <time>2014-04-29T09:45:40Z</time>
      </trkpt>
      <trkpt lat="48.74689" lon="2.00774">
        <ele>164.9</ele>
        <time>2014-04-29T09:45:52Z</time>
      </trkpt>
      <trkpt lat="48.74693" lon="2.00755">
        <ele>168.4</ele>
        <time>2014-04-29T09:46:02Z</time>
      </trkpt>
      <trkpt lat="48.74694" lon="2.00749">
        <ele>169.1</ele>
        <time>2014-04-29T09:46:04Z</time>
      </trkpt>
      <trkpt lat="48.74699" lon="2.0073">
        <ele>170.6</ele>
        <time>2014-04-29T09:46:15Z</time>
      </trkpt>
      <trkpt lat="48.74706" lon="2.00717">
        <ele>176.7</ele>
        <time>2014-04-29T09:46:26Z</time>
      </trkpt>
      <trkpt lat="48.74714" lon="2.00699">
        <ele>178.8</ele>
        <time>2014-04-29T09:46:36Z</time>
      </trkpt>
      <trkpt lat="48.7472" lon="2.00681">
        <ele>183.8</ele>
        <time>2014-04-29T09:46:47Z</time>
      </trkpt>
      <trkpt lat="48.74731" lon="2.00665">
        <ele>182.9</ele>
        <time>2014-04-29T09:47:00Z</time>
      </trkpt>
      <trkpt lat="48.74735" lon="2.00652">
        <ele>182.5</ele>
        <time>2014-04-29T09:47:19Z</time>
      </trkpt>
      <trkpt lat="48.74744" lon="2.00615">
        <ele>180.3</ele>
        <time>2014-04-29T09:47:30Z</time>
      </trkpt>
      <trkpt lat="48.74747" lon="2.00603">
        <ele>179.7</ele>
        <time>2014-04-29T09:47:40Z</time>
      </trkpt>
      <trkpt lat="48.74747" lon="2.00591">
        <ele>180.8</ele>
        <time>2014-04-29T09:47:57Z</time>
      </trkpt>
      <trkpt lat="48.74751" lon="2.00565">
        <ele>179.9</ele>
        <time>2014-04-29T09:48:10Z</time>
      </trkpt>
      <trkpt lat="48.74759" lon="2.00556">
        <ele>181.7</ele>
        <time>2014-04-29T09:48:46Z</time>
      </trkpt>
      <trkpt lat="48.74763" lon="2.00525">
        <ele>179.5</ele>
        <time>2014-04-29T09:48:56Z</time>
      </trkpt>
      <trkpt lat="48.74768" lon="2.00508">
        <ele>179.3</ele>
        <time>2014-04-29T09:49:06Z</time>
      </trkpt>
      <trkpt lat="48.74772" lon="2.00496">
        <ele>181.2</ele>
        <time>2014-04-29T09:49:17Z</time>
      </trkpt>
      <trkpt lat="48.74771" lon="2.00473">
        <ele>183.9</ele>
        <time>2014-04-29T09:49:28Z</time>
      </trkpt>
      <trkpt lat="48.74778" lon="2.00459">
        <ele>186.9</ele>
        <time>2014-04-29T09:49:41Z</time>
      </trkpt>
      <trkpt lat="48.74776" lon="2.00442">
        <ele>189</ele>
        <time>2014-04-29T09:49:51Z</time>
      </trkpt>
      <trkpt lat="48.74771" lon="2.00427">
        <ele>194.7</ele>
        <time>2014-04-29T09:50:04Z</time>
      </trkpt>
      <trkpt lat="48.7477" lon="2.00407">
        <ele>193.2</ele>
        <time>2014-04-29T09:50:14Z</time>
      </trkpt>
      <trkpt lat="48.74771" lon="2.00389">
        <ele>198.5</ele>
        <time>2014-04-29T09:50:26Z</time>
      </trkpt>
      <trkpt lat="48.74771" lon="2.00375">
        <ele>199.7</ele>
        <time>2014-04-29T09:50:36Z</time>
      </trkpt>
      <trkpt lat="48.74774" lon="2.00358">
        <ele>198.3</ele>
        <time>2014-04-29T09:50:49Z</time>
      </trkpt>
      <trkpt lat="48.74771" lon="2.00357">
        <ele>201.3</ele>
        <time>2014-04-29T09:51:41Z</time>
      </trkpt>
      <trkpt lat="48.74772" lon="2.00345">
        <ele>199.9</ele>
        <time>2014-04-29T09:51:52Z</time>
      </trkpt>
      <trkpt lat="48.74772" lon="2.00325">
        <ele>197.7</ele>
        <time>2014-04-29T09:52:03Z</time>
      </trkpt>
      <trkpt lat="48.74773" lon="2.00311">
        <ele>199</ele>
        <time>2014-04-29T09:52:17Z</time>
      </trkpt>
      <trkpt lat="48.7476" lon="2.00293">
        <ele>207.3</ele>
        <time>2014-04-29T09:52:28Z</time>
      </trkpt>
      <trkpt lat="48.74754" lon="2.00275">
        <ele>207.5</ele>
        <time>2014-04-29T09:52:38Z</time>
      </trkpt>
      <trkpt lat="48.74754" lon="2.0025">
        <ele>207.2</ele>
        <time>2014-04-29T09:52:49Z</time>
      </trkpt>
      <trkpt lat="48.74762" lon="2.00228">
        <ele>204.6</ele>
        <time>2014-04-29T09:53:04Z</time>
      </trkpt>
      <trkpt lat="48.74769" lon="2.00224">
        <ele>204.5</ele>
        <time>2014-04-29T09:53:16Z</time>
      </trkpt>
      <trkpt lat="48.74781" lon="2.00218">
        <ele>206.3</ele>
        <time>2014-04-29T09:53:27Z</time>
      </trkpt>
      <trkpt lat="48.74787" lon="2.00219">
        <ele>207.6</ele>
        <time>2014-04-29T09:53:52Z</time>
      </trkpt>
      <trkpt lat="48.74793" lon="2.00216">
        <ele>212</ele>
        <time>2014-04-29T09:54:11Z</time>
      </trkpt>
      <trkpt lat="48.74798" lon="2.00211">
        <ele>211.7</ele>
        <time>2014-04-29T09:54:28Z</time>
      </trkpt>
      <trkpt lat="48.74814" lon="2.00189">
        <ele>216.6</ele>
        <time>2014-04-29T09:54:38Z</time>
      </trkpt>
      <trkpt lat="48.74828" lon="2.00172">
        <ele>217.6</ele>
        <time>2014-04-29T09:54:49Z</time>
      </trkpt>
      <trkpt lat="48.74835" lon="2.00153">
        <ele>217.4</ele>
        <time>2014-04-29T09:55:00Z</time>
      </trkpt>
      <trkpt lat="48.74842" lon="2.00129">
        <ele>209.2</ele>
        <time>2014-04-29T09:55:12Z</time>
      </trkpt>
      <trkpt lat="48.74852" lon="2.00114">
        <ele>205.4</ele>
        <time>2014-04-29T09:55:23Z</time>
      </trkpt>
      <trkpt lat="48.74854" lon="2.001">
        <ele>204.1</ele>
        <time>2014-04-29T09:55:35Z</time>
      </trkpt>
      <trkpt lat="48.74857" lon="2.0008">
        <ele>203</ele>
        <time>2014-04-29T09:55:45Z</time>
      </trkpt>
      <trkpt lat="48.74857" lon="2.00056">
        <ele>200</ele>
        <time>2014-04-29T09:55:56Z</time>
      </trkpt>
      <trkpt lat="48.74855" lon="2.0004">
        <ele>205.3</ele>
        <time>2014-04-29T09:56:07Z</time>
      </trkpt>
      <trkpt lat="48.74854" lon="2.00023">
        <ele>210</ele>
        <time>2014-04-29T09:56:18Z</time>
      </trkpt>
      <trkpt lat="48.74845" lon="2.00004">
        <ele>209.7</ele>
        <time>2014-04-29T09:56:29Z</time>
      </trkpt>
      <trkpt lat="48.74844" lon="1.99984">
        <ele>208.6</ele>
        <time>2014-04-29T09:56:39Z</time>
      </trkpt>
      <trkpt lat="48.74842" lon="1.99959">
        <ele>205.5</ele>
        <time>2014-04-29T09:57:21Z</time>
      </trkpt>
      <trkpt lat="48.74846" lon="1.99943">
        <ele>209.6</ele>
        <time>2014-04-29T09:57:31Z</time>
      </trkpt>
      <trkpt lat="48.74853" lon="1.99923">
        <ele>206.1</ele>
        <time>2014-04-29T09:57:43Z</time>
      </trkpt>
      <trkpt lat="48.74855" lon="1.99914">
        <ele>205.8</ele>
        <time>2014-04-29T09:57:53Z</time>
      </trkpt>
      <trkpt lat="48.74862" lon="1.99897">
        <ele>206.3</ele>
        <time>2014-04-29T09:58:03Z</time>
      </trkpt>
      <trkpt lat="48.74867" lon="1.99868">
        <ele>207.8</ele>
        <time>2014-04-29T09:58:15Z</time>
      </trkpt>
      <trkpt lat="48.74875" lon="1.99845">
        <ele>209.7</ele>
        <time>2014-04-29T09:58:26Z</time>
      </trkpt>
      <trkpt lat="48.74871" lon="1.99824">
        <ele>213.4</ele>
        <time>2014-04-29T09:58:36Z</time>
      </trkpt>
      <trkpt lat="48.74869" lon="1.99811">
        <ele>215.9</ele>
        <time>2014-04-29T09:58:46Z</time>
      </trkpt>
      <trkpt lat="48.74867" lon="1.99791">
        <ele>216.4</ele>
        <time>2014-04-29T09:58:56Z</time>
      </trkpt>
      <trkpt lat="48.74862" lon="1.99774">
        <ele>217.4</ele>
        <time>2014-04-29T09:59:06Z</time>
      </trkpt>
      <trkpt lat="48.74859" lon="1.99755">
        <ele>221.1</ele>
        <time>2014-04-29T09:59:19Z</time>
      </trkpt>
      <trkpt lat="48.74858" lon="1.99729">
        <ele>218</ele>
        <time>2014-04-29T09:59:30Z</time>
      </trkpt>
      <trkpt lat="48.74857" lon="1.9971">
        <ele>211.6</ele>
        <time>2014-04-29T09:59:42Z</time>
      </trkpt>
      <trkpt lat="48.74852" lon="1.99697">
        <ele>210.3</ele>
        <time>2014-04-29T09:59:53Z</time>
      </trkpt>
      <trkpt lat="48.74849" lon="1.99673">
        <ele>211.7</ele>
        <time>2014-04-29T10:00:05Z</time>
      </trkpt>
      <trkpt lat="48.74847" lon="1.99653">
        <ele>212.9</ele>
        <time>2014-04-29T10:00:16Z</time>
      </trkpt>
      <trkpt lat="48.74853" lon="1.99633">
        <ele>214.2</ele>
        <time>2014-04-29T10:00:28Z</time>
      </trkpt>
      <trkpt lat="48.74861" lon="1.99616">
        <ele>208.4</ele>
        <time>2014-04-29T10:00:39Z</time>
      </trkpt>
      <trkpt lat="48.74864" lon="1.99595">
        <ele>208.1</ele>
        <time>2014-04-29T10:00:51Z</time>
      </trkpt>
      <trkpt lat="48.74862" lon="1.99584">
        <ele>208.1</ele>
        <time>2014-04-29T10:01:03Z</time>
      </trkpt>
      <trkpt lat="48.74869" lon="1.9956">
        <ele>206.4</ele>
        <time>2014-04-29T10:01:14Z</time>
      </trkpt>
      <trkpt lat="48.74873" lon="1.99548">
        <ele>209.6</ele>
        <time>2014-04-29T10:01:24Z</time>
      </trkpt>
      <trkpt lat="48.74874" lon="1.99538">
        <ele>208.5</ele>
        <time>2014-04-29T10:01:30Z</time>
      </trkpt>
      <trkpt lat="48.74872" lon="1.99521">
        <ele>209.7</ele>
        <time>2014-04-29T10:01:58Z</time>
      </trkpt>
      <trkpt lat="48.74867" lon="1.99489">
        <ele>203.5</ele>
        <time>2014-04-29T10:02:08Z</time>
      </trkpt>
      <trkpt lat="48.74868" lon="1.99484">
        <ele>201.8</ele>
        <time>2014-04-29T10:02:09Z</time>
      </trkpt>
      <trkpt lat="48.74864" lon="1.9946">
        <ele>201</ele>
        <time>2014-04-29T10:02:19Z</time>
      </trkpt>
      <trkpt lat="48.74862" lon="1.99442">
        <ele>206.3</ele>
        <time>2014-04-29T10:02:29Z</time>
      </trkpt>
      <trkpt lat="48.7487" lon="1.99422">
        <ele>205.2</ele>
        <time>2014-04-29T10:02:40Z</time>
      </trkpt>
      <trkpt lat="48.74876" lon="1.99409">
        <ele>205.1</ele>
        <time>2014-04-29T10:02:51Z</time>
      </trkpt>
      <trkpt lat="48.74889" lon="1.99399">
        <ele>206.9</ele>
        <time>2014-04-29T10:03:03Z</time>
      </trkpt>
      <trkpt lat="48.74902" lon="1.99387">
        <ele>205.5</ele>
        <time>2014-04-29T10:03:16Z</time>
      </trkpt>
      <trkpt lat="48.74904" lon="1.9939">
        <ele>202</ele>
        <time>2014-04-29T10:03:18Z</time>
      </trkpt>
      <trkpt lat="48.74913" lon="1.99386">
        <ele>200.5</ele>
        <time>2014-04-29T10:03:34Z</time>
      </trkpt>
      <trkpt lat="48.74907" lon="1.99379">
        <ele>198.8</ele>
        <time>2014-04-29T10:04:11Z</time>
      </trkpt>
      <trkpt lat="48.74902" lon="1.99385">
        <ele>204.7</ele>
        <time>2014-04-29T10:04:23Z</time>
      </trkpt>
      <trkpt lat="48.749" lon="1.99381">
        <ele>206.1</ele>
        <time>2014-04-29T10:05:37Z</time>
      </trkpt>
      <trkpt lat="48.74891" lon="1.99372">
        <ele>214.4</ele>
        <time>2014-04-29T10:05:47Z</time>
      </trkpt>
      <trkpt lat="48.74889" lon="1.99367">
        <ele>215.2</ele>
        <time>2014-04-29T10:05:49Z</time>
      </trkpt>
      <trkpt lat="48.74885" lon="1.99354">
        <ele>214.2</ele>
        <time>2014-04-29T10:05:59Z</time>
      </trkpt>
      <trkpt lat="48.74881" lon="1.99332">
        <ele>214.6</ele>
        <time>2014-04-29T10:06:12Z</time>
      </trkpt>
      <trkpt lat="48.74873" lon="1.99316">
        <ele>213.7</ele>
        <time>2014-04-29T10:06:23Z</time>
      </trkpt>
      <trkpt lat="48.74871" lon="1.99299">
        <ele>215.3</ele>
        <time>2014-04-29T10:07:00Z</time>
      </trkpt>
      <trkpt lat="48.74877" lon="1.99294">
        <ele>209.8</ele>
        <time>2014-04-29T10:08:32Z</time>
      </trkpt>
      <trkpt lat="48.74882" lon="1.99306">
        <ele>212.4</ele>
        <time>2014-04-29T10:08:38Z</time>
      </trkpt>
      <trkpt lat="48.74888" lon="1.99322">
        <ele>217.9</ele>
        <time>2014-04-29T10:08:50Z</time>
      </trkpt>
      <trkpt lat="48.74895" lon="1.99341">
        <ele>215.9</ele>
        <time>2014-04-29T10:09:00Z</time>
      </trkpt>
      <trkpt lat="48.74899" lon="1.99361">
        <ele>217.3</ele>
        <time>2014-04-29T10:09:12Z</time>
      </trkpt>
      <trkpt lat="48.74905" lon="1.99372">
        <ele>217.6</ele>
        <time>2014-04-29T10:09:22Z</time>
      </trkpt>
      <trkpt lat="48.74911" lon="1.99372">
        <ele>217.9</ele>
        <time>2014-04-29T10:09:50Z</time>
      </trkpt>
      <trkpt lat="48.74914" lon="1.99345">
        <ele>221.8</ele>
        <time>2014-04-29T10:10:00Z</time>
      </trkpt>
      <trkpt lat="48.74915" lon="1.99335">
        <ele>221</ele>
        <time>2014-04-29T10:10:11Z</time>
      </trkpt>
      <trkpt lat="48.74914" lon="1.99309">
        <ele>221.3</ele>
        <time>2014-04-29T10:10:25Z</time>
      </trkpt>
      <trkpt lat="48.74908" lon="1.99299">
        <ele>220.5</ele>
        <time>2014-04-29T10:10:35Z</time>
      </trkpt>
      <trkpt lat="48.749" lon="1.99275">
        <ele>214.5</ele>
        <time>2014-04-29T10:10:46Z</time>
      </trkpt>
      <trkpt lat="48.7489" lon="1.9925">
        <ele>207</ele>
        <time>2014-04-29T10:10:56Z</time>
      </trkpt>
      <trkpt lat="48.74888" lon="1.99228">
        <ele>207.5</ele>
        <time>2014-04-29T10:11:07Z</time>
      </trkpt>
      <trkpt lat="48.74894" lon="1.99209">
        <ele>209.2</ele>
        <time>2014-04-29T10:11:17Z</time>
      </trkpt>
      <trkpt lat="48.74897" lon="1.99193">
        <ele>210.6</ele>
        <time>2014-04-29T10:11:31Z</time>
      </trkpt>
      <trkpt lat="48.74901" lon="1.99177">
        <ele>210.9</ele>
        <time>2014-04-29T10:11:47Z</time>
      </trkpt>
      <trkpt lat="48.74904" lon="1.99168">
        <ele>211</ele>
        <time>2014-04-29T10:11:48Z</time>
      </trkpt>
      <trkpt lat="48.74906" lon="1.99159">
        <ele>212.5</ele>
        <time>2014-04-29T10:11:52Z</time>
      </trkpt>
      <trkpt lat="48.74906" lon="1.99133">
        <ele>213.3</ele>
        <time>2014-04-29T10:12:03Z</time>
      </trkpt>
      <trkpt lat="48.74913" lon="1.99114">
        <ele>215.1</ele>
        <time>2014-04-29T10:12:16Z</time>
      </trkpt>
      <trkpt lat="48.74922" lon="1.99101">
        <ele>215.9</ele>
        <time>2014-04-29T10:12:28Z</time>
      </trkpt>
      <trkpt lat="48.74932" lon="1.99091">
        <ele>216.9</ele>
        <time>2014-04-29T10:12:43Z</time>
      </trkpt>
      <trkpt lat="48.74934" lon="1.99086">
        <ele>212.6</ele>
        <time>2014-04-29T10:13:10Z</time>
      </trkpt>
      <trkpt lat="48.74933" lon="1.99073">
        <ele>211.5</ele>
        <time>2014-04-29T10:13:20Z</time>
      </trkpt>
      <trkpt lat="48.74931" lon="1.99059">
        <ele>208.4</ele>
        <time>2014-04-29T10:13:31Z</time>
      </trkpt>
      <trkpt lat="48.74927" lon="1.99039">
        <ele>201.9</ele>
        <time>2014-04-29T10:13:42Z</time>
      </trkpt>
      <trkpt lat="48.74922" lon="1.99024">
        <ele>202.8</ele>
        <time>2014-04-29T10:13:52Z</time>
      </trkpt>
      <trkpt lat="48.74918" lon="1.99011">
        <ele>202.8</ele>
        <time>2014-04-29T10:14:02Z</time>
      </trkpt>
      <trkpt lat="48.74914" lon="1.99">
        <ele>203.1</ele>
        <time>2014-04-29T10:14:15Z</time>
      </trkpt>
      <trkpt lat="48.74909" lon="1.98968">
        <ele>203.5</ele>
        <time>2014-04-29T10:14:26Z</time>
      </trkpt>
      <trkpt lat="48.74899" lon="1.98963">
        <ele>206.7</ele>
        <time>2014-04-29T10:14:37Z</time>
      </trkpt>
      <trkpt lat="48.74894" lon="1.98958">
        <ele>210.3</ele>
        <time>2014-04-29T10:15:11Z</time>
      </trkpt>
      <trkpt lat="48.74874" lon="1.98968">
        <ele>214.7</ele>
        <time>2014-04-29T10:15:21Z</time>
      </trkpt>
      <trkpt lat="48.74872" lon="1.98971">
        <ele>215.9</ele>
        <time>2014-04-29T10:15:22Z</time>
      </trkpt>
      <trkpt lat="48.74858" lon="1.98989">
        <ele>214.5</ele>
        <time>2014-04-29T10:15:32Z</time>
      </trkpt>
      <trkpt lat="48.74849" lon="1.99005">
        <ele>212.8</ele>
        <time>2014-04-29T10:15:42Z</time>
      </trkpt>
      <trkpt lat="48.74838" lon="1.99022">
        <ele>213.1</ele>
        <time>2014-04-29T10:15:53Z</time>
      </trkpt>
      <trkpt lat="48.7483" lon="1.99039">
        <ele>214.9</ele>
        <time>2014-04-29T10:16:03Z</time>
      </trkpt>
      <trkpt lat="48.74818" lon="1.9906">
        <ele>215.5</ele>
        <time>2014-04-29T10:16:13Z</time>
      </trkpt>
      <trkpt lat="48.74807" lon="1.99076">
        <ele>211.3</ele>
        <time>2014-04-29T10:16:23Z</time>
      </trkpt>
      <trkpt lat="48.74798" lon="1.99096">
        <ele>208.9</ele>
        <time>2014-04-29T10:16:35Z</time>
      </trkpt>
      <trkpt lat="48.74792" lon="1.99122">
        <ele>208.9</ele>
        <time>2014-04-29T10:16:46Z</time>
      </trkpt>
      <trkpt lat="48.7479" lon="1.99136">
        <ele>210.8</ele>
        <time>2014-04-29T10:16:56Z</time>
      </trkpt>
      <trkpt lat="48.74792" lon="1.99154">
        <ele>205.5</ele>
        <time>2014-04-29T10:17:07Z</time>
      </trkpt>
      <trkpt lat="48.74798" lon="1.99178">
        <ele>199.3</ele>
        <time>2014-04-29T10:17:20Z</time>
      </trkpt>
      <trkpt lat="48.74795" lon="1.99187">
        <ele>201.3</ele>
        <time>2014-04-29T10:17:30Z</time>
      </trkpt>
      <trkpt lat="48.74789" lon="1.99195">
        <ele>204.3</ele>
        <time>2014-04-29T10:17:51Z</time>
      </trkpt>
      <trkpt lat="48.74783" lon="1.99182">
        <ele>205.2</ele>
        <time>2014-04-29T10:18:00Z</time>
      </trkpt>
      <trkpt lat="48.7477" lon="1.99167">
        <ele>202.1</ele>
        <time>2014-04-29T10:18:12Z</time>
      </trkpt>
      <trkpt lat="48.74752" lon="1.99161">
        <ele>200.9</ele>
        <time>2014-04-29T10:18:23Z</time>
      </trkpt>
      <trkpt lat="48.74746" lon="1.99151">
        <ele>199.9</ele>
        <time>2014-04-29T10:18:33Z</time>
      </trkpt>
      <trkpt lat="48.74734" lon="1.99144">
        <ele>198.9</ele>
        <time>2014-04-29T10:18:43Z</time>
      </trkpt>
      <trkpt lat="48.74724" lon="1.99143">
        <ele>196.5</ele>
        <time>2014-04-29T10:18:53Z</time>
      </trkpt>
      <trkpt lat="48.74713" lon="1.99138">
        <ele>196.7</ele>
        <time>2014-04-29T10:19:04Z</time>
      </trkpt>
      <trkpt lat="48.74704" lon="1.99141">
        <ele>199</ele>
        <time>2014-04-29T10:19:17Z</time>
      </trkpt>
      <trkpt lat="48.74692" lon="1.99142">
        <ele>201</ele>
        <time>2014-04-29T10:19:29Z</time>
      </trkpt>
      <trkpt lat="48.74681" lon="1.99138">
        <ele>194.5</ele>
        <time>2014-04-29T10:19:40Z</time>
      </trkpt>
      <trkpt lat="48.7467" lon="1.99136">
        <ele>196.9</ele>
        <time>2014-04-29T10:19:51Z</time>
      </trkpt>
      <trkpt lat="48.74665" lon="1.99142">
        <ele>200.8</ele>
        <time>2014-04-29T10:20:03Z</time>
      </trkpt>
      <trkpt lat="48.74652" lon="1.9915">
        <ele>205</ele>
        <time>2014-04-29T10:20:13Z</time>
      </trkpt>
      <trkpt lat="48.74643" lon="1.99155">
        <ele>206</ele>
        <time>2014-04-29T10:20:23Z</time>
      </trkpt>
      <trkpt lat="48.7463" lon="1.99163">
        <ele>210.6</ele>
        <time>2014-04-29T10:20:34Z</time>
      </trkpt>
      <trkpt lat="48.74617" lon="1.9917">
        <ele>211.1</ele>
        <time>2014-04-29T10:20:44Z</time>
      </trkpt>
      <trkpt lat="48.74606" lon="1.9917">
        <ele>209.2</ele>
        <time>2014-04-29T10:20:54Z</time>
      </trkpt>
      <trkpt lat="48.74592" lon="1.99175">
        <ele>211.2</ele>
        <time>2014-04-29T10:21:04Z</time>
      </trkpt>
      <trkpt lat="48.7458" lon="1.9918">
        <ele>211</ele>
        <time>2014-04-29T10:21:15Z</time>
      </trkpt>
      <trkpt lat="48.74568" lon="1.99184">
        <ele>210.3</ele>
        <time>2014-04-29T10:21:25Z</time>
      </trkpt>
      <trkpt lat="48.74556" lon="1.99188">
        <ele>210</ele>
        <time>2014-04-29T10:21:35Z</time>
      </trkpt>
      <trkpt lat="48.74542" lon="1.99191">
        <ele>209.1</ele>
        <time>2014-04-29T10:21:47Z</time>
      </trkpt>
      <trkpt lat="48.7453" lon="1.99191">
        <ele>208.9</ele>
        <time>2014-04-29T10:22:02Z</time>
      </trkpt>
      <trkpt lat="48.74528" lon="1.99188">
        <ele>214.1</ele>
        <time>2014-04-29T10:22:26Z</time>
      </trkpt>
      <trkpt lat="48.7453" lon="1.99188">
        <ele>212.9</ele>
        <time>2014-04-29T10:23:08Z</time>
      </trkpt>
      <trkpt lat="48.74531" lon="1.99183">
        <ele>210.7</ele>
        <time>2014-04-29T10:24:38Z</time>
      </trkpt>
      <trkpt lat="48.74533" lon="1.9917">
        <ele>206.5</ele>
        <time>2014-04-29T10:24:51Z</time>
      </trkpt>
      <trkpt lat="48.74536" lon="1.99156">
        <ele>204.4</ele>
        <time>2014-04-29T10:25:01Z</time>
      </trkpt>
      <trkpt lat="48.7454" lon="1.99141">
        <ele>206.2</ele>
        <time>2014-04-29T10:25:11Z</time>
      </trkpt>
      <trkpt lat="48.74545" lon="1.99128">
        <ele>203.4</ele>
        <time>2014-04-29T10:25:21Z</time>
      </trkpt>
      <trkpt lat="48.7455" lon="1.99112">
        <ele>203.7</ele>
        <time>2014-04-29T10:25:33Z</time>
      </trkpt>
      <trkpt lat="48.74556" lon="1.99099">
        <ele>203.1</ele>
        <time>2014-04-29T10:25:43Z</time>
      </trkpt>
      <trkpt lat="48.74557" lon="1.99094">
        <ele>201.5</ele>
        <time>2014-04-29T10:26:03Z</time>
      </trkpt>
      <trkpt lat="48.7456" lon="1.99081">
        <ele>201.2</ele>
        <time>2014-04-29T10:26:13Z</time>
      </trkpt>
      <trkpt lat="48.74565" lon="1.99063">
        <ele>202.1</ele>
        <time>2014-04-29T10:26:25Z</time>
      </trkpt>
      <trkpt lat="48.74571" lon="1.9905">
        <ele>202.6</ele>
        <time>2014-04-29T10:27:04Z</time>
      </trkpt>
      <trkpt lat="48.74574" lon="1.99044">
        <ele>202.2</ele>
        <time>2014-04-29T10:28:02Z</time>
      </trkpt>
      <trkpt lat="48.74577" lon="1.9903">
        <ele>202.6</ele>
        <time>2014-04-29T10:28:46Z</time>
      </trkpt>
      <trkpt lat="48.74587" lon="1.99012">
        <ele>206.1</ele>
        <time>2014-04-29T10:28:58Z</time>
      </trkpt>
      <trkpt lat="48.74595" lon="1.98996">
        <ele>204</ele>
        <time>2014-04-29T10:29:09Z</time>
      </trkpt>
      <trkpt lat="48.74603" lon="1.98981">
        <ele>204.2</ele>
        <time>2014-04-29T10:29:21Z</time>
      </trkpt>
      <trkpt lat="48.74611" lon="1.98964">
        <ele>201.8</ele>
        <time>2014-04-29T10:29:33Z</time>
      </trkpt>
      <trkpt lat="48.74617" lon="1.98953">
        <ele>202.2</ele>
        <time>2014-04-29T10:29:44Z</time>
      </trkpt>
      <trkpt lat="48.74624" lon="1.98936">
        <ele>201.4</ele>
        <time>2014-04-29T10:29:56Z</time>
      </trkpt>
      <trkpt lat="48.74628" lon="1.98918">
        <ele>201.6</ele>
        <time>2014-04-29T10:30:08Z</time>
      </trkpt>
      <trkpt lat="48.74631" lon="1.989">
        <ele>199.1</ele>
        <time>2014-04-29T10:30:32Z</time>
      </trkpt>
      <trkpt lat="48.74633" lon="1.98887">
        <ele>198.8</ele>
        <time>2014-04-29T10:30:45Z</time>
      </trkpt>
      <trkpt lat="48.74635" lon="1.98873">
        <ele>198.3</ele>
        <time>2014-04-29T10:30:56Z</time>
      </trkpt>
      <trkpt lat="48.74636" lon="1.98855">
        <ele>199.5</ele>
        <time>2014-04-29T10:31:09Z</time>
      </trkpt>
      <trkpt lat="48.74638" lon="1.98846">
        <ele>202.2</ele>
        <time>2014-04-29T10:31:22Z</time>
      </trkpt>
      <trkpt lat="48.7464" lon="1.98827">
        <ele>199.8</ele>
        <time>2014-04-29T10:31:34Z</time>
      </trkpt>
      <trkpt lat="48.74641" lon="1.98812">
        <ele>201</ele>
        <time>2014-04-29T10:31:44Z</time>
      </trkpt>
      <trkpt lat="48.74641" lon="1.98796">
        <ele>199.7</ele>
        <time>2014-04-29T10:31:57Z</time>
      </trkpt>
      <trkpt lat="48.7464" lon="1.98776">
        <ele>202.4</ele>
        <time>2014-04-29T10:32:09Z</time>
      </trkpt>
      <trkpt lat="48.74637" lon="1.98758">
        <ele>204.7</ele>
        <time>2014-04-29T10:32:21Z</time>
      </trkpt>
      <trkpt lat="48.74635" lon="1.98744">
        <ele>203.7</ele>
        <time>2014-04-29T10:32:32Z</time>
      </trkpt>
      <trkpt lat="48.74629" lon="1.98726">
        <ele>204</ele>
        <time>2014-04-29T10:32:44Z</time>
      </trkpt>
      <trkpt lat="48.74629" lon="1.98703">
        <ele>203.9</ele>
        <time>2014-04-29T10:32:54Z</time>
      </trkpt>
      <trkpt lat="48.74627" lon="1.98683">
        <ele>203</ele>
        <time>2014-04-29T10:33:04Z</time>
      </trkpt>
      <trkpt lat="48.74626" lon="1.98662">
        <ele>198.3</ele>
        <time>2014-04-29T10:33:15Z</time>
      </trkpt>
      <trkpt lat="48.74627" lon="1.98644">
        <ele>195.7</ele>
        <time>2014-04-29T10:33:25Z</time>
      </trkpt>
      <trkpt lat="48.74625" lon="1.98619">
        <ele>198.4</ele>
        <time>2014-04-29T10:33:37Z</time>
      </trkpt>
      <trkpt lat="48.74623" lon="1.98601">
        <ele>199</ele>
        <time>2014-04-29T10:33:47Z</time>
      </trkpt>
      <trkpt lat="48.74619" lon="1.98577">
        <ele>201.8</ele>
        <time>2014-04-29T10:33:59Z</time>
      </trkpt>
      <trkpt lat="48.74616" lon="1.98558">
        <ele>202.3</ele>
        <time>2014-04-29T10:34:09Z</time>
      </trkpt>
      <trkpt lat="48.74614" lon="1.98537">
        <ele>203.1</ele>
        <time>2014-04-29T10:34:20Z</time>
      </trkpt>
      <trkpt lat="48.7461" lon="1.98523">
        <ele>203.1</ele>
        <time>2014-04-29T10:34:34Z</time>
      </trkpt>
      <trkpt lat="48.74607" lon="1.98506">
        <ele>206.5</ele>
        <time>2014-04-29T10:34:44Z</time>
      </trkpt>
      <trkpt lat="48.74605" lon="1.98489">
        <ele>205.2</ele>
        <time>2014-04-29T10:34:54Z</time>
      </trkpt>
      <trkpt lat="48.74599" lon="1.98471">
        <ele>208.1</ele>
        <time>2014-04-29T10:35:06Z</time>
      </trkpt>
      <trkpt lat="48.74596" lon="1.98452">
        <ele>206.7</ele>
        <time>2014-04-29T10:35:16Z</time>
      </trkpt>
      <trkpt lat="48.74587" lon="1.98432">
        <ele>210</ele>
        <time>2014-04-29T10:35:28Z</time>
      </trkpt>
      <trkpt lat="48.7458" lon="1.98411">
        <ele>209</ele>
        <time>2014-04-29T10:35:39Z</time>
      </trkpt>
      <trkpt lat="48.74572" lon="1.98389">
        <ele>210.8</ele>
        <time>2014-04-29T10:35:50Z</time>
      </trkpt>
      <trkpt lat="48.74565" lon="1.98371">
        <ele>209.7</ele>
        <time>2014-04-29T10:36:00Z</time>
      </trkpt>
      <trkpt lat="48.7456" lon="1.98351">
        <ele>205.9</ele>
        <time>2014-04-29T10:36:11Z</time>
      </trkpt>
      <trkpt lat="48.74552" lon="1.98329">
        <ele>203.8</ele>
        <time>2014-04-29T10:36:23Z</time>
      </trkpt>
      <trkpt lat="48.74546" lon="1.98311">
        <ele>206.4</ele>
        <time>2014-04-29T10:36:35Z</time>
      </trkpt>
      <trkpt lat="48.74538" lon="1.98291">
        <ele>207.6</ele>
        <time>2014-04-29T10:36:46Z</time>
      </trkpt>
      <trkpt lat="48.74527" lon="1.98274">
        <ele>210.8</ele>
        <time>2014-04-29T10:36:57Z</time>
      </trkpt>
      <trkpt lat="48.7452" lon="1.98256">
        <ele>211.7</ele>
        <time>2014-04-29T10:37:08Z</time>
      </trkpt>
      <trkpt lat="48.74509" lon="1.98238">
        <ele>213.3</ele>
        <time>2014-04-29T10:37:18Z</time>
      </trkpt>
      <trkpt lat="48.74507" lon="1.98224">
        <ele>207.2</ele>
        <time>2014-04-29T10:38:16Z</time>
      </trkpt>
      <trkpt lat="48.74497" lon="1.98203">
        <ele>207.1</ele>
        <time>2014-04-29T10:38:26Z</time>
      </trkpt>
      <trkpt lat="48.74487" lon="1.98186">
        <ele>207.2</ele>
        <time>2014-04-29T10:38:36Z</time>
      </trkpt>
      <trkpt lat="48.74475" lon="1.9817">
        <ele>211.9</ele>
        <time>2014-04-29T10:38:46Z</time>
      </trkpt>
      <trkpt lat="48.74467" lon="1.98154">
        <ele>209.1</ele>
        <time>2014-04-29T10:38:57Z</time>
      </trkpt>
      <trkpt lat="48.74458" lon="1.98138">
        <ele>208.2</ele>
        <time>2014-04-29T10:39:07Z</time>
      </trkpt>
      <trkpt lat="48.74449" lon="1.98121">
        <ele>209.4</ele>
        <time>2014-04-29T10:39:19Z</time>
      </trkpt>
      <trkpt lat="48.74438" lon="1.98106">
        <ele>206.2</ele>
        <time>2014-04-29T10:39:29Z</time>
      </trkpt>
      <trkpt lat="48.74429" lon="1.9809">
        <ele>206</ele>
        <time>2014-04-29T10:39:39Z</time>
      </trkpt>
      <trkpt lat="48.7442" lon="1.98074">
        <ele>210.1</ele>
        <time>2014-04-29T10:39:49Z</time>
      </trkpt>
      <trkpt lat="48.74409" lon="1.9806">
        <ele>213.3</ele>
        <time>2014-04-29T10:40:00Z</time>
      </trkpt>
      <trkpt lat="48.744" lon="1.98045">
        <ele>212.8</ele>
        <time>2014-04-29T10:40:10Z</time>
      </trkpt>
      <trkpt lat="48.74387" lon="1.98031">
        <ele>211.7</ele>
        <time>2014-04-29T10:40:20Z</time>
      </trkpt>
      <trkpt lat="48.74374" lon="1.98018">
        <ele>214.2</ele>
        <time>2014-04-29T10:40:31Z</time>
      </trkpt>
      <trkpt lat="48.74362" lon="1.98005">
        <ele>214.7</ele>
        <time>2014-04-29T10:40:41Z</time>
      </trkpt>
      <trkpt lat="48.7435" lon="1.9799">
        <ele>213.5</ele>
        <time>2014-04-29T10:40:51Z</time>
      </trkpt>
      <trkpt lat="48.74339" lon="1.97977">
        <ele>211.9</ele>
        <time>2014-04-29T10:41:02Z</time>
      </trkpt>
      <trkpt lat="48.74327" lon="1.97967">
        <ele>214.5</ele>
        <time>2014-04-29T10:41:13Z</time>
      </trkpt>
      <trkpt lat="48.74316" lon="1.97948">
        <ele>211.7</ele>
        <time>2014-04-29T10:41:23Z</time>
      </trkpt>
      <trkpt lat="48.74303" lon="1.97932">
        <ele>207.3</ele>
        <time>2014-04-29T10:41:35Z</time>
      </trkpt>
      <trkpt lat="48.7429" lon="1.9792">
        <ele>209.9</ele>
        <time>2014-04-29T10:41:46Z</time>
      </trkpt>
      <trkpt lat="48.74277" lon="1.97903">
        <ele>209.5</ele>
        <time>2014-04-29T10:41:58Z</time>
      </trkpt>
      <trkpt lat="48.74264" lon="1.9789">
        <ele>208.4</ele>
        <time>2014-04-29T10:42:09Z</time>
      </trkpt>
      <trkpt lat="48.74251" lon="1.97877">
        <ele>209.7</ele>
        <time>2014-04-29T10:42:20Z</time>
      </trkpt>
      <trkpt lat="48.74241" lon="1.97864">
        <ele>210</ele>
        <time>2014-04-29T10:42:31Z</time>
      </trkpt>
      <trkpt lat="48.74232" lon="1.97852">
        <ele>210</ele>
        <time>2014-04-29T10:42:41Z</time>
      </trkpt>
      <trkpt lat="48.74221" lon="1.97838">
        <ele>209.1</ele>
        <time>2014-04-29T10:42:52Z</time>
      </trkpt>
      <trkpt lat="48.74212" lon="1.97825">
        <ele>207.9</ele>
        <time>2014-04-29T10:43:04Z</time>
      </trkpt>
      <trkpt lat="48.742" lon="1.9781">
        <ele>209.2</ele>
        <time>2014-04-29T10:43:15Z</time>
      </trkpt>
      <trkpt lat="48.74191" lon="1.97796">
        <ele>208.5</ele>
        <time>2014-04-29T10:43:25Z</time>
      </trkpt>
      <trkpt lat="48.74182" lon="1.9778">
        <ele>209</ele>
        <time>2014-04-29T10:43:35Z</time>
      </trkpt>
      <trkpt lat="48.74173" lon="1.97764">
        <ele>209.4</ele>
        <time>2014-04-29T10:43:46Z</time>
      </trkpt>
      <trkpt lat="48.74164" lon="1.97746">
        <ele>207.6</ele>
        <time>2014-04-29T10:43:57Z</time>
      </trkpt>
      <trkpt lat="48.74156" lon="1.97727">
        <ele>205.7</ele>
        <time>2014-04-29T10:44:08Z</time>
      </trkpt>
      <trkpt lat="48.74145" lon="1.97706">
        <ele>206.1</ele>
        <time>2014-04-29T10:44:20Z</time>
      </trkpt>
      <trkpt lat="48.74136" lon="1.97689">
        <ele>205.6</ele>
        <time>2014-04-29T10:44:30Z</time>
      </trkpt>
      <trkpt lat="48.74126" lon="1.97676">
        <ele>204.1</ele>
        <time>2014-04-29T10:44:40Z</time>
      </trkpt>
      <trkpt lat="48.74114" lon="1.9766">
        <ele>205.2</ele>
        <time>2014-04-29T10:44:51Z</time>
      </trkpt>
      <trkpt lat="48.74105" lon="1.97647">
        <ele>206</ele>
        <time>2014-04-29T10:45:01Z</time>
      </trkpt>
      <trkpt lat="48.74094" lon="1.97634">
        <ele>206.5</ele>
        <time>2014-04-29T10:45:11Z</time>
      </trkpt>
      <trkpt lat="48.74083" lon="1.97619">
        <ele>207</ele>
        <time>2014-04-29T10:45:23Z</time>
      </trkpt>
      <trkpt lat="48.74073" lon="1.97604">
        <ele>207.3</ele>
        <time>2014-04-29T10:45:35Z</time>
      </trkpt>
      <trkpt lat="48.74064" lon="1.97589">
        <ele>207.4</ele>
        <time>2014-04-29T10:45:47Z</time>
      </trkpt>
      <trkpt lat="48.74056" lon="1.97573">
        <ele>210</ele>
        <time>2014-04-29T10:46:00Z</time>
      </trkpt>
      <trkpt lat="48.74047" lon="1.97557">
        <ele>207.5</ele>
        <time>2014-04-29T10:46:12Z</time>
      </trkpt>
      <trkpt lat="48.74039" lon="1.97539">
        <ele>208.8</ele>
        <time>2014-04-29T10:46:23Z</time>
      </trkpt>
      <trkpt lat="48.74028" lon="1.97527">
        <ele>205.2</ele>
        <time>2014-04-29T10:46:34Z</time>
      </trkpt>
      <trkpt lat="48.7402" lon="1.97513">
        <ele>201.1</ele>
        <time>2014-04-29T10:46:44Z</time>
      </trkpt>
      <trkpt lat="48.74013" lon="1.97494">
        <ele>202</ele>
        <time>2014-04-29T10:46:56Z</time>
      </trkpt>
      <trkpt lat="48.74009" lon="1.97477">
        <ele>203.5</ele>
        <time>2014-04-29T10:47:07Z</time>
      </trkpt>
      <trkpt lat="48.74003" lon="1.97472">
        <ele>207.4</ele>
        <time>2014-04-29T10:47:19Z</time>
      </trkpt>
      <trkpt lat="48.73996" lon="1.97459">
        <ele>204.8</ele>
        <time>2014-04-29T10:47:29Z</time>
      </trkpt>
      <trkpt lat="48.73988" lon="1.97445">
        <ele>208.8</ele>
        <time>2014-04-29T10:47:40Z</time>
      </trkpt>
      <trkpt lat="48.73987" lon="1.97427">
        <ele>208.7</ele>
        <time>2014-04-29T10:47:50Z</time>
      </trkpt>
      <trkpt lat="48.73992" lon="1.97409">
        <ele>208.4</ele>
        <time>2014-04-29T10:48:00Z</time>
      </trkpt>
      <trkpt lat="48.73997" lon="1.97388">
        <ele>210.4</ele>
        <time>2014-04-29T10:48:11Z</time>
      </trkpt>
      <trkpt lat="48.74005" lon="1.9737">
        <ele>211</ele>
        <time>2014-04-29T10:48:21Z</time>
      </trkpt>
      <trkpt lat="48.74012" lon="1.97356">
        <ele>211.3</ele>
        <time>2014-04-29T10:48:31Z</time>
      </trkpt>
      <trkpt lat="48.74019" lon="1.97337">
        <ele>210.5</ele>
        <time>2014-04-29T10:48:43Z</time>
      </trkpt>
      <trkpt lat="48.74024" lon="1.97314">
        <ele>210.7</ele>
        <time>2014-04-29T10:48:56Z</time>
      </trkpt>
      <trkpt lat="48.74031" lon="1.97298">
        <ele>210.4</ele>
        <time>2014-04-29T10:49:07Z</time>
      </trkpt>
      <trkpt lat="48.74036" lon="1.97281">
        <ele>212.4</ele>
        <time>2014-04-29T10:49:17Z</time>
      </trkpt>
      <trkpt lat="48.74041" lon="1.97263">
        <ele>213.3</ele>
        <time>2014-04-29T10:49:27Z</time>
      </trkpt>
      <trkpt lat="48.74048" lon="1.9724">
        <ele>213.4</ele>
        <time>2014-04-29T10:49:39Z</time>
      </trkpt>
      <trkpt lat="48.74053" lon="1.97226">
        <ele>213.7</ele>
        <time>2014-04-29T10:49:51Z</time>
      </trkpt>
      <trkpt lat="48.74055" lon="1.97206">
        <ele>213.6</ele>
        <time>2014-04-29T10:50:01Z</time>
      </trkpt>
      <trkpt lat="48.74059" lon="1.97183">
        <ele>214.9</ele>
        <time>2014-04-29T10:50:13Z</time>
      </trkpt>
      <trkpt lat="48.74061" lon="1.97165">
        <ele>213.4</ele>
        <time>2014-04-29T10:50:24Z</time>
      </trkpt>
      <trkpt lat="48.74062" lon="1.97147">
        <ele>216.4</ele>
        <time>2014-04-29T10:50:34Z</time>
      </trkpt>
      <trkpt lat="48.74063" lon="1.97128">
        <ele>215.6</ele>
        <time>2014-04-29T10:50:44Z</time>
      </trkpt>
      <trkpt lat="48.74063" lon="1.97107">
        <ele>215.1</ele>
        <time>2014-04-29T10:50:56Z</time>
      </trkpt>
      <trkpt lat="48.7406" lon="1.97092">
        <ele>214</ele>
        <time>2014-04-29T10:51:06Z</time>
      </trkpt>
      <trkpt lat="48.74056" lon="1.97072">
        <ele>214.4</ele>
        <time>2014-04-29T10:51:17Z</time>
      </trkpt>
      <trkpt lat="48.74056" lon="1.97052">
        <ele>213.5</ele>
        <time>2014-04-29T10:51:27Z</time>
      </trkpt>
      <trkpt lat="48.74052" lon="1.97032">
        <ele>214.5</ele>
        <time>2014-04-29T10:51:38Z</time>
      </trkpt>
      <trkpt lat="48.7405" lon="1.97008">
        <ele>214.2</ele>
        <time>2014-04-29T10:51:50Z</time>
      </trkpt>
      <trkpt lat="48.74044" lon="1.96989">
        <ele>213.9</ele>
        <time>2014-04-29T10:52:01Z</time>
      </trkpt>
      <trkpt lat="48.74042" lon="1.96971">
        <ele>213</ele>
        <time>2014-04-29T10:52:11Z</time>
      </trkpt>
      <trkpt lat="48.7404" lon="1.96963">
        <ele>216.6</ele>
        <time>2014-04-29T10:52:16Z</time>
      </trkpt>
      <trkpt lat="48.74029" lon="1.96941">
        <ele>215.3</ele>
        <time>2014-04-29T10:52:27Z</time>
      </trkpt>
      <trkpt lat="48.74026" lon="1.96919">
        <ele>218.4</ele>
        <time>2014-04-29T10:52:38Z</time>
      </trkpt>
      <trkpt lat="48.74028" lon="1.96896">
        <ele>219</ele>
        <time>2014-04-29T10:52:49Z</time>
      </trkpt>
      <trkpt lat="48.74029" lon="1.96888">
        <ele>220</ele>
        <time>2014-04-29T10:52:59Z</time>
      </trkpt>
      <trkpt lat="48.74026" lon="1.96871">
        <ele>218.7</ele>
        <time>2014-04-29T10:53:10Z</time>
      </trkpt>
      <trkpt lat="48.74017" lon="1.96854">
        <ele>216.4</ele>
        <time>2014-04-29T10:53:21Z</time>
      </trkpt>
      <trkpt lat="48.74009" lon="1.96838">
        <ele>215.4</ele>
        <time>2014-04-29T10:53:32Z</time>
      </trkpt>
      <trkpt lat="48.73998" lon="1.96825">
        <ele>213.8</ele>
        <time>2014-04-29T10:53:43Z</time>
      </trkpt>
      <trkpt lat="48.73989" lon="1.96809">
        <ele>213</ele>
        <time>2014-04-29T10:53:55Z</time>
      </trkpt>
      <trkpt lat="48.7398" lon="1.96795">
        <ele>209.7</ele>
        <time>2014-04-29T10:54:06Z</time>
      </trkpt>
      <trkpt lat="48.73972" lon="1.9678">
        <ele>209.2</ele>
        <time>2014-04-29T10:54:16Z</time>
      </trkpt>
      <trkpt lat="48.73961" lon="1.96767">
        <ele>209.7</ele>
        <time>2014-04-29T10:54:27Z</time>
      </trkpt>
      <trkpt lat="48.73953" lon="1.9675">
        <ele>212.3</ele>
        <time>2014-04-29T10:54:38Z</time>
      </trkpt>
      <trkpt lat="48.73944" lon="1.96735">
        <ele>213.1</ele>
        <time>2014-04-29T10:54:48Z</time>
      </trkpt>
      <trkpt lat="48.73933" lon="1.9672">
        <ele>211.3</ele>
        <time>2014-04-29T10:55:00Z</time>
      </trkpt>
      <trkpt lat="48.73924" lon="1.96708">
        <ele>210.2</ele>
        <time>2014-04-29T10:55:11Z</time>
      </trkpt>
      <trkpt lat="48.73915" lon="1.96691">
        <ele>211.3</ele>
        <time>2014-04-29T10:55:23Z</time>
      </trkpt>
      <trkpt lat="48.73906" lon="1.96675">
        <ele>212.6</ele>
        <time>2014-04-29T10:55:34Z</time>
      </trkpt>
      <trkpt lat="48.73896" lon="1.9666">
        <ele>212.7</ele>
        <time>2014-04-29T10:55:45Z</time>
      </trkpt>
      <trkpt lat="48.73885" lon="1.96643">
        <ele>212.5</ele>
        <time>2014-04-29T10:55:57Z</time>
      </trkpt>
      <trkpt lat="48.73877" lon="1.96625">
        <ele>213.9</ele>
        <time>2014-04-29T10:56:09Z</time>
      </trkpt>
      <trkpt lat="48.73865" lon="1.96612">
        <ele>214.7</ele>
        <time>2014-04-29T10:56:19Z</time>
      </trkpt>
      <trkpt lat="48.73854" lon="1.96596">
        <ele>215.1</ele>
        <time>2014-04-29T10:56:31Z</time>
      </trkpt>
      <trkpt lat="48.73846" lon="1.96581">
        <ele>216.2</ele>
        <time>2014-04-29T10:56:42Z</time>
      </trkpt>
      <trkpt lat="48.73836" lon="1.96565">
        <ele>217.1</ele>
        <time>2014-04-29T10:56:53Z</time>
      </trkpt>
      <trkpt lat="48.73827" lon="1.96548">
        <ele>227</ele>
        <time>2014-04-29T10:57:04Z</time>
      </trkpt>
      <trkpt lat="48.73816" lon="1.96537">
        <ele>226.4</ele>
        <time>2014-04-29T10:57:15Z</time>
      </trkpt>
      <trkpt lat="48.73802" lon="1.96523">
        <ele>222.6</ele>
        <time>2014-04-29T10:57:26Z</time>
      </trkpt>
      <trkpt lat="48.73791" lon="1.96512">
        <ele>218.7</ele>
        <time>2014-04-29T10:57:36Z</time>
      </trkpt>
      <trkpt lat="48.73782" lon="1.96499">
        <ele>218.9</ele>
        <time>2014-04-29T10:57:46Z</time>
      </trkpt>
      <trkpt lat="48.73767" lon="1.96489">
        <ele>218.3</ele>
        <time>2014-04-29T10:57:58Z</time>
      </trkpt>
      <trkpt lat="48.73752" lon="1.96483">
        <ele>217.2</ele>
        <time>2014-04-29T10:58:08Z</time>
      </trkpt>
      <trkpt lat="48.73736" lon="1.96478">
        <ele>215.1</ele>
        <time>2014-04-29T10:58:19Z</time>
      </trkpt>
      <trkpt lat="48.73723" lon="1.96473">
        <ele>214.2</ele>
        <time>2014-04-29T10:58:31Z</time>
      </trkpt>
      <trkpt lat="48.7371" lon="1.96466">
        <ele>213.9</ele>
        <time>2014-04-29T10:58:41Z</time>
      </trkpt>
      <trkpt lat="48.73697" lon="1.96463">
        <ele>213.2</ele>
        <time>2014-04-29T10:58:52Z</time>
      </trkpt>
      <trkpt lat="48.73685" lon="1.96457">
        <ele>214.6</ele>
        <time>2014-04-29T10:59:02Z</time>
      </trkpt>
      <trkpt lat="48.73672" lon="1.96454">
        <ele>214.9</ele>
        <time>2014-04-29T10:59:12Z</time>
      </trkpt>
      <trkpt lat="48.73661" lon="1.96452">
        <ele>214.2</ele>
        <time>2014-04-29T10:59:22Z</time>
      </trkpt>
      <trkpt lat="48.73649" lon="1.96447">
        <ele>213.8</ele>
        <time>2014-04-29T10:59:34Z</time>
      </trkpt>
      <trkpt lat="48.73637" lon="1.96448">
        <ele>213.8</ele>
        <time>2014-04-29T10:59:45Z</time>
      </trkpt>
      <trkpt lat="48.73626" lon="1.9645">
        <ele>210.4</ele>
        <time>2014-04-29T10:59:55Z</time>
      </trkpt>
      <trkpt lat="48.73615" lon="1.96451">
        <ele>207.7</ele>
        <time>2014-04-29T11:00:06Z</time>
      </trkpt>
      <trkpt lat="48.73598" lon="1.96453">
        <ele>206.2</ele>
        <time>2014-04-29T11:00:18Z</time>
      </trkpt>
      <trkpt lat="48.73584" lon="1.96451">
        <ele>206.1</ele>
        <time>2014-04-29T11:00:30Z</time>
      </trkpt>
      <trkpt lat="48.73569" lon="1.96452">
        <ele>210.1</ele>
        <time>2014-04-29T11:00:42Z</time>
      </trkpt>
      <trkpt lat="48.73556" lon="1.96453">
        <ele>209.4</ele>
        <time>2014-04-29T11:00:52Z</time>
      </trkpt>
      <trkpt lat="48.73543" lon="1.96452">
        <ele>212.1</ele>
        <time>2014-04-29T11:01:03Z</time>
      </trkpt>
      <trkpt lat="48.7353" lon="1.9645">
        <ele>212.6</ele>
        <time>2014-04-29T11:01:14Z</time>
      </trkpt>
      <trkpt lat="48.73513" lon="1.96455">
        <ele>207.4</ele>
        <time>2014-04-29T11:01:24Z</time>
      </trkpt>
      <trkpt lat="48.735" lon="1.96453">
        <ele>207.9</ele>
        <time>2014-04-29T11:01:35Z</time>
      </trkpt>
      <trkpt lat="48.73483" lon="1.96454">
        <ele>207.4</ele>
        <time>2014-04-29T11:01:46Z</time>
      </trkpt>
      <trkpt lat="48.73469" lon="1.96453">
        <ele>208.8</ele>
        <time>2014-04-29T11:01:56Z</time>
      </trkpt>
      <trkpt lat="48.73453" lon="1.96453">
        <ele>209.1</ele>
        <time>2014-04-29T11:02:07Z</time>
      </trkpt>
      <trkpt lat="48.7344" lon="1.96453">
        <ele>209.6</ele>
        <time>2014-04-29T11:02:17Z</time>
      </trkpt>
      <trkpt lat="48.73426" lon="1.96454">
        <ele>210.5</ele>
        <time>2014-04-29T11:02:28Z</time>
      </trkpt>
      <trkpt lat="48.7341" lon="1.96457">
        <ele>213</ele>
        <time>2014-04-29T11:02:39Z</time>
      </trkpt>
      <trkpt lat="48.73396" lon="1.96461">
        <ele>215.4</ele>
        <time>2014-04-29T11:02:49Z</time>
      </trkpt>
      <trkpt lat="48.73384" lon="1.96459">
        <ele>215.7</ele>
        <time>2014-04-29T11:02:59Z</time>
      </trkpt>
      <trkpt lat="48.73369" lon="1.96461">
        <ele>215.3</ele>
        <time>2014-04-29T11:03:10Z</time>
      </trkpt>
      <trkpt lat="48.73354" lon="1.96465">
        <ele>218.4</ele>
        <time>2014-04-29T11:03:21Z</time>
      </trkpt>
      <trkpt lat="48.7334" lon="1.96469">
        <ele>217.5</ele>
        <time>2014-04-29T11:03:31Z</time>
      </trkpt>
      <trkpt lat="48.73325" lon="1.96473">
        <ele>216.9</ele>
        <time>2014-04-29T11:03:42Z</time>
      </trkpt>
      <trkpt lat="48.73308" lon="1.96478">
        <ele>214.3</ele>
        <time>2014-04-29T11:03:53Z</time>
      </trkpt>
      <trkpt lat="48.73294" lon="1.9648">
        <ele>215.2</ele>
        <time>2014-04-29T11:04:04Z</time>
      </trkpt>
      <trkpt lat="48.73281" lon="1.96481">
        <ele>212.8</ele>
        <time>2014-04-29T11:04:15Z</time>
      </trkpt>
      <trkpt lat="48.73268" lon="1.9648">
        <ele>213</ele>
        <time>2014-04-29T11:04:25Z</time>
      </trkpt>
      <trkpt lat="48.73255" lon="1.96482">
        <ele>213.3</ele>
        <time>2014-04-29T11:04:35Z</time>
      </trkpt>
      <trkpt lat="48.73237" lon="1.96488">
        <ele>215.1</ele>
        <time>2014-04-29T11:04:46Z</time>
      </trkpt>
      <trkpt lat="48.73221" lon="1.9649">
        <ele>214.4</ele>
        <time>2014-04-29T11:04:57Z</time>
      </trkpt>
      <trkpt lat="48.73206" lon="1.96492">
        <ele>214.4</ele>
        <time>2014-04-29T11:05:07Z</time>
      </trkpt>
      <trkpt lat="48.73192" lon="1.96493">
        <ele>215.7</ele>
        <time>2014-04-29T11:05:17Z</time>
      </trkpt>
      <trkpt lat="48.73176" lon="1.96496">
        <ele>215.3</ele>
        <time>2014-04-29T11:05:28Z</time>
      </trkpt>
      <trkpt lat="48.73163" lon="1.9649">
        <ele>217</ele>
        <time>2014-04-29T11:05:40Z</time>
      </trkpt>
      <trkpt lat="48.73149" lon="1.9649">
        <ele>219.1</ele>
        <time>2014-04-29T11:05:50Z</time>
      </trkpt>
      <trkpt lat="48.73136" lon="1.96485">
        <ele>218.1</ele>
        <time>2014-04-29T11:06:00Z</time>
      </trkpt>
      <trkpt lat="48.73123" lon="1.96484">
        <ele>218.8</ele>
        <time>2014-04-29T11:06:10Z</time>
      </trkpt>
      <trkpt lat="48.73107" lon="1.96483">
        <ele>219.2</ele>
        <time>2014-04-29T11:06:21Z</time>
      </trkpt>
      <trkpt lat="48.73092" lon="1.96485">
        <ele>219.1</ele>
        <time>2014-04-29T11:06:32Z</time>
      </trkpt>
      <trkpt lat="48.73078" lon="1.96483">
        <ele>219.8</ele>
        <time>2014-04-29T11:06:42Z</time>
      </trkpt>
      <trkpt lat="48.73064" lon="1.96478">
        <ele>218.2</ele>
        <time>2014-04-29T11:06:53Z</time>
      </trkpt>
      <trkpt lat="48.73048" lon="1.96477">
        <ele>219.2</ele>
        <time>2014-04-29T11:07:04Z</time>
      </trkpt>
      <trkpt lat="48.7303" lon="1.96481">
        <ele>215</ele>
        <time>2014-04-29T11:07:14Z</time>
      </trkpt>
      <trkpt lat="48.73015" lon="1.96476">
        <ele>213.4</ele>
        <time>2014-04-29T11:07:25Z</time>
      </trkpt>
      <trkpt lat="48.73002" lon="1.96472">
        <ele>213.3</ele>
        <time>2014-04-29T11:07:35Z</time>
      </trkpt>
      <trkpt lat="48.7299" lon="1.96463">
        <ele>214.2</ele>
        <time>2014-04-29T11:07:46Z</time>
      </trkpt>
      <trkpt lat="48.72974" lon="1.96463">
        <ele>214.7</ele>
        <time>2014-04-29T11:07:56Z</time>
      </trkpt>
      <trkpt lat="48.72957" lon="1.9646">
        <ele>213.6</ele>
        <time>2014-04-29T11:08:08Z</time>
      </trkpt>
      <trkpt lat="48.72942" lon="1.96462">
        <ele>213.5</ele>
        <time>2014-04-29T11:08:18Z</time>
      </trkpt>
      <trkpt lat="48.72926" lon="1.96459">
        <ele>213.7</ele>
        <time>2014-04-29T11:08:29Z</time>
      </trkpt>
      <trkpt lat="48.7291" lon="1.96456">
        <ele>212.7</ele>
        <time>2014-04-29T11:08:40Z</time>
      </trkpt>
      <trkpt lat="48.72893" lon="1.96459">
        <ele>211.8</ele>
        <time>2014-04-29T11:08:51Z</time>
      </trkpt>
      <trkpt lat="48.72878" lon="1.9646">
        <ele>210.8</ele>
        <time>2014-04-29T11:09:02Z</time>
      </trkpt>
      <trkpt lat="48.72862" lon="1.96462">
        <ele>211.1</ele>
        <time>2014-04-29T11:09:14Z</time>
      </trkpt>
      <trkpt lat="48.72843" lon="1.96466">
        <ele>209</ele>
        <time>2014-04-29T11:09:25Z</time>
      </trkpt>
      <trkpt lat="48.72826" lon="1.96473">
        <ele>210.3</ele>
        <time>2014-04-29T11:09:35Z</time>
      </trkpt>
      <trkpt lat="48.72822" lon="1.96472">
        <ele>209.1</ele>
        <time>2014-04-29T11:09:38Z</time>
      </trkpt>
      <trkpt lat="48.72807" lon="1.9647">
        <ele>207.1</ele>
        <time>2014-04-29T11:09:49Z</time>
      </trkpt>
      <trkpt lat="48.72796" lon="1.96464">
        <ele>209.6</ele>
        <time>2014-04-29T11:09:59Z</time>
      </trkpt>
      <trkpt lat="48.72781" lon="1.96465">
        <ele>209</ele>
        <time>2014-04-29T11:10:10Z</time>
      </trkpt>
      <trkpt lat="48.72764" lon="1.96468">
        <ele>205.5</ele>
        <time>2014-04-29T11:10:21Z</time>
      </trkpt>
      <trkpt lat="48.72746" lon="1.9647">
        <ele>207.1</ele>
        <time>2014-04-29T11:10:32Z</time>
      </trkpt>
      <trkpt lat="48.72729" lon="1.96469">
        <ele>208.6</ele>
        <time>2014-04-29T11:10:43Z</time>
      </trkpt>
      <trkpt lat="48.72713" lon="1.96464">
        <ele>210.3</ele>
        <time>2014-04-29T11:10:54Z</time>
      </trkpt>
      <trkpt lat="48.72696" lon="1.9646">
        <ele>210.6</ele>
        <time>2014-04-29T11:11:05Z</time>
      </trkpt>
      <trkpt lat="48.72684" lon="1.96449">
        <ele>211.8</ele>
        <time>2014-04-29T11:11:16Z</time>
      </trkpt>
      <trkpt lat="48.72669" lon="1.96441">
        <ele>212.1</ele>
        <time>2014-04-29T11:11:28Z</time>
      </trkpt>
      <trkpt lat="48.7266" lon="1.96434">
        <ele>203.8</ele>
        <time>2014-04-29T11:11:38Z</time>
      </trkpt>
      <trkpt lat="48.72643" lon="1.96427">
        <ele>200.7</ele>
        <time>2014-04-29T11:11:49Z</time>
      </trkpt>
      <trkpt lat="48.72629" lon="1.96419">
        <ele>201.7</ele>
        <time>2014-04-29T11:11:59Z</time>
      </trkpt>
      <trkpt lat="48.72616" lon="1.96409">
        <ele>201</ele>
        <time>2014-04-29T11:12:10Z</time>
      </trkpt>
      <trkpt lat="48.72604" lon="1.96397">
        <ele>202.2</ele>
        <time>2014-04-29T11:12:21Z</time>
      </trkpt>
      <trkpt lat="48.72589" lon="1.96387">
        <ele>202.9</ele>
        <time>2014-04-29T11:12:31Z</time>
      </trkpt>
      <trkpt lat="48.72572" lon="1.96378">
        <ele>199.9</ele>
        <time>2014-04-29T11:12:43Z</time>
      </trkpt>
      <trkpt lat="48.72561" lon="1.96366">
        <ele>201</ele>
        <time>2014-04-29T11:12:54Z</time>
      </trkpt>
      <trkpt lat="48.72548" lon="1.96356">
        <ele>205.4</ele>
        <time>2014-04-29T11:13:05Z</time>
      </trkpt>
      <trkpt lat="48.72545" lon="1.96353">
        <ele>203.8</ele>
        <time>2014-04-29T11:13:07Z</time>
      </trkpt>
      <trkpt lat="48.72529" lon="1.96349">
        <ele>210.8</ele>
        <time>2014-04-29T11:13:19Z</time>
      </trkpt>
      <trkpt lat="48.72515" lon="1.96345">
        <ele>211.1</ele>
        <time>2014-04-29T11:13:30Z</time>
      </trkpt>
      <trkpt lat="48.72512" lon="1.96343">
        <ele>210.9</ele>
        <time>2014-04-29T11:13:49Z</time>
      </trkpt>
      <trkpt lat="48.72509" lon="1.96335">
        <ele>211.1</ele>
        <time>2014-04-29T11:14:07Z</time>
      </trkpt>
      <trkpt lat="48.72503" lon="1.96309">
        <ele>207.4</ele>
        <time>2014-04-29T11:14:17Z</time>
      </trkpt>
      <trkpt lat="48.725" lon="1.96287">
        <ele>208.6</ele>
        <time>2014-04-29T11:14:28Z</time>
      </trkpt>
      <trkpt lat="48.72502" lon="1.9627">
        <ele>209.6</ele>
        <time>2014-04-29T11:14:52Z</time>
      </trkpt>
      <trkpt lat="48.72499" lon="1.96235">
        <ele>205.9</ele>
        <time>2014-04-29T11:15:02Z</time>
      </trkpt>
      <trkpt lat="48.72491" lon="1.96219">
        <ele>203.1</ele>
        <time>2014-04-29T11:15:13Z</time>
      </trkpt>
      <trkpt lat="48.72488" lon="1.96217">
        <ele>203.1</ele>
        <time>2014-04-29T11:15:15Z</time>
      </trkpt>
      <trkpt lat="48.72474" lon="1.96203">
        <ele>205.7</ele>
        <time>2014-04-29T11:15:26Z</time>
      </trkpt>
      <trkpt lat="48.7247" lon="1.96201">
        <ele>205.1</ele>
        <time>2014-04-29T11:15:29Z</time>
      </trkpt>
      <trkpt lat="48.72463" lon="1.96184">
        <ele>207.3</ele>
        <time>2014-04-29T11:15:40Z</time>
      </trkpt>
      <trkpt lat="48.72464" lon="1.96159">
        <ele>205.5</ele>
        <time>2014-04-29T11:15:52Z</time>
      </trkpt>
      <trkpt lat="48.72464" lon="1.96137">
        <ele>204.8</ele>
        <time>2014-04-29T11:16:02Z</time>
      </trkpt>
      <trkpt lat="48.7246" lon="1.96121">
        <ele>202.6</ele>
        <time>2014-04-29T11:16:12Z</time>
      </trkpt>
      <trkpt lat="48.72458" lon="1.96098">
        <ele>200.9</ele>
        <time>2014-04-29T11:16:23Z</time>
      </trkpt>
      <trkpt lat="48.72456" lon="1.96079">
        <ele>197.1</ele>
        <time>2014-04-29T11:16:31Z</time>
      </trkpt>
      <trkpt lat="48.72455" lon="1.96064">
        <ele>190.7</ele>
        <time>2014-04-29T11:16:41Z</time>
      </trkpt>
      <trkpt lat="48.72457" lon="1.96043">
        <ele>192.4</ele>
        <time>2014-04-29T11:16:51Z</time>
      </trkpt>
      <trkpt lat="48.72457" lon="1.96019">
        <ele>191.4</ele>
        <time>2014-04-29T11:17:02Z</time>
      </trkpt>
      <trkpt lat="48.72457" lon="1.96008">
        <ele>191</ele>
        <time>2014-04-29T11:17:08Z</time>
      </trkpt>
      <trkpt lat="48.72456" lon="1.95989">
        <ele>187.6</ele>
        <time>2014-04-29T11:17:18Z</time>
      </trkpt>
      <trkpt lat="48.72452" lon="1.95969">
        <ele>188</ele>
        <time>2014-04-29T11:17:30Z</time>
      </trkpt>
      <trkpt lat="48.72447" lon="1.95949">
        <ele>189.6</ele>
        <time>2014-04-29T11:17:40Z</time>
      </trkpt>
      <trkpt lat="48.72444" lon="1.95947">
        <ele>190.5</ele>
        <time>2014-04-29T11:17:44Z</time>
      </trkpt>
      <trkpt lat="48.72441" lon="1.95941">
        <ele>188.8</ele>
        <time>2014-04-29T11:18:05Z</time>
      </trkpt>
      <trkpt lat="48.72438" lon="1.95932">
        <ele>186.3</ele>
        <time>2014-04-29T11:18:16Z</time>
      </trkpt>
      <trkpt lat="48.72448" lon="1.95915">
        <ele>183.6</ele>
        <time>2014-04-29T11:18:28Z</time>
      </trkpt>
      <trkpt lat="48.72445" lon="1.95918">
        <ele>179.1</ele>
        <time>2014-04-29T11:18:57Z</time>
      </trkpt>
      <trkpt lat="48.72444" lon="1.95922">
        <ele>182.4</ele>
        <time>2014-04-29T11:20:18Z</time>
      </trkpt>
      <trkpt lat="48.72441" lon="1.95925">
        <ele>182.2</ele>
        <time>2014-04-29T11:20:46Z</time>
      </trkpt>
      <trkpt lat="48.72439" lon="1.95928">
        <ele>181.9</ele>
        <time>2014-04-29T11:20:51Z</time>
      </trkpt>
      <trkpt lat="48.72431" lon="1.95933">
        <ele>184.8</ele>
        <time>2014-04-29T11:21:07Z</time>
      </trkpt>
      <trkpt lat="48.72428" lon="1.95925">
        <ele>186.3</ele>
        <time>2014-04-29T11:34:39Z</time>
      </trkpt>
      <trkpt lat="48.72431" lon="1.95925">
        <ele>187.5</ele>
        <time>2014-04-29T11:44:05Z</time>
      </trkpt>
      <trkpt lat="48.72435" lon="1.95924">
        <ele>184.3</ele>
        <time>2014-04-29T11:44:31Z</time>
      </trkpt>
      <trkpt lat="48.72444" lon="1.9592">
        <ele>174.3</ele>
        <time>2014-04-29T11:45:12Z</time>
      </trkpt>
      <trkpt lat="48.72444" lon="1.95915">
        <ele>178.1</ele>
        <time>2014-04-29T11:46:28Z</time>
      </trkpt>
      <trkpt lat="48.72439" lon="1.959">
        <ele>179.6</ele>
        <time>2014-04-29T11:46:40Z</time>
      </trkpt>
      <trkpt lat="48.72436" lon="1.95887">
        <ele>180.9</ele>
        <time>2014-04-29T11:46:51Z</time>
      </trkpt>
      <trkpt lat="48.72429" lon="1.95873">
        <ele>182.9</ele>
        <time>2014-04-29T11:47:04Z</time>
      </trkpt>
      <trkpt lat="48.72424" lon="1.95871">
        <ele>181.4</ele>
        <time>2014-04-29T11:47:41Z</time>
      </trkpt>
      <trkpt lat="48.72426" lon="1.95863">
        <ele>181.1</ele>
        <time>2014-04-29T11:48:03Z</time>
      </trkpt>
      <trkpt lat="48.72416" lon="1.95852">
        <ele>182.9</ele>
        <time>2014-04-29T11:48:15Z</time>
      </trkpt>
      <trkpt lat="48.72408" lon="1.95843">
        <ele>182.3</ele>
        <time>2014-04-29T11:48:28Z</time>
      </trkpt>
      <trkpt lat="48.72407" lon="1.95828">
        <ele>180.4</ele>
        <time>2014-04-29T11:48:38Z</time>
      </trkpt>
      <trkpt lat="48.72402" lon="1.95816">
        <ele>180.1</ele>
        <time>2014-04-29T11:48:49Z</time>
      </trkpt>
      <trkpt lat="48.72396" lon="1.95811">
        <ele>180</ele>
        <time>2014-04-29T11:49:00Z</time>
      </trkpt>
      <trkpt lat="48.72397" lon="1.95807">
        <ele>178.7</ele>
        <time>2014-04-29T11:49:16Z</time>
      </trkpt>
      <trkpt lat="48.7239" lon="1.95798">
        <ele>177.7</ele>
        <time>2014-04-29T11:49:28Z</time>
      </trkpt>
      <trkpt lat="48.72387" lon="1.95785">
        <ele>174</ele>
        <time>2014-04-29T11:49:38Z</time>
      </trkpt>
      <trkpt lat="48.72386" lon="1.95781">
        <ele>171.8</ele>
        <time>2014-04-29T11:49:51Z</time>
      </trkpt>
      <trkpt lat="48.72385" lon="1.95778">
        <ele>171.8</ele>
        <time>2014-04-29T11:50:04Z</time>
      </trkpt>
      <trkpt lat="48.72381" lon="1.95763">
        <ele>170</ele>
        <time>2014-04-29T11:50:15Z</time>
      </trkpt>
      <trkpt lat="48.72371" lon="1.95752">
        <ele>168.4</ele>
        <time>2014-04-29T11:50:27Z</time>
      </trkpt>
      <trkpt lat="48.72365" lon="1.95748">
        <ele>167.6</ele>
        <time>2014-04-29T11:50:43Z</time>
      </trkpt>
      <trkpt lat="48.72352" lon="1.95733">
        <ele>161.8</ele>
        <time>2014-04-29T11:50:55Z</time>
      </trkpt>
      <trkpt lat="48.72341" lon="1.95732">
        <ele>160.9</ele>
        <time>2014-04-29T11:51:09Z</time>
      </trkpt>
      <trkpt lat="48.72332" lon="1.95731">
        <ele>157.5</ele>
        <time>2014-04-29T11:51:21Z</time>
      </trkpt>
      <trkpt lat="48.72323" lon="1.95735">
        <ele>157.7</ele>
        <time>2014-04-29T11:51:31Z</time>
      </trkpt>
      <trkpt lat="48.72312" lon="1.95739">
        <ele>158.8</ele>
        <time>2014-04-29T11:51:42Z</time>
      </trkpt>
      <trkpt lat="48.72299" lon="1.95744">
        <ele>157.6</ele>
        <time>2014-04-29T11:51:52Z</time>
      </trkpt>
      <trkpt lat="48.72286" lon="1.95744">
        <ele>156.9</ele>
        <time>2014-04-29T11:52:03Z</time>
      </trkpt>
      <trkpt lat="48.72281" lon="1.95746">
        <ele>155.4</ele>
        <time>2014-04-29T11:52:16Z</time>
      </trkpt>
      <trkpt lat="48.72263" lon="1.95746">
        <ele>154.7</ele>
        <time>2014-04-29T11:52:28Z</time>
      </trkpt>
      <trkpt lat="48.72246" lon="1.95748">
        <ele>155.3</ele>
        <time>2014-04-29T11:52:39Z</time>
      </trkpt>
      <trkpt lat="48.72231" lon="1.95749">
        <ele>156.4</ele>
        <time>2014-04-29T11:52:50Z</time>
      </trkpt>
      <trkpt lat="48.72216" lon="1.95751">
        <ele>157</ele>
        <time>2014-04-29T11:53:03Z</time>
      </trkpt>
      <trkpt lat="48.72212" lon="1.95757">
        <ele>156.5</ele>
        <time>2014-04-29T11:53:07Z</time>
      </trkpt>
      <trkpt lat="48.722" lon="1.95762">
        <ele>152.9</ele>
        <time>2014-04-29T11:53:18Z</time>
      </trkpt>
      <trkpt lat="48.72185" lon="1.95768">
        <ele>153</ele>
        <time>2014-04-29T11:53:30Z</time>
      </trkpt>
      <trkpt lat="48.72169" lon="1.95767">
        <ele>151.4</ele>
        <time>2014-04-29T11:53:42Z</time>
      </trkpt>
      <trkpt lat="48.72155" lon="1.95772">
        <ele>151.6</ele>
        <time>2014-04-29T11:53:52Z</time>
      </trkpt>
      <trkpt lat="48.72145" lon="1.95777">
        <ele>154.6</ele>
        <time>2014-04-29T11:54:02Z</time>
      </trkpt>
      <trkpt lat="48.72142" lon="1.95776">
        <ele>155.9</ele>
        <time>2014-04-29T11:54:12Z</time>
      </trkpt>
      <trkpt lat="48.72129" lon="1.95776">
        <ele>154.4</ele>
        <time>2014-04-29T11:54:24Z</time>
      </trkpt>
      <trkpt lat="48.72116" lon="1.95776">
        <ele>153.8</ele>
        <time>2014-04-29T11:54:35Z</time>
      </trkpt>
      <trkpt lat="48.72101" lon="1.95775">
        <ele>155.6</ele>
        <time>2014-04-29T11:54:45Z</time>
      </trkpt>
      <trkpt lat="48.72086" lon="1.95784">
        <ele>156.4</ele>
        <time>2014-04-29T11:54:56Z</time>
      </trkpt>
      <trkpt lat="48.72079" lon="1.95789">
        <ele>157.3</ele>
        <time>2014-04-29T11:55:07Z</time>
      </trkpt>
      <trkpt lat="48.72061" lon="1.95808">
        <ele>157.3</ele>
        <time>2014-04-29T11:55:18Z</time>
      </trkpt>
      <trkpt lat="48.72047" lon="1.95822">
        <ele>155.2</ele>
        <time>2014-04-29T11:55:29Z</time>
      </trkpt>
      <trkpt lat="48.72034" lon="1.95834">
        <ele>156.3</ele>
        <time>2014-04-29T11:55:41Z</time>
      </trkpt>
      <trkpt lat="48.7202" lon="1.9585">
        <ele>159.6</ele>
        <time>2014-04-29T11:55:52Z</time>
      </trkpt>
      <trkpt lat="48.72013" lon="1.95862">
        <ele>159.9</ele>
        <time>2014-04-29T11:56:02Z</time>
      </trkpt>
      <trkpt lat="48.72006" lon="1.95874">
        <ele>156.3</ele>
        <time>2014-04-29T11:56:12Z</time>
      </trkpt>
      <trkpt lat="48.71999" lon="1.95884">
        <ele>153.3</ele>
        <time>2014-04-29T11:56:24Z</time>
      </trkpt>
      <trkpt lat="48.72002" lon="1.95888">
        <ele>151.5</ele>
        <time>2014-04-29T11:56:43Z</time>
      </trkpt>
      <trkpt lat="48.72001" lon="1.95893">
        <ele>155.3</ele>
        <time>2014-04-29T11:56:53Z</time>
      </trkpt>
      <trkpt lat="48.72" lon="1.95897">
        <ele>157.1</ele>
        <time>2014-04-29T11:56:56Z</time>
      </trkpt>
      <trkpt lat="48.71992" lon="1.95914">
        <ele>163.2</ele>
        <time>2014-04-29T11:57:07Z</time>
      </trkpt>
      <trkpt lat="48.71988" lon="1.95935">
        <ele>165.7</ele>
        <time>2014-04-29T11:57:19Z</time>
      </trkpt>
      <trkpt lat="48.71984" lon="1.95956">
        <ele>164.4</ele>
        <time>2014-04-29T11:57:30Z</time>
      </trkpt>
      <trkpt lat="48.71984" lon="1.95975">
        <ele>162.8</ele>
        <time>2014-04-29T11:57:42Z</time>
      </trkpt>
      <trkpt lat="48.71976" lon="1.95996">
        <ele>162.3</ele>
        <time>2014-04-29T11:57:53Z</time>
      </trkpt>
      <trkpt lat="48.71975" lon="1.96002">
        <ele>162.2</ele>
        <time>2014-04-29T11:57:57Z</time>
      </trkpt>
      <trkpt lat="48.71972" lon="1.96021">
        <ele>163.1</ele>
        <time>2014-04-29T11:58:07Z</time>
      </trkpt>
      <trkpt lat="48.7197" lon="1.9604">
        <ele>159.8</ele>
        <time>2014-04-29T11:58:17Z</time>
      </trkpt>
      <trkpt lat="48.71966" lon="1.96053">
        <ele>161.8</ele>
        <time>2014-04-29T11:58:27Z</time>
      </trkpt>
      <trkpt lat="48.71961" lon="1.96069">
        <ele>165</ele>
        <time>2014-04-29T11:58:38Z</time>
      </trkpt>
      <trkpt lat="48.71957" lon="1.9609">
        <ele>167.2</ele>
        <time>2014-04-29T11:58:49Z</time>
      </trkpt>
      <trkpt lat="48.71953" lon="1.96108">
        <ele>166.3</ele>
        <time>2014-04-29T11:58:59Z</time>
      </trkpt>
      <trkpt lat="48.71948" lon="1.96131">
        <ele>169.8</ele>
        <time>2014-04-29T11:59:10Z</time>
      </trkpt>
      <trkpt lat="48.71946" lon="1.96147">
        <ele>167.1</ele>
        <time>2014-04-29T11:59:26Z</time>
      </trkpt>
      <trkpt lat="48.71935" lon="1.96162">
        <ele>166.6</ele>
        <time>2014-04-29T11:59:37Z</time>
      </trkpt>
      <trkpt lat="48.71933" lon="1.96168">
        <ele>166.9</ele>
        <time>2014-04-29T11:59:39Z</time>
      </trkpt>
      <trkpt lat="48.71929" lon="1.96196">
        <ele>168.1</ele>
        <time>2014-04-29T11:59:50Z</time>
      </trkpt>
      <trkpt lat="48.71929" lon="1.962">
        <ele>168.8</ele>
        <time>2014-04-29T11:59:53Z</time>
      </trkpt>
      <trkpt lat="48.71923" lon="1.96221">
        <ele>166.5</ele>
        <time>2014-04-29T12:00:04Z</time>
      </trkpt>
      <trkpt lat="48.71918" lon="1.96237">
        <ele>166.2</ele>
        <time>2014-04-29T12:00:14Z</time>
      </trkpt>
      <trkpt lat="48.71914" lon="1.9626">
        <ele>165.3</ele>
        <time>2014-04-29T12:00:24Z</time>
      </trkpt>
      <trkpt lat="48.7191" lon="1.96275">
        <ele>165.2</ele>
        <time>2014-04-29T12:00:35Z</time>
      </trkpt>
      <trkpt lat="48.719" lon="1.96289">
        <ele>165.9</ele>
        <time>2014-04-29T12:00:47Z</time>
      </trkpt>
      <trkpt lat="48.71894" lon="1.96304">
        <ele>165.6</ele>
        <time>2014-04-29T12:00:57Z</time>
      </trkpt>
      <trkpt lat="48.7189" lon="1.96323">
        <ele>161.8</ele>
        <time>2014-04-29T12:01:08Z</time>
      </trkpt>
      <trkpt lat="48.71887" lon="1.9634">
        <ele>163.6</ele>
        <time>2014-04-29T12:01:21Z</time>
      </trkpt>
      <trkpt lat="48.71881" lon="1.96355">
        <ele>166.6</ele>
        <time>2014-04-29T12:01:31Z</time>
      </trkpt>
      <trkpt lat="48.71877" lon="1.96376">
        <ele>166.3</ele>
        <time>2014-04-29T12:01:44Z</time>
      </trkpt>
      <trkpt lat="48.71872" lon="1.964">
        <ele>163.9</ele>
        <time>2014-04-29T12:01:56Z</time>
      </trkpt>
      <trkpt lat="48.71869" lon="1.96421">
        <ele>166.4</ele>
        <time>2014-04-29T12:02:08Z</time>
      </trkpt>
      <trkpt lat="48.71866" lon="1.96441">
        <ele>163.9</ele>
        <time>2014-04-29T12:02:19Z</time>
      </trkpt>
      <trkpt lat="48.71861" lon="1.96463">
        <ele>166</ele>
        <time>2014-04-29T12:02:30Z</time>
      </trkpt>
      <trkpt lat="48.71854" lon="1.96482">
        <ele>168.1</ele>
        <time>2014-04-29T12:02:41Z</time>
      </trkpt>
      <trkpt lat="48.71852" lon="1.96486">
        <ele>169.4</ele>
        <time>2014-04-29T12:02:47Z</time>
      </trkpt>
      <trkpt lat="48.71851" lon="1.96511">
        <ele>162.3</ele>
        <time>2014-04-29T12:02:59Z</time>
      </trkpt>
      <trkpt lat="48.71843" lon="1.96531">
        <ele>160.1</ele>
        <time>2014-04-29T12:03:10Z</time>
      </trkpt>
      <trkpt lat="48.71836" lon="1.96549">
        <ele>161.1</ele>
        <time>2014-04-29T12:03:21Z</time>
      </trkpt>
      <trkpt lat="48.71828" lon="1.96567">
        <ele>159.4</ele>
        <time>2014-04-29T12:03:32Z</time>
      </trkpt>
      <trkpt lat="48.71821" lon="1.96585">
        <ele>161.3</ele>
        <time>2014-04-29T12:03:43Z</time>
      </trkpt>
      <trkpt lat="48.71813" lon="1.96601">
        <ele>162.5</ele>
        <time>2014-04-29T12:03:53Z</time>
      </trkpt>
      <trkpt lat="48.71809" lon="1.96616">
        <ele>162.1</ele>
        <time>2014-04-29T12:04:06Z</time>
      </trkpt>
      <trkpt lat="48.71804" lon="1.96627">
        <ele>159.1</ele>
        <time>2014-04-29T12:04:16Z</time>
      </trkpt>
      <trkpt lat="48.71806" lon="1.96644">
        <ele>153.2</ele>
        <time>2014-04-29T12:04:23Z</time>
      </trkpt>
      <trkpt lat="48.718" lon="1.96667">
        <ele>157.3</ele>
        <time>2014-04-29T12:04:35Z</time>
      </trkpt>
      <trkpt lat="48.71799" lon="1.9669">
        <ele>158.4</ele>
        <time>2014-04-29T12:04:47Z</time>
      </trkpt>
      <trkpt lat="48.71796" lon="1.9671">
        <ele>156.8</ele>
        <time>2014-04-29T12:04:57Z</time>
      </trkpt>
      <trkpt lat="48.71795" lon="1.96733">
        <ele>159.6</ele>
        <time>2014-04-29T12:05:07Z</time>
      </trkpt>
      <trkpt lat="48.71792" lon="1.96741">
        <ele>161.2</ele>
        <time>2014-04-29T12:05:14Z</time>
      </trkpt>
      <trkpt lat="48.71787" lon="1.96755">
        <ele>161.4</ele>
        <time>2014-04-29T12:05:24Z</time>
      </trkpt>
      <trkpt lat="48.71782" lon="1.96771">
        <ele>161.1</ele>
        <time>2014-04-29T12:05:34Z</time>
      </trkpt>
      <trkpt lat="48.71785" lon="1.96785">
        <ele>160.2</ele>
        <time>2014-04-29T12:05:46Z</time>
      </trkpt>
      <trkpt lat="48.71783" lon="1.96809">
        <ele>163.6</ele>
        <time>2014-04-29T12:05:58Z</time>
      </trkpt>
      <trkpt lat="48.71776" lon="1.96833">
        <ele>166</ele>
        <time>2014-04-29T12:06:10Z</time>
      </trkpt>
      <trkpt lat="48.71778" lon="1.96853">
        <ele>166.4</ele>
        <time>2014-04-29T12:06:20Z</time>
      </trkpt>
      <trkpt lat="48.71778" lon="1.96858">
        <ele>166.6</ele>
        <time>2014-04-29T12:06:24Z</time>
      </trkpt>
      <trkpt lat="48.71777" lon="1.96877">
        <ele>164.3</ele>
        <time>2014-04-29T12:06:35Z</time>
      </trkpt>
      <trkpt lat="48.71776" lon="1.96882">
        <ele>165</ele>
        <time>2014-04-29T12:06:38Z</time>
      </trkpt>
      <trkpt lat="48.71776" lon="1.96901">
        <ele>164.4</ele>
        <time>2014-04-29T12:06:49Z</time>
      </trkpt>
      <trkpt lat="48.71776" lon="1.9691">
        <ele>161.5</ele>
        <time>2014-04-29T12:07:23Z</time>
      </trkpt>
      <trkpt lat="48.71772" lon="1.96918">
        <ele>160.3</ele>
        <time>2014-04-29T12:07:26Z</time>
      </trkpt>
      <trkpt lat="48.71754" lon="1.96935">
        <ele>161</ele>
        <time>2014-04-29T12:07:37Z</time>
      </trkpt>
      <trkpt lat="48.71753" lon="1.96955">
        <ele>158</ele>
        <time>2014-04-29T12:07:47Z</time>
      </trkpt>
      <trkpt lat="48.71752" lon="1.9697">
        <ele>158.1</ele>
        <time>2014-04-29T12:07:57Z</time>
      </trkpt>
      <trkpt lat="48.71749" lon="1.96991">
        <ele>157.1</ele>
        <time>2014-04-29T12:08:08Z</time>
      </trkpt>
      <trkpt lat="48.71751" lon="1.97008">
        <ele>157.8</ele>
        <time>2014-04-29T12:09:27Z</time>
      </trkpt>
      <trkpt lat="48.71748" lon="1.97012">
        <ele>160</ele>
        <time>2014-04-29T12:09:43Z</time>
      </trkpt>
      <trkpt lat="48.71736" lon="1.97032">
        <ele>158.5</ele>
        <time>2014-04-29T12:09:55Z</time>
      </trkpt>
      <trkpt lat="48.71739" lon="1.97039">
        <ele>163.7</ele>
        <time>2014-04-29T12:10:06Z</time>
      </trkpt>
      <trkpt lat="48.71736" lon="1.97051">
        <ele>160.7</ele>
        <time>2014-04-29T12:10:17Z</time>
      </trkpt>
      <trkpt lat="48.71736" lon="1.97067">
        <ele>160.9</ele>
        <time>2014-04-29T12:10:27Z</time>
      </trkpt>
      <trkpt lat="48.71738" lon="1.9709">
        <ele>158.9</ele>
        <time>2014-04-29T12:10:39Z</time>
      </trkpt>
      <trkpt lat="48.71734" lon="1.97109">
        <ele>159.9</ele>
        <time>2014-04-29T12:10:50Z</time>
      </trkpt>
      <trkpt lat="48.71728" lon="1.97126">
        <ele>161.1</ele>
        <time>2014-04-29T12:11:01Z</time>
      </trkpt>
      <trkpt lat="48.71724" lon="1.97145">
        <ele>160.1</ele>
        <time>2014-04-29T12:11:12Z</time>
      </trkpt>
      <trkpt lat="48.71719" lon="1.97162">
        <ele>162</ele>
        <time>2014-04-29T12:11:22Z</time>
      </trkpt>
      <trkpt lat="48.71717" lon="1.9718">
        <ele>160.8</ele>
        <time>2014-04-29T12:11:33Z</time>
      </trkpt>
      <trkpt lat="48.7171" lon="1.972">
        <ele>162.9</ele>
        <time>2014-04-29T12:11:43Z</time>
      </trkpt>
      <trkpt lat="48.71706" lon="1.97219">
        <ele>164.7</ele>
        <time>2014-04-29T12:11:56Z</time>
      </trkpt>
      <trkpt lat="48.71701" lon="1.97241">
        <ele>163.3</ele>
        <time>2014-04-29T12:12:06Z</time>
      </trkpt>
      <trkpt lat="48.71694" lon="1.97256">
        <ele>166.3</ele>
        <time>2014-04-29T12:12:17Z</time>
      </trkpt>
      <trkpt lat="48.71693" lon="1.97277">
        <ele>167</ele>
        <time>2014-04-29T12:12:28Z</time>
      </trkpt>
      <trkpt lat="48.71687" lon="1.97296">
        <ele>170.6</ele>
        <time>2014-04-29T12:12:41Z</time>
      </trkpt>
      <trkpt lat="48.71688" lon="1.97316">
        <ele>169.8</ele>
        <time>2014-04-29T12:12:51Z</time>
      </trkpt>
      <trkpt lat="48.71684" lon="1.97331">
        <ele>169.5</ele>
        <time>2014-04-29T12:13:01Z</time>
      </trkpt>
      <trkpt lat="48.71679" lon="1.97351">
        <ele>167.2</ele>
        <time>2014-04-29T12:13:14Z</time>
      </trkpt>
      <trkpt lat="48.71671" lon="1.97368">
        <ele>168.9</ele>
        <time>2014-04-29T12:13:27Z</time>
      </trkpt>
      <trkpt lat="48.71666" lon="1.97389">
        <ele>168.9</ele>
        <time>2014-04-29T12:13:39Z</time>
      </trkpt>
      <trkpt lat="48.71665" lon="1.97405">
        <ele>165.5</ele>
        <time>2014-04-29T12:13:50Z</time>
      </trkpt>
      <trkpt lat="48.7166" lon="1.97422">
        <ele>163.9</ele>
        <time>2014-04-29T12:14:01Z</time>
      </trkpt>
      <trkpt lat="48.71654" lon="1.97432">
        <ele>165</ele>
        <time>2014-04-29T12:14:13Z</time>
      </trkpt>
      <trkpt lat="48.71648" lon="1.97437">
        <ele>167.8</ele>
        <time>2014-04-29T12:14:27Z</time>
      </trkpt>
      <trkpt lat="48.71645" lon="1.97443">
        <ele>168</ele>
        <time>2014-04-29T12:14:40Z</time>
      </trkpt>
      <trkpt lat="48.71631" lon="1.97472">
        <ele>162.4</ele>
        <time>2014-04-29T12:14:50Z</time>
      </trkpt>
      <trkpt lat="48.71626" lon="1.97483">
        <ele>163.8</ele>
        <time>2014-04-29T12:15:07Z</time>
      </trkpt>
      <trkpt lat="48.71612" lon="1.97498">
        <ele>164.7</ele>
        <time>2014-04-29T12:15:17Z</time>
      </trkpt>
      <trkpt lat="48.71595" lon="1.97513">
        <ele>163.3</ele>
        <time>2014-04-29T12:15:29Z</time>
      </trkpt>
      <trkpt lat="48.71589" lon="1.97518">
        <ele>165.3</ele>
        <time>2014-04-29T12:15:34Z</time>
      </trkpt>
      <trkpt lat="48.7158" lon="1.97528">
        <ele>166.1</ele>
        <time>2014-04-29T12:15:46Z</time>
      </trkpt>
      <trkpt lat="48.71577" lon="1.9755">
        <ele>166</ele>
        <time>2014-04-29T12:15:59Z</time>
      </trkpt>
      <trkpt lat="48.71572" lon="1.97561">
        <ele>164.9</ele>
        <time>2014-04-29T12:16:09Z</time>
      </trkpt>
      <trkpt lat="48.71568" lon="1.97576">
        <ele>167.4</ele>
        <time>2014-04-29T12:16:20Z</time>
      </trkpt>
      <trkpt lat="48.71559" lon="1.97581">
        <ele>168.7</ele>
        <time>2014-04-29T12:16:29Z</time>
      </trkpt>
      <trkpt lat="48.71553" lon="1.97595">
        <ele>168.6</ele>
        <time>2014-04-29T12:16:46Z</time>
      </trkpt>
      <trkpt lat="48.71552" lon="1.97602">
        <ele>167.1</ele>
        <time>2014-04-29T12:17:08Z</time>
      </trkpt>
      <trkpt lat="48.71547" lon="1.97616">
        <ele>166.4</ele>
        <time>2014-04-29T12:17:12Z</time>
      </trkpt>
      <trkpt lat="48.71539" lon="1.97629">
        <ele>165.8</ele>
        <time>2014-04-29T12:17:31Z</time>
      </trkpt>
      <trkpt lat="48.71532" lon="1.97642">
        <ele>166.2</ele>
        <time>2014-04-29T12:17:42Z</time>
      </trkpt>
      <trkpt lat="48.71525" lon="1.97657">
        <ele>164.8</ele>
        <time>2014-04-29T12:17:52Z</time>
      </trkpt>
      <trkpt lat="48.71518" lon="1.97676">
        <ele>162.1</ele>
        <time>2014-04-29T12:18:02Z</time>
      </trkpt>
      <trkpt lat="48.71516" lon="1.9769">
        <ele>163.5</ele>
        <time>2014-04-29T12:18:17Z</time>
      </trkpt>
      <trkpt lat="48.71512" lon="1.97711">
        <ele>165.5</ele>
        <time>2014-04-29T12:18:28Z</time>
      </trkpt>
      <trkpt lat="48.71505" lon="1.97719">
        <ele>166.8</ele>
        <time>2014-04-29T12:18:56Z</time>
      </trkpt>
      <trkpt lat="48.71488" lon="1.97735">
        <ele>165.6</ele>
        <time>2014-04-29T12:19:06Z</time>
      </trkpt>
      <trkpt lat="48.71486" lon="1.97763">
        <ele>165</ele>
        <time>2014-04-29T12:19:41Z</time>
      </trkpt>
      <trkpt lat="48.71476" lon="1.97789">
        <ele>163.4</ele>
        <time>2014-04-29T12:19:51Z</time>
      </trkpt>
      <trkpt lat="48.71477" lon="1.97794">
        <ele>163.1</ele>
        <time>2014-04-29T12:19:53Z</time>
      </trkpt>
      <trkpt lat="48.71467" lon="1.97811">
        <ele>160.4</ele>
        <time>2014-04-29T12:20:03Z</time>
      </trkpt>
      <trkpt lat="48.71457" lon="1.97827">
        <ele>161.5</ele>
        <time>2014-04-29T12:20:16Z</time>
      </trkpt>
      <trkpt lat="48.71452" lon="1.97845">
        <ele>162.7</ele>
        <time>2014-04-29T12:20:27Z</time>
      </trkpt>
      <trkpt lat="48.71452" lon="1.97866">
        <ele>164</ele>
        <time>2014-04-29T12:20:37Z</time>
      </trkpt>
      <trkpt lat="48.71452" lon="1.97881">
        <ele>164.7</ele>
        <time>2014-04-29T12:20:48Z</time>
      </trkpt>
      <trkpt lat="48.71444" lon="1.97893">
        <ele>165.8</ele>
        <time>2014-04-29T12:21:01Z</time>
      </trkpt>
      <trkpt lat="48.71443" lon="1.97913">
        <ele>166.3</ele>
        <time>2014-04-29T12:21:14Z</time>
      </trkpt>
      <trkpt lat="48.71442" lon="1.97931">
        <ele>167.6</ele>
        <time>2014-04-29T12:21:24Z</time>
      </trkpt>
      <trkpt lat="48.7144" lon="1.97957">
        <ele>167.6</ele>
        <time>2014-04-29T12:21:35Z</time>
      </trkpt>
      <trkpt lat="48.71435" lon="1.97973">
        <ele>165.8</ele>
        <time>2014-04-29T12:21:46Z</time>
      </trkpt>
      <trkpt lat="48.71436" lon="1.9799">
        <ele>163.9</ele>
        <time>2014-04-29T12:21:56Z</time>
      </trkpt>
      <trkpt lat="48.71433" lon="1.98017">
        <ele>165.5</ele>
        <time>2014-04-29T12:22:09Z</time>
      </trkpt>
      <trkpt lat="48.71434" lon="1.98042">
        <ele>164.2</ele>
        <time>2014-04-29T12:22:21Z</time>
      </trkpt>
      <trkpt lat="48.71434" lon="1.98065">
        <ele>164.3</ele>
        <time>2014-04-29T12:22:32Z</time>
      </trkpt>
      <trkpt lat="48.71434" lon="1.98081">
        <ele>165.5</ele>
        <time>2014-04-29T12:22:42Z</time>
      </trkpt>
      <trkpt lat="48.71434" lon="1.98104">
        <ele>164.6</ele>
        <time>2014-04-29T12:22:52Z</time>
      </trkpt>
      <trkpt lat="48.71433" lon="1.98122">
        <ele>165.5</ele>
        <time>2014-04-29T12:23:03Z</time>
      </trkpt>
      <trkpt lat="48.71429" lon="1.98143">
        <ele>165.9</ele>
        <time>2014-04-29T12:23:13Z</time>
      </trkpt>
      <trkpt lat="48.71419" lon="1.98217">
        <ele>163.2</ele>
        <time>2014-04-29T12:23:51Z</time>
      </trkpt>
      <trkpt lat="48.71411" lon="1.98233">
        <ele>161.3</ele>
        <time>2014-04-29T12:24:02Z</time>
      </trkpt>
      <trkpt lat="48.71402" lon="1.98248">
        <ele>158.5</ele>
        <time>2014-04-29T12:24:12Z</time>
      </trkpt>
      <trkpt lat="48.71395" lon="1.98253">
        <ele>157.1</ele>
        <time>2014-04-29T12:24:22Z</time>
      </trkpt>
      <trkpt lat="48.71392" lon="1.98259">
        <ele>158.1</ele>
        <time>2014-04-29T12:26:01Z</time>
      </trkpt>
      <trkpt lat="48.71374" lon="1.9827">
        <ele>155</ele>
        <time>2014-04-29T12:26:13Z</time>
      </trkpt>
      <trkpt lat="48.71376" lon="1.98271">
        <ele>154.9</ele>
        <time>2014-04-29T12:27:08Z</time>
      </trkpt>
      <trkpt lat="48.71374" lon="1.98277">
        <ele>158.9</ele>
        <time>2014-04-29T12:28:03Z</time>
      </trkpt>
      <trkpt lat="48.71366" lon="1.983">
        <ele>160.1</ele>
        <time>2014-04-29T12:28:13Z</time>
      </trkpt>
      <trkpt lat="48.71338" lon="1.9837">
        <ele>146.9</ele>
        <time>2014-04-29T12:28:56Z</time>
      </trkpt>
      <trkpt lat="48.71333" lon="1.98368">
        <ele>148.2</ele>
        <time>2014-04-29T12:28:57Z</time>
      </trkpt>
      <trkpt lat="48.71332" lon="1.98373">
        <ele>150.9</ele>
        <time>2014-04-29T12:28:58Z</time>
      </trkpt>
      <trkpt lat="48.71325" lon="1.98381">
        <ele>146.7</ele>
        <time>2014-04-29T12:29:00Z</time>
      </trkpt>
      <trkpt lat="48.71326" lon="1.98386">
        <ele>147.9</ele>
        <time>2014-04-29T12:29:02Z</time>
      </trkpt>
      <trkpt lat="48.71319" lon="1.98401">
        <ele>151.7</ele>
        <time>2014-04-29T12:29:08Z</time>
      </trkpt>
      <trkpt lat="48.71311" lon="1.98412">
        <ele>157.1</ele>
        <time>2014-04-29T12:29:20Z</time>
      </trkpt>
      <trkpt lat="48.71309" lon="1.98422">
        <ele>155.8</ele>
        <time>2014-04-29T12:29:31Z</time>
      </trkpt>
      <trkpt lat="48.71309" lon="1.9844">
        <ele>152.7</ele>
        <time>2014-04-29T12:29:41Z</time>
      </trkpt>
      <trkpt lat="48.71309" lon="1.9845">
        <ele>152.9</ele>
        <time>2014-04-29T12:29:48Z</time>
      </trkpt>
      <trkpt lat="48.71307" lon="1.98465">
        <ele>152.3</ele>
        <time>2014-04-29T12:29:58Z</time>
      </trkpt>
      <trkpt lat="48.71311" lon="1.98474">
        <ele>153.9</ele>
        <time>2014-04-29T12:30:09Z</time>
      </trkpt>
      <trkpt lat="48.71311" lon="1.98484">
        <ele>154.2</ele>
        <time>2014-04-29T12:30:13Z</time>
      </trkpt>
      <trkpt lat="48.71308" lon="1.985">
        <ele>154</ele>
        <time>2014-04-29T12:30:25Z</time>
      </trkpt>
      <trkpt lat="48.71311" lon="1.98499">
        <ele>153.4</ele>
        <time>2014-04-29T12:30:30Z</time>
      </trkpt>
      <trkpt lat="48.71325" lon="1.98513">
        <ele>153.1</ele>
        <time>2014-04-29T12:30:43Z</time>
      </trkpt>
      <trkpt lat="48.71338" lon="1.98525">
        <ele>153.8</ele>
        <time>2014-04-29T12:30:54Z</time>
      </trkpt>
      <trkpt lat="48.71347" lon="1.98543">
        <ele>154.7</ele>
        <time>2014-04-29T12:31:05Z</time>
      </trkpt>
      <trkpt lat="48.71337" lon="1.98565">
        <ele>162.3</ele>
        <time>2014-04-29T12:31:18Z</time>
      </trkpt>
      <trkpt lat="48.71332" lon="1.98578">
        <ele>165.5</ele>
        <time>2014-04-29T12:31:29Z</time>
      </trkpt>
      <trkpt lat="48.7132" lon="1.98595">
        <ele>168.2</ele>
        <time>2014-04-29T12:31:40Z</time>
      </trkpt>
      <trkpt lat="48.71314" lon="1.98611">
        <ele>168.2</ele>
        <time>2014-04-29T12:31:50Z</time>
      </trkpt>
      <trkpt lat="48.71309" lon="1.98633">
        <ele>171.3</ele>
        <time>2014-04-29T12:32:00Z</time>
      </trkpt>
      <trkpt lat="48.71306" lon="1.98654">
        <ele>170.4</ele>
        <time>2014-04-29T12:32:10Z</time>
      </trkpt>
      <trkpt lat="48.71293" lon="1.98665">
        <ele>170.4</ele>
        <time>2014-04-29T12:32:21Z</time>
      </trkpt>
      <trkpt lat="48.71283" lon="1.98687">
        <ele>167.4</ele>
        <time>2014-04-29T12:32:32Z</time>
      </trkpt>
      <trkpt lat="48.71268" lon="1.98711">
        <ele>166.5</ele>
        <time>2014-04-29T12:32:45Z</time>
      </trkpt>
      <trkpt lat="48.7127" lon="1.9872">
        <ele>165.4</ele>
        <time>2014-04-29T12:32:55Z</time>
      </trkpt>
      <trkpt lat="48.71262" lon="1.98738">
        <ele>165.2</ele>
        <time>2014-04-29T12:33:06Z</time>
      </trkpt>
      <trkpt lat="48.71262" lon="1.98744">
        <ele>165.5</ele>
        <time>2014-04-29T12:33:09Z</time>
      </trkpt>
      <trkpt lat="48.71253" lon="1.9876">
        <ele>167.2</ele>
        <time>2014-04-29T12:33:20Z</time>
      </trkpt>
      <trkpt lat="48.71255" lon="1.98765">
        <ele>167.3</ele>
        <time>2014-04-29T12:33:21Z</time>
      </trkpt>
      <trkpt lat="48.7123" lon="1.98839">
        <ele>144.9</ele>
        <time>2014-04-29T12:33:57Z</time>
      </trkpt>
      <trkpt lat="48.71226" lon="1.98838">
        <ele>147.4</ele>
        <time>2014-04-29T12:33:59Z</time>
      </trkpt>
      <trkpt lat="48.71229" lon="1.98837">
        <ele>144.1</ele>
        <time>2014-04-29T12:34:01Z</time>
      </trkpt>
      <trkpt lat="48.71222" lon="1.98844">
        <ele>151</ele>
        <time>2014-04-29T12:34:05Z</time>
      </trkpt>
      <trkpt lat="48.71211" lon="1.98851">
        <ele>152.2</ele>
        <time>2014-04-29T12:34:15Z</time>
      </trkpt>
      <trkpt lat="48.71205" lon="1.98854">
        <ele>151.6</ele>
        <time>2014-04-29T12:34:18Z</time>
      </trkpt>
      <trkpt lat="48.71204" lon="1.98858">
        <ele>154.7</ele>
        <time>2014-04-29T12:35:01Z</time>
      </trkpt>
      <trkpt lat="48.71175" lon="1.98922">
        <ele>150.9</ele>
        <time>2014-04-29T12:35:12Z</time>
      </trkpt>
      <trkpt lat="48.71161" lon="1.9894">
        <ele>149.8</ele>
        <time>2014-04-29T12:35:21Z</time>
      </trkpt>
      <trkpt lat="48.71151" lon="1.98961">
        <ele>146.2</ele>
        <time>2014-04-29T12:35:33Z</time>
      </trkpt>
      <trkpt lat="48.71144" lon="1.9898">
        <ele>147.6</ele>
        <time>2014-04-29T12:35:44Z</time>
      </trkpt>
      <trkpt lat="48.7113" lon="1.9899">
        <ele>145.3</ele>
        <time>2014-04-29T12:35:55Z</time>
      </trkpt>
      <trkpt lat="48.71126" lon="1.98992">
        <ele>144.9</ele>
        <time>2014-04-29T12:35:57Z</time>
      </trkpt>
      <trkpt lat="48.71126" lon="1.99011">
        <ele>145.8</ele>
        <time>2014-04-29T12:36:10Z</time>
      </trkpt>
      <trkpt lat="48.71118" lon="1.99018">
        <ele>146</ele>
        <time>2014-04-29T12:36:20Z</time>
      </trkpt>
      <trkpt lat="48.71119" lon="1.99022">
        <ele>143.3</ele>
        <time>2014-04-29T12:36:31Z</time>
      </trkpt>
      <trkpt lat="48.7112" lon="1.99028">
        <ele>140.7</ele>
        <time>2014-04-29T12:36:49Z</time>
      </trkpt>
      <trkpt lat="48.71113" lon="1.99046">
        <ele>141.4</ele>
        <time>2014-04-29T12:37:00Z</time>
      </trkpt>
      <trkpt lat="48.71113" lon="1.9905">
        <ele>141.8</ele>
        <time>2014-04-29T12:37:02Z</time>
      </trkpt>
      <trkpt lat="48.71106" lon="1.99066">
        <ele>143.4</ele>
        <time>2014-04-29T12:37:13Z</time>
      </trkpt>
      <trkpt lat="48.71097" lon="1.99078">
        <ele>143.8</ele>
        <time>2014-04-29T12:37:26Z</time>
      </trkpt>
      <trkpt lat="48.71088" lon="1.99097">
        <ele>144</ele>
        <time>2014-04-29T12:37:37Z</time>
      </trkpt>
      <trkpt lat="48.71076" lon="1.9911">
        <ele>141.8</ele>
        <time>2014-04-29T12:37:49Z</time>
      </trkpt>
      <trkpt lat="48.71079" lon="1.99132">
        <ele>142.2</ele>
        <time>2014-04-29T12:37:59Z</time>
      </trkpt>
      <trkpt lat="48.7107" lon="1.99149">
        <ele>141.2</ele>
        <time>2014-04-29T12:38:11Z</time>
      </trkpt>
      <trkpt lat="48.71067" lon="1.99172">
        <ele>140.6</ele>
        <time>2014-04-29T12:38:22Z</time>
      </trkpt>
      <trkpt lat="48.71023" lon="1.99216">
        <ele>129.9</ele>
        <time>2014-04-29T12:38:59Z</time>
      </trkpt>
      <trkpt lat="48.71028" lon="1.99236">
        <ele>130.7</ele>
        <time>2014-04-29T12:39:06Z</time>
      </trkpt>
      <trkpt lat="48.71021" lon="1.99238">
        <ele>132.5</ele>
        <time>2014-04-29T12:39:10Z</time>
      </trkpt>
      <trkpt lat="48.71016" lon="1.99259">
        <ele>134.8</ele>
        <time>2014-04-29T12:39:21Z</time>
      </trkpt>
      <trkpt lat="48.71023" lon="1.99267">
        <ele>133.4</ele>
        <time>2014-04-29T12:39:22Z</time>
      </trkpt>
      <trkpt lat="48.71026" lon="1.99272">
        <ele>136</ele>
        <time>2014-04-29T12:39:24Z</time>
      </trkpt>
      <trkpt lat="48.71019" lon="1.99291">
        <ele>136.4</ele>
        <time>2014-04-29T12:39:34Z</time>
      </trkpt>
      <trkpt lat="48.71016" lon="1.993">
        <ele>133.9</ele>
        <time>2014-04-29T12:39:41Z</time>
      </trkpt>
      <trkpt lat="48.71007" lon="1.99322">
        <ele>135.4</ele>
        <time>2014-04-29T12:39:52Z</time>
      </trkpt>
      <trkpt lat="48.71001" lon="1.99338">
        <ele>138.3</ele>
        <time>2014-04-29T12:40:02Z</time>
      </trkpt>
      <trkpt lat="48.70999" lon="1.99351">
        <ele>139.4</ele>
        <time>2014-04-29T12:40:12Z</time>
      </trkpt>
      <trkpt lat="48.70997" lon="1.99346">
        <ele>138.7</ele>
        <time>2014-04-29T12:40:23Z</time>
      </trkpt>
      <trkpt lat="48.70988" lon="1.99327">
        <ele>141.9</ele>
        <time>2014-04-29T12:40:40Z</time>
      </trkpt>
      <trkpt lat="48.71023" lon="1.9935">
        <ele>146.6</ele>
        <time>2014-04-29T12:40:50Z</time>
      </trkpt>
      <trkpt lat="48.71027" lon="1.99349">
        <ele>146.4</ele>
        <time>2014-04-29T12:40:53Z</time>
      </trkpt>
      <trkpt lat="48.7104" lon="1.99348">
        <ele>149.2</ele>
        <time>2014-04-29T12:41:07Z</time>
      </trkpt>
      <trkpt lat="48.71045" lon="1.99346">
        <ele>148.1</ele>
        <time>2014-04-29T12:41:10Z</time>
      </trkpt>
      <trkpt lat="48.71058" lon="1.99346">
        <ele>149.4</ele>
        <time>2014-04-29T12:41:22Z</time>
      </trkpt>
      <trkpt lat="48.71068" lon="1.9935">
        <ele>151.1</ele>
        <time>2014-04-29T12:41:32Z</time>
      </trkpt>
      <trkpt lat="48.71071" lon="1.99346">
        <ele>150.3</ele>
        <time>2014-04-29T12:41:36Z</time>
      </trkpt>
      <trkpt lat="48.71072" lon="1.99337">
        <ele>152.6</ele>
        <time>2014-04-29T12:41:46Z</time>
      </trkpt>
      <trkpt lat="48.71076" lon="1.99325">
        <ele>155</ele>
        <time>2014-04-29T12:41:59Z</time>
      </trkpt>
      <trkpt lat="48.71078" lon="1.99329">
        <ele>155.6</ele>
        <time>2014-04-29T12:42:04Z</time>
      </trkpt>
      <trkpt lat="48.71089" lon="1.99338">
        <ele>158.7</ele>
        <time>2014-04-29T12:42:17Z</time>
      </trkpt>
      <trkpt lat="48.71095" lon="1.99345">
        <ele>163.7</ele>
        <time>2014-04-29T12:42:29Z</time>
      </trkpt>
      <trkpt lat="48.71104" lon="1.9934">
        <ele>165.2</ele>
        <time>2014-04-29T12:42:40Z</time>
      </trkpt>
      <trkpt lat="48.71113" lon="1.99322">
        <ele>168</ele>
        <time>2014-04-29T12:42:54Z</time>
      </trkpt>
      <trkpt lat="48.71109" lon="1.99319">
        <ele>167.6</ele>
        <time>2014-04-29T12:42:57Z</time>
      </trkpt>
      <trkpt lat="48.71119" lon="1.99304">
        <ele>168.6</ele>
        <time>2014-04-29T12:43:09Z</time>
      </trkpt>
      <trkpt lat="48.71125" lon="1.99299">
        <ele>170.5</ele>
        <time>2014-04-29T12:43:20Z</time>
      </trkpt>
      <trkpt lat="48.71152" lon="1.99298">
        <ele>170.4</ele>
        <time>2014-04-29T12:43:57Z</time>
      </trkpt>
      <trkpt lat="48.71155" lon="1.99297">
        <ele>169.1</ele>
        <time>2014-04-29T12:43:58Z</time>
      </trkpt>
      <trkpt lat="48.71155" lon="1.99291">
        <ele>174.6</ele>
        <time>2014-04-29T12:44:01Z</time>
      </trkpt>
      <trkpt lat="48.71158" lon="1.99289">
        <ele>174.9</ele>
        <time>2014-04-29T12:44:03Z</time>
      </trkpt>
      <trkpt lat="48.71158" lon="1.99285">
        <ele>181.1</ele>
        <time>2014-04-29T12:44:09Z</time>
      </trkpt>
      <trkpt lat="48.71162" lon="1.99285">
        <ele>177.4</ele>
        <time>2014-04-29T12:44:14Z</time>
      </trkpt>
      <trkpt lat="48.71171" lon="1.99281">
        <ele>179.2</ele>
        <time>2014-04-29T12:44:25Z</time>
      </trkpt>
      <trkpt lat="48.7118" lon="1.99275">
        <ele>181.1</ele>
        <time>2014-04-29T12:44:36Z</time>
      </trkpt>
      <trkpt lat="48.71183" lon="1.99273">
        <ele>183.3</ele>
        <time>2014-04-29T12:44:41Z</time>
      </trkpt>
      <trkpt lat="48.712" lon="1.99265">
        <ele>184.4</ele>
        <time>2014-04-29T12:45:02Z</time>
      </trkpt>
      <trkpt lat="48.71207" lon="1.9926">
        <ele>185.9</ele>
        <time>2014-04-29T12:45:14Z</time>
      </trkpt>
      <trkpt lat="48.7121" lon="1.99258">
        <ele>186.5</ele>
        <time>2014-04-29T12:45:20Z</time>
      </trkpt>
      <trkpt lat="48.71218" lon="1.99242">
        <ele>190</ele>
        <time>2014-04-29T12:45:33Z</time>
      </trkpt>
      <trkpt lat="48.71223" lon="1.99233">
        <ele>191</ele>
        <time>2014-04-29T12:45:42Z</time>
      </trkpt>
      <trkpt lat="48.71229" lon="1.99231">
        <ele>190</ele>
        <time>2014-04-29T12:45:55Z</time>
      </trkpt>
      <trkpt lat="48.71237" lon="1.99242">
        <ele>196.5</ele>
        <time>2014-04-29T12:46:12Z</time>
      </trkpt>
      <trkpt lat="48.71239" lon="1.99252">
        <ele>198.5</ele>
        <time>2014-04-29T12:46:24Z</time>
      </trkpt>
      <trkpt lat="48.71244" lon="1.99258">
        <ele>202.9</ele>
        <time>2014-04-29T12:46:38Z</time>
      </trkpt>
      <trkpt lat="48.71252" lon="1.99264">
        <ele>204.1</ele>
        <time>2014-04-29T12:46:50Z</time>
      </trkpt>
      <trkpt lat="48.71264" lon="1.99272">
        <ele>205.9</ele>
        <time>2014-04-29T12:47:02Z</time>
      </trkpt>
      <trkpt lat="48.7127" lon="1.99283">
        <ele>208.3</ele>
        <time>2014-04-29T12:47:12Z</time>
      </trkpt>
      <trkpt lat="48.71276" lon="1.99287">
        <ele>208.3</ele>
        <time>2014-04-29T12:47:23Z</time>
      </trkpt>
      <trkpt lat="48.71277" lon="1.99296">
        <ele>207</ele>
        <time>2014-04-29T12:47:33Z</time>
      </trkpt>
      <trkpt lat="48.71281" lon="1.99298">
        <ele>206.8</ele>
        <time>2014-04-29T12:47:44Z</time>
      </trkpt>
      <trkpt lat="48.7129" lon="1.99311">
        <ele>208.5</ele>
        <time>2014-04-29T12:48:57Z</time>
      </trkpt>
      <trkpt lat="48.71293" lon="1.99311">
        <ele>211.5</ele>
        <time>2014-04-29T12:49:22Z</time>
      </trkpt>
      <trkpt lat="48.71301" lon="1.99312">
        <ele>222.4</ele>
        <time>2014-04-29T12:52:47Z</time>
      </trkpt>
      <trkpt lat="48.71324" lon="1.99327">
        <ele>216.5</ele>
        <time>2014-04-29T12:52:58Z</time>
      </trkpt>
      <trkpt lat="48.71329" lon="1.99336">
        <ele>212.5</ele>
        <time>2014-04-29T12:53:13Z</time>
      </trkpt>
      <trkpt lat="48.71348" lon="1.99351">
        <ele>211.2</ele>
        <time>2014-04-29T12:53:24Z</time>
      </trkpt>
      <trkpt lat="48.71386" lon="1.99372">
        <ele>212.2</ele>
        <time>2014-04-29T12:53:53Z</time>
      </trkpt>
      <trkpt lat="48.71403" lon="1.9938">
        <ele>209.8</ele>
        <time>2014-04-29T12:54:05Z</time>
      </trkpt>
      <trkpt lat="48.71413" lon="1.99388">
        <ele>207.9</ele>
        <time>2014-04-29T12:54:15Z</time>
      </trkpt>
      <trkpt lat="48.71425" lon="1.99395">
        <ele>209.3</ele>
        <time>2014-04-29T12:54:26Z</time>
      </trkpt>
      <trkpt lat="48.71438" lon="1.99404">
        <ele>209.2</ele>
        <time>2014-04-29T12:54:37Z</time>
      </trkpt>
      <trkpt lat="48.71436" lon="1.99419">
        <ele>210.6</ele>
        <time>2014-04-29T12:54:48Z</time>
      </trkpt>
      <trkpt lat="48.71424" lon="1.99431">
        <ele>210.5</ele>
        <time>2014-04-29T12:55:00Z</time>
      </trkpt>
      <trkpt lat="48.71412" lon="1.9944">
        <ele>209.6</ele>
        <time>2014-04-29T12:55:12Z</time>
      </trkpt>
      <trkpt lat="48.714" lon="1.99446">
        <ele>209.1</ele>
        <time>2014-04-29T12:55:22Z</time>
      </trkpt>
      <trkpt lat="48.7139" lon="1.99458">
        <ele>210.1</ele>
        <time>2014-04-29T12:55:33Z</time>
      </trkpt>
      <trkpt lat="48.71379" lon="1.99463">
        <ele>211.1</ele>
        <time>2014-04-29T12:55:43Z</time>
      </trkpt>
      <trkpt lat="48.71372" lon="1.99472">
        <ele>213</ele>
        <time>2014-04-29T12:55:53Z</time>
      </trkpt>
      <trkpt lat="48.71361" lon="1.99482">
        <ele>218.2</ele>
        <time>2014-04-29T12:56:04Z</time>
      </trkpt>
      <trkpt lat="48.71351" lon="1.99486">
        <ele>221.7</ele>
        <time>2014-04-29T12:56:15Z</time>
      </trkpt>
      <trkpt lat="48.71337" lon="1.99487">
        <ele>220.8</ele>
        <time>2014-04-29T12:56:25Z</time>
      </trkpt>
      <trkpt lat="48.71326" lon="1.99496">
        <ele>220.3</ele>
        <time>2014-04-29T12:56:35Z</time>
      </trkpt>
      <trkpt lat="48.71314" lon="1.99499">
        <ele>221.6</ele>
        <time>2014-04-29T12:56:47Z</time>
      </trkpt>
      <trkpt lat="48.71296" lon="1.9951">
        <ele>221.9</ele>
        <time>2014-04-29T12:56:59Z</time>
      </trkpt>
      <trkpt lat="48.71281" lon="1.99518">
        <ele>222.3</ele>
        <time>2014-04-29T12:57:09Z</time>
      </trkpt>
      <trkpt lat="48.71268" lon="1.99521">
        <ele>221.6</ele>
        <time>2014-04-29T12:57:19Z</time>
      </trkpt>
      <trkpt lat="48.7126" lon="1.9953">
        <ele>223</ele>
        <time>2014-04-29T12:57:29Z</time>
      </trkpt>
      <trkpt lat="48.71248" lon="1.99547">
        <ele>224.3</ele>
        <time>2014-04-29T12:57:40Z</time>
      </trkpt>
      <trkpt lat="48.71236" lon="1.99558">
        <ele>220.2</ele>
        <time>2014-04-29T12:57:50Z</time>
      </trkpt>
      <trkpt lat="48.71224" lon="1.99566">
        <ele>219.1</ele>
        <time>2014-04-29T12:58:00Z</time>
      </trkpt>
      <trkpt lat="48.71211" lon="1.99579">
        <ele>216.8</ele>
        <time>2014-04-29T12:58:10Z</time>
      </trkpt>
      <trkpt lat="48.71201" lon="1.99597">
        <ele>216.8</ele>
        <time>2014-04-29T12:58:20Z</time>
      </trkpt>
      <trkpt lat="48.71191" lon="1.99612">
        <ele>218.5</ele>
        <time>2014-04-29T12:58:31Z</time>
      </trkpt>
      <trkpt lat="48.71178" lon="1.99624">
        <ele>217</ele>
        <time>2014-04-29T12:58:42Z</time>
      </trkpt>
      <trkpt lat="48.71166" lon="1.99633">
        <ele>220.4</ele>
        <time>2014-04-29T12:58:52Z</time>
      </trkpt>
      <trkpt lat="48.71158" lon="1.99644">
        <ele>219.9</ele>
        <time>2014-04-29T12:59:05Z</time>
      </trkpt>
      <trkpt lat="48.7115" lon="1.99657">
        <ele>219.3</ele>
        <time>2014-04-29T12:59:16Z</time>
      </trkpt>
      <trkpt lat="48.71138" lon="1.99671">
        <ele>214.4</ele>
        <time>2014-04-29T12:59:28Z</time>
      </trkpt>
      <trkpt lat="48.71124" lon="1.99686">
        <ele>213.4</ele>
        <time>2014-04-29T12:59:41Z</time>
      </trkpt>
      <trkpt lat="48.71113" lon="1.99701">
        <ele>214.2</ele>
        <time>2014-04-29T12:59:52Z</time>
      </trkpt>
      <trkpt lat="48.71105" lon="1.99714">
        <ele>215.9</ele>
        <time>2014-04-29T13:00:03Z</time>
      </trkpt>
      <trkpt lat="48.71093" lon="1.99735">
        <ele>218</ele>
        <time>2014-04-29T13:00:16Z</time>
      </trkpt>
      <trkpt lat="48.71081" lon="1.99753">
        <ele>216.5</ele>
        <time>2014-04-29T13:00:27Z</time>
      </trkpt>
      <trkpt lat="48.71069" lon="1.99764">
        <ele>216.6</ele>
        <time>2014-04-29T13:00:37Z</time>
      </trkpt>
      <trkpt lat="48.71059" lon="1.99786">
        <ele>217.1</ele>
        <time>2014-04-29T13:00:47Z</time>
      </trkpt>
      <trkpt lat="48.71053" lon="1.99805">
        <ele>217</ele>
        <time>2014-04-29T13:00:59Z</time>
      </trkpt>
      <trkpt lat="48.71044" lon="1.99818">
        <ele>218.5</ele>
        <time>2014-04-29T13:01:09Z</time>
      </trkpt>
      <trkpt lat="48.71031" lon="1.99834">
        <ele>216.7</ele>
        <time>2014-04-29T13:01:20Z</time>
      </trkpt>
      <trkpt lat="48.71023" lon="1.99846">
        <ele>217.9</ele>
        <time>2014-04-29T13:01:30Z</time>
      </trkpt>
      <trkpt lat="48.71011" lon="1.99859">
        <ele>217.5</ele>
        <time>2014-04-29T13:01:40Z</time>
      </trkpt>
      <trkpt lat="48.71003" lon="1.99873">
        <ele>217.2</ele>
        <time>2014-04-29T13:01:51Z</time>
      </trkpt>
      <trkpt lat="48.70994" lon="1.99892">
        <ele>215</ele>
        <time>2014-04-29T13:02:01Z</time>
      </trkpt>
      <trkpt lat="48.70986" lon="1.99905">
        <ele>217.2</ele>
        <time>2014-04-29T13:02:11Z</time>
      </trkpt>
      <trkpt lat="48.70979" lon="1.99922">
        <ele>215.4</ele>
        <time>2014-04-29T13:02:21Z</time>
      </trkpt>
      <trkpt lat="48.70964" lon="1.99933">
        <ele>217.2</ele>
        <time>2014-04-29T13:02:32Z</time>
      </trkpt>
      <trkpt lat="48.7096" lon="1.99947">
        <ele>215.7</ele>
        <time>2014-04-29T13:02:42Z</time>
      </trkpt>
      <trkpt lat="48.7095" lon="1.99963">
        <ele>217.9</ele>
        <time>2014-04-29T13:02:54Z</time>
      </trkpt>
      <trkpt lat="48.70943" lon="1.99981">
        <ele>217.1</ele>
        <time>2014-04-29T13:03:04Z</time>
      </trkpt>
      <trkpt lat="48.70935" lon="1.99997">
        <ele>217.1</ele>
        <time>2014-04-29T13:03:15Z</time>
      </trkpt>
      <trkpt lat="48.70927" lon="2.00014">
        <ele>218.5</ele>
        <time>2014-04-29T13:03:25Z</time>
      </trkpt>
      <trkpt lat="48.70915" lon="2.00031">
        <ele>216.8</ele>
        <time>2014-04-29T13:03:36Z</time>
      </trkpt>
      <trkpt lat="48.70909" lon="2.00043">
        <ele>217.7</ele>
        <time>2014-04-29T13:03:46Z</time>
      </trkpt>
      <trkpt lat="48.70898" lon="2.00053">
        <ele>216</ele>
        <time>2014-04-29T13:03:57Z</time>
      </trkpt>
      <trkpt lat="48.70895" lon="2.00057">
        <ele>216.4</ele>
        <time>2014-04-29T13:04:00Z</time>
      </trkpt>
      <trkpt lat="48.70887" lon="2.00073">
        <ele>219.9</ele>
        <time>2014-04-29T13:04:12Z</time>
      </trkpt>
      <trkpt lat="48.70879" lon="2.00096">
        <ele>218.3</ele>
        <time>2014-04-29T13:04:24Z</time>
      </trkpt>
      <trkpt lat="48.70874" lon="2.00115">
        <ele>217.2</ele>
        <time>2014-04-29T13:04:37Z</time>
      </trkpt>
      <trkpt lat="48.70871" lon="2.00123">
        <ele>216.4</ele>
        <time>2014-04-29T13:04:47Z</time>
      </trkpt>
      <trkpt lat="48.70873" lon="2.00131">
        <ele>218.3</ele>
        <time>2014-04-29T13:05:04Z</time>
      </trkpt>
      <trkpt lat="48.70881" lon="2.00142">
        <ele>217.2</ele>
        <time>2014-04-29T13:05:14Z</time>
      </trkpt>
      <trkpt lat="48.70887" lon="2.00145">
        <ele>219</ele>
        <time>2014-04-29T13:05:26Z</time>
      </trkpt>
      <trkpt lat="48.70891" lon="2.00148">
        <ele>219.4</ele>
        <time>2014-04-29T13:05:37Z</time>
      </trkpt>
      <trkpt lat="48.70914" lon="2.00154">
        <ele>218.8</ele>
        <time>2014-04-29T13:05:47Z</time>
      </trkpt>
      <trkpt lat="48.70938" lon="2.00162">
        <ele>218.6</ele>
        <time>2014-04-29T13:05:58Z</time>
      </trkpt>
      <trkpt lat="48.70939" lon="2.00165">
        <ele>219.9</ele>
        <time>2014-04-29T13:06:02Z</time>
      </trkpt>
      <trkpt lat="48.70941" lon="2.0018">
        <ele>221.4</ele>
        <time>2014-04-29T13:06:14Z</time>
      </trkpt>
      <trkpt lat="48.70934" lon="2.00191">
        <ele>226.6</ele>
        <time>2014-04-29T13:06:24Z</time>
      </trkpt>
      <trkpt lat="48.7093" lon="2.00207">
        <ele>228</ele>
        <time>2014-04-29T13:06:34Z</time>
      </trkpt>
      <trkpt lat="48.7093" lon="2.00229">
        <ele>223.7</ele>
        <time>2014-04-29T13:06:44Z</time>
      </trkpt>
      <trkpt lat="48.7093" lon="2.00244">
        <ele>223.5</ele>
        <time>2014-04-29T13:06:54Z</time>
      </trkpt>
      <trkpt lat="48.70929" lon="2.00263">
        <ele>221.1</ele>
        <time>2014-04-29T13:07:05Z</time>
      </trkpt>
      <trkpt lat="48.70922" lon="2.00286">
        <ele>220.7</ele>
        <time>2014-04-29T13:07:15Z</time>
      </trkpt>
      <trkpt lat="48.7092" lon="2.00289">
        <ele>221.7</ele>
        <time>2014-04-29T13:07:18Z</time>
      </trkpt>
      <trkpt lat="48.7091" lon="2.00301">
        <ele>223.9</ele>
        <time>2014-04-29T13:07:28Z</time>
      </trkpt>
      <trkpt lat="48.70905" lon="2.00321">
        <ele>222.4</ele>
        <time>2014-04-29T13:07:38Z</time>
      </trkpt>
      <trkpt lat="48.70904" lon="2.00333">
        <ele>219.3</ele>
        <time>2014-04-29T13:07:42Z</time>
      </trkpt>
      <trkpt lat="48.70899" lon="2.00349">
        <ele>218.9</ele>
        <time>2014-04-29T13:07:52Z</time>
      </trkpt>
      <trkpt lat="48.70892" lon="2.00367">
        <ele>218.4</ele>
        <time>2014-04-29T13:08:03Z</time>
      </trkpt>
      <trkpt lat="48.70884" lon="2.0039">
        <ele>218.4</ele>
        <time>2014-04-29T13:08:15Z</time>
      </trkpt>
      <trkpt lat="48.70882" lon="2.00413">
        <ele>220.3</ele>
        <time>2014-04-29T13:08:26Z</time>
      </trkpt>
      <trkpt lat="48.7088" lon="2.00439">
        <ele>218.5</ele>
        <time>2014-04-29T13:08:39Z</time>
      </trkpt>
      <trkpt lat="48.70884" lon="2.00461">
        <ele>220.9</ele>
        <time>2014-04-29T13:08:49Z</time>
      </trkpt>
      <trkpt lat="48.70884" lon="2.00488">
        <ele>219.9</ele>
        <time>2014-04-29T13:08:59Z</time>
      </trkpt>
      <trkpt lat="48.70889" lon="2.0051">
        <ele>220.6</ele>
        <time>2014-04-29T13:09:10Z</time>
      </trkpt>
      <trkpt lat="48.70896" lon="2.00529">
        <ele>220.8</ele>
        <time>2014-04-29T13:09:22Z</time>
      </trkpt>
      <trkpt lat="48.70899" lon="2.00556">
        <ele>221.1</ele>
        <time>2014-04-29T13:09:32Z</time>
      </trkpt>
      <trkpt lat="48.70906" lon="2.00582">
        <ele>220.5</ele>
        <time>2014-04-29T13:09:44Z</time>
      </trkpt>
      <trkpt lat="48.70916" lon="2.00596">
        <ele>220.3</ele>
        <time>2014-04-29T13:09:54Z</time>
      </trkpt>
      <trkpt lat="48.70921" lon="2.00612">
        <ele>223.5</ele>
        <time>2014-04-29T13:10:05Z</time>
      </trkpt>
      <trkpt lat="48.70926" lon="2.00625">
        <ele>220.7</ele>
        <time>2014-04-29T13:10:15Z</time>
      </trkpt>
      <trkpt lat="48.70936" lon="2.00651">
        <ele>219</ele>
        <time>2014-04-29T13:10:25Z</time>
      </trkpt>
      <trkpt lat="48.70945" lon="2.00668">
        <ele>219.6</ele>
        <time>2014-04-29T13:10:36Z</time>
      </trkpt>
      <trkpt lat="48.70964" lon="2.00682">
        <ele>216.9</ele>
        <time>2014-04-29T13:10:48Z</time>
      </trkpt>
      <trkpt lat="48.70978" lon="2.00696">
        <ele>218.5</ele>
        <time>2014-04-29T13:11:00Z</time>
      </trkpt>
      <trkpt lat="48.7099" lon="2.00715">
        <ele>218.1</ele>
        <time>2014-04-29T13:11:11Z</time>
      </trkpt>
      <trkpt lat="48.70998" lon="2.0073">
        <ele>215.2</ele>
        <time>2014-04-29T13:11:45Z</time>
      </trkpt>
      <trkpt lat="48.70998" lon="2.00735">
        <ele>216.4</ele>
        <time>2014-04-29T13:12:04Z</time>
      </trkpt>
      <trkpt lat="48.70996" lon="2.00754">
        <ele>216.9</ele>
        <time>2014-04-29T13:12:15Z</time>
      </trkpt>
      <trkpt lat="48.70988" lon="2.00769">
        <ele>215.9</ele>
        <time>2014-04-29T13:12:27Z</time>
      </trkpt>
      <trkpt lat="48.70981" lon="2.00788">
        <ele>214.7</ele>
        <time>2014-04-29T13:12:38Z</time>
      </trkpt>
      <trkpt lat="48.70975" lon="2.00804">
        <ele>218.4</ele>
        <time>2014-04-29T13:12:49Z</time>
      </trkpt>
      <trkpt lat="48.70967" lon="2.00825">
        <ele>221.5</ele>
        <time>2014-04-29T13:13:00Z</time>
      </trkpt>
      <trkpt lat="48.70962" lon="2.00851">
        <ele>219.2</ele>
        <time>2014-04-29T13:13:11Z</time>
      </trkpt>
      <trkpt lat="48.70954" lon="2.00867">
        <ele>217.1</ele>
        <time>2014-04-29T13:13:23Z</time>
      </trkpt>
      <trkpt lat="48.70947" lon="2.00887">
        <ele>217.6</ele>
        <time>2014-04-29T13:13:35Z</time>
      </trkpt>
      <trkpt lat="48.70939" lon="2.00914">
        <ele>221.3</ele>
        <time>2014-04-29T13:13:46Z</time>
      </trkpt>
      <trkpt lat="48.70933" lon="2.00934">
        <ele>224.8</ele>
        <time>2014-04-29T13:13:57Z</time>
      </trkpt>
      <trkpt lat="48.70925" lon="2.00957">
        <ele>224.7</ele>
        <time>2014-04-29T13:14:08Z</time>
      </trkpt>
      <trkpt lat="48.70921" lon="2.0098">
        <ele>224.7</ele>
        <time>2014-04-29T13:14:18Z</time>
      </trkpt>
      <trkpt lat="48.70919" lon="2.01006">
        <ele>225.3</ele>
        <time>2014-04-29T13:14:29Z</time>
      </trkpt>
      <trkpt lat="48.70912" lon="2.01028">
        <ele>225.9</ele>
        <time>2014-04-29T13:14:40Z</time>
      </trkpt>
      <trkpt lat="48.70903" lon="2.01045">
        <ele>225.4</ele>
        <time>2014-04-29T13:14:50Z</time>
      </trkpt>
      <trkpt lat="48.70896" lon="2.01067">
        <ele>225.5</ele>
        <time>2014-04-29T13:15:02Z</time>
      </trkpt>
      <trkpt lat="48.7089" lon="2.01088">
        <ele>227</ele>
        <time>2014-04-29T13:15:13Z</time>
      </trkpt>
      <trkpt lat="48.70884" lon="2.01115">
        <ele>224</ele>
        <time>2014-04-29T13:15:25Z</time>
      </trkpt>
      <trkpt lat="48.70881" lon="2.01139">
        <ele>224.7</ele>
        <time>2014-04-29T13:15:36Z</time>
      </trkpt>
      <trkpt lat="48.70888" lon="2.01171">
        <ele>214.6</ele>
        <time>2014-04-29T13:15:46Z</time>
      </trkpt>
      <trkpt lat="48.70881" lon="2.0119">
        <ele>214.4</ele>
        <time>2014-04-29T13:15:56Z</time>
      </trkpt>
      <trkpt lat="48.70878" lon="2.01194">
        <ele>214.1</ele>
        <time>2014-04-29T13:15:58Z</time>
      </trkpt>
      <trkpt lat="48.70875" lon="2.01216">
        <ele>215.4</ele>
        <time>2014-04-29T13:16:11Z</time>
      </trkpt>
      <trkpt lat="48.70868" lon="2.01243">
        <ele>214.8</ele>
        <time>2014-04-29T13:16:23Z</time>
      </trkpt>
      <trkpt lat="48.70861" lon="2.01265">
        <ele>213.3</ele>
        <time>2014-04-29T13:16:33Z</time>
      </trkpt>
      <trkpt lat="48.70852" lon="2.01286">
        <ele>211.1</ele>
        <time>2014-04-29T13:16:43Z</time>
      </trkpt>
      <trkpt lat="48.70845" lon="2.0131">
        <ele>211.6</ele>
        <time>2014-04-29T13:16:53Z</time>
      </trkpt>
      <trkpt lat="48.70838" lon="2.01332">
        <ele>210.6</ele>
        <time>2014-04-29T13:17:05Z</time>
      </trkpt>
      <trkpt lat="48.70831" lon="2.01348">
        <ele>210</ele>
        <time>2014-04-29T13:17:16Z</time>
      </trkpt>
      <trkpt lat="48.70824" lon="2.01364">
        <ele>215.1</ele>
        <time>2014-04-29T13:17:27Z</time>
      </trkpt>
      <trkpt lat="48.70818" lon="2.01383">
        <ele>215.3</ele>
        <time>2014-04-29T13:17:37Z</time>
      </trkpt>
      <trkpt lat="48.70815" lon="2.01392">
        <ele>215.3</ele>
        <time>2014-04-29T13:17:41Z</time>
      </trkpt>
      <trkpt lat="48.70808" lon="2.01418">
        <ele>217.8</ele>
        <time>2014-04-29T13:17:51Z</time>
      </trkpt>
      <trkpt lat="48.70804" lon="2.01442">
        <ele>216.9</ele>
        <time>2014-04-29T13:18:02Z</time>
      </trkpt>
      <trkpt lat="48.708" lon="2.01467">
        <ele>216</ele>
        <time>2014-04-29T13:18:12Z</time>
      </trkpt>
      <trkpt lat="48.70794" lon="2.01488">
        <ele>216.6</ele>
        <time>2014-04-29T13:18:22Z</time>
      </trkpt>
      <trkpt lat="48.70792" lon="2.01504">
        <ele>218.8</ele>
        <time>2014-04-29T13:18:32Z</time>
      </trkpt>
      <trkpt lat="48.7079" lon="2.0151">
        <ele>219.5</ele>
        <time>2014-04-29T13:18:35Z</time>
      </trkpt>
      <trkpt lat="48.70787" lon="2.01535">
        <ele>220.4</ele>
        <time>2014-04-29T13:18:45Z</time>
      </trkpt>
      <trkpt lat="48.70778" lon="2.01556">
        <ele>219.4</ele>
        <time>2014-04-29T13:18:55Z</time>
      </trkpt>
      <trkpt lat="48.70775" lon="2.0158">
        <ele>217.7</ele>
        <time>2014-04-29T13:19:06Z</time>
      </trkpt>
      <trkpt lat="48.70775" lon="2.01585">
        <ele>217.4</ele>
        <time>2014-04-29T13:19:08Z</time>
      </trkpt>
      <trkpt lat="48.70774" lon="2.01609">
        <ele>219.8</ele>
        <time>2014-04-29T13:19:18Z</time>
      </trkpt>
      <trkpt lat="48.70773" lon="2.01616">
        <ele>219.4</ele>
        <time>2014-04-29T13:19:21Z</time>
      </trkpt>
      <trkpt lat="48.70763" lon="2.01637">
        <ele>220.6</ele>
        <time>2014-04-29T13:19:31Z</time>
      </trkpt>
      <trkpt lat="48.7076" lon="2.01642">
        <ele>219.7</ele>
        <time>2014-04-29T13:19:33Z</time>
      </trkpt>
      <trkpt lat="48.7075" lon="2.01664">
        <ele>215.9</ele>
        <time>2014-04-29T13:19:43Z</time>
      </trkpt>
      <trkpt lat="48.70747" lon="2.01688">
        <ele>217.2</ele>
        <time>2014-04-29T13:19:54Z</time>
      </trkpt>
      <trkpt lat="48.70745" lon="2.01706">
        <ele>216.8</ele>
        <time>2014-04-29T13:20:05Z</time>
      </trkpt>
      <trkpt lat="48.70745" lon="2.01729">
        <ele>211.4</ele>
        <time>2014-04-29T13:20:15Z</time>
      </trkpt>
      <trkpt lat="48.70744" lon="2.01753">
        <ele>211.7</ele>
        <time>2014-04-29T13:20:25Z</time>
      </trkpt>
      <trkpt lat="48.70747" lon="2.0178">
        <ele>211.8</ele>
        <time>2014-04-29T13:20:36Z</time>
      </trkpt>
      <trkpt lat="48.70734" lon="2.01803">
        <ele>202.7</ele>
        <time>2014-04-29T13:20:47Z</time>
      </trkpt>
      <trkpt lat="48.7073" lon="2.01822">
        <ele>210.8</ele>
        <time>2014-04-29T13:20:59Z</time>
      </trkpt>
      <trkpt lat="48.70729" lon="2.01828">
        <ele>208</ele>
        <time>2014-04-29T13:21:00Z</time>
      </trkpt>
      <trkpt lat="48.70728" lon="2.01834">
        <ele>209.4</ele>
        <time>2014-04-29T13:21:02Z</time>
      </trkpt>
      <trkpt lat="48.70719" lon="2.01847">
        <ele>214.5</ele>
        <time>2014-04-29T13:21:08Z</time>
      </trkpt>
      <trkpt lat="48.70719" lon="2.01851">
        <ele>213.8</ele>
        <time>2014-04-29T13:21:09Z</time>
      </trkpt>
      <trkpt lat="48.70714" lon="2.01865">
        <ele>213.4</ele>
        <time>2014-04-29T13:21:14Z</time>
      </trkpt>
      <trkpt lat="48.70706" lon="2.01886">
        <ele>212.9</ele>
        <time>2014-04-29T13:21:24Z</time>
      </trkpt>
      <trkpt lat="48.70701" lon="2.01905">
        <ele>214.5</ele>
        <time>2014-04-29T13:21:34Z</time>
      </trkpt>
      <trkpt lat="48.70696" lon="2.01925">
        <ele>214.7</ele>
        <time>2014-04-29T13:21:44Z</time>
      </trkpt>
      <trkpt lat="48.70694" lon="2.0195">
        <ele>215.5</ele>
        <time>2014-04-29T13:21:54Z</time>
      </trkpt>
      <trkpt lat="48.70698" lon="2.01971">
        <ele>215.6</ele>
        <time>2014-04-29T13:22:04Z</time>
      </trkpt>
      <trkpt lat="48.70695" lon="2.01995">
        <ele>214.3</ele>
        <time>2014-04-29T13:22:16Z</time>
      </trkpt>
      <trkpt lat="48.70695" lon="2.02014">
        <ele>215.1</ele>
        <time>2014-04-29T13:22:26Z</time>
      </trkpt>
      <trkpt lat="48.70697" lon="2.02034">
        <ele>215.2</ele>
        <time>2014-04-29T13:22:37Z</time>
      </trkpt>
      <trkpt lat="48.70699" lon="2.02061">
        <ele>213.7</ele>
        <time>2014-04-29T13:22:49Z</time>
      </trkpt>
      <trkpt lat="48.70696" lon="2.02087">
        <ele>214.1</ele>
        <time>2014-04-29T13:23:00Z</time>
      </trkpt>
      <trkpt lat="48.707" lon="2.02112">
        <ele>209.7</ele>
        <time>2014-04-29T13:23:12Z</time>
      </trkpt>
      <trkpt lat="48.70702" lon="2.02137">
        <ele>211</ele>
        <time>2014-04-29T13:23:22Z</time>
      </trkpt>
      <trkpt lat="48.70699" lon="2.02154">
        <ele>210.4</ele>
        <time>2014-04-29T13:23:34Z</time>
      </trkpt>
      <trkpt lat="48.70701" lon="2.02183">
        <ele>209.5</ele>
        <time>2014-04-29T13:23:45Z</time>
      </trkpt>
      <trkpt lat="48.70699" lon="2.02209">
        <ele>207.8</ele>
        <time>2014-04-29T13:23:56Z</time>
      </trkpt>
      <trkpt lat="48.70699" lon="2.02236">
        <ele>201.8</ele>
        <time>2014-04-29T13:24:08Z</time>
      </trkpt>
      <trkpt lat="48.70694" lon="2.02258">
        <ele>206.6</ele>
        <time>2014-04-29T13:24:19Z</time>
      </trkpt>
      <trkpt lat="48.7069" lon="2.02286">
        <ele>210</ele>
        <time>2014-04-29T13:24:29Z</time>
      </trkpt>
      <trkpt lat="48.70687" lon="2.0231">
        <ele>208.4</ele>
        <time>2014-04-29T13:24:40Z</time>
      </trkpt>
      <trkpt lat="48.70687" lon="2.02328">
        <ele>210.9</ele>
        <time>2014-04-29T13:24:51Z</time>
      </trkpt>
      <trkpt lat="48.70685" lon="2.0235">
        <ele>210.4</ele>
        <time>2014-04-29T13:25:02Z</time>
      </trkpt>
      <trkpt lat="48.70681" lon="2.02371">
        <ele>210.7</ele>
        <time>2014-04-29T13:25:14Z</time>
      </trkpt>
      <trkpt lat="48.70678" lon="2.02397">
        <ele>212.9</ele>
        <time>2014-04-29T13:25:24Z</time>
      </trkpt>
      <trkpt lat="48.70679" lon="2.02419">
        <ele>213.7</ele>
        <time>2014-04-29T13:25:34Z</time>
      </trkpt>
      <trkpt lat="48.70681" lon="2.02447">
        <ele>210.6</ele>
        <time>2014-04-29T13:25:44Z</time>
      </trkpt>
      <trkpt lat="48.70688" lon="2.02481">
        <ele>208.9</ele>
        <time>2014-04-29T13:25:56Z</time>
      </trkpt>
      <trkpt lat="48.70695" lon="2.02506">
        <ele>210.5</ele>
        <time>2014-04-29T13:26:06Z</time>
      </trkpt>
      <trkpt lat="48.70702" lon="2.02527">
        <ele>211.5</ele>
        <time>2014-04-29T13:26:17Z</time>
      </trkpt>
      <trkpt lat="48.70709" lon="2.02552">
        <ele>210.6</ele>
        <time>2014-04-29T13:26:29Z</time>
      </trkpt>
      <trkpt lat="48.70715" lon="2.02578">
        <ele>210.4</ele>
        <time>2014-04-29T13:26:42Z</time>
      </trkpt>
      <trkpt lat="48.70716" lon="2.02582">
        <ele>210.2</ele>
        <time>2014-04-29T13:26:45Z</time>
      </trkpt>
      <trkpt lat="48.70717" lon="2.02605">
        <ele>211.4</ele>
        <time>2014-04-29T13:26:56Z</time>
      </trkpt>
      <trkpt lat="48.70719" lon="2.02633">
        <ele>208.4</ele>
        <time>2014-04-29T13:27:09Z</time>
      </trkpt>
      <trkpt lat="48.70722" lon="2.02653">
        <ele>206.5</ele>
        <time>2014-04-29T13:27:20Z</time>
      </trkpt>
      <trkpt lat="48.7072" lon="2.02674">
        <ele>205.7</ele>
        <time>2014-04-29T13:27:30Z</time>
      </trkpt>
      <trkpt lat="48.70728" lon="2.02699">
        <ele>202.1</ele>
        <time>2014-04-29T13:27:42Z</time>
      </trkpt>
      <trkpt lat="48.70733" lon="2.02726">
        <ele>199.9</ele>
        <time>2014-04-29T13:27:54Z</time>
      </trkpt>
      <trkpt lat="48.70738" lon="2.02752">
        <ele>198.8</ele>
        <time>2014-04-29T13:28:06Z</time>
      </trkpt>
      <trkpt lat="48.70733" lon="2.02773">
        <ele>202</ele>
        <time>2014-04-29T13:28:17Z</time>
      </trkpt>
      <trkpt lat="48.70743" lon="2.02802">
        <ele>200.5</ele>
        <time>2014-04-29T13:28:29Z</time>
      </trkpt>
      <trkpt lat="48.70751" lon="2.02824">
        <ele>196.9</ele>
        <time>2014-04-29T13:28:40Z</time>
      </trkpt>
      <trkpt lat="48.70758" lon="2.02838">
        <ele>195.4</ele>
        <time>2014-04-29T13:28:51Z</time>
      </trkpt>
      <trkpt lat="48.7076" lon="2.02843">
        <ele>195.4</ele>
        <time>2014-04-29T13:28:53Z</time>
      </trkpt>
      <trkpt lat="48.70766" lon="2.0287">
        <ele>192.7</ele>
        <time>2014-04-29T13:29:03Z</time>
      </trkpt>
      <trkpt lat="48.70767" lon="2.02876">
        <ele>192.3</ele>
        <time>2014-04-29T13:29:05Z</time>
      </trkpt>
      <trkpt lat="48.7077" lon="2.02888">
        <ele>187</ele>
        <time>2014-04-29T13:29:16Z</time>
      </trkpt>
      <trkpt lat="48.70781" lon="2.02916">
        <ele>184.6</ele>
        <time>2014-04-29T13:29:27Z</time>
      </trkpt>
      <trkpt lat="48.70786" lon="2.02937">
        <ele>183.6</ele>
        <time>2014-04-29T13:29:37Z</time>
      </trkpt>
      <trkpt lat="48.70795" lon="2.02958">
        <ele>180.5</ele>
        <time>2014-04-29T13:29:49Z</time>
      </trkpt>
      <trkpt lat="48.70798" lon="2.02974">
        <ele>174.1</ele>
        <time>2014-04-29T13:30:01Z</time>
      </trkpt>
      <trkpt lat="48.70791" lon="2.02994">
        <ele>172.3</ele>
        <time>2014-04-29T13:30:11Z</time>
      </trkpt>
      <trkpt lat="48.70786" lon="2.03012">
        <ele>163.2</ele>
        <time>2014-04-29T13:30:21Z</time>
      </trkpt>
      <trkpt lat="48.70778" lon="2.03023">
        <ele>166</ele>
        <time>2014-04-29T13:30:29Z</time>
      </trkpt>
      <trkpt lat="48.70768" lon="2.03041">
        <ele>166.7</ele>
        <time>2014-04-29T13:30:39Z</time>
      </trkpt>
      <trkpt lat="48.70763" lon="2.03079">
        <ele>164</ele>
        <time>2014-04-29T13:30:50Z</time>
      </trkpt>
      <trkpt lat="48.7076" lon="2.03087">
        <ele>162.4</ele>
        <time>2014-04-29T13:30:54Z</time>
      </trkpt>
      <trkpt lat="48.70748" lon="2.03104">
        <ele>156.8</ele>
        <time>2014-04-29T13:31:05Z</time>
      </trkpt>
      <trkpt lat="48.70739" lon="2.03121">
        <ele>156.8</ele>
        <time>2014-04-29T13:31:15Z</time>
      </trkpt>
      <trkpt lat="48.70725" lon="2.03139">
        <ele>151.5</ele>
        <time>2014-04-29T13:31:25Z</time>
      </trkpt>
      <trkpt lat="48.70712" lon="2.03155">
        <ele>148.8</ele>
        <time>2014-04-29T13:31:36Z</time>
      </trkpt>
      <trkpt lat="48.70698" lon="2.03169">
        <ele>146.9</ele>
        <time>2014-04-29T13:31:48Z</time>
      </trkpt>
      <trkpt lat="48.70686" lon="2.03182">
        <ele>143.6</ele>
        <time>2014-04-29T13:31:59Z</time>
      </trkpt>
      <trkpt lat="48.70672" lon="2.0319">
        <ele>143.6</ele>
        <time>2014-04-29T13:32:09Z</time>
      </trkpt>
      <trkpt lat="48.70657" lon="2.03193">
        <ele>145.5</ele>
        <time>2014-04-29T13:32:19Z</time>
      </trkpt>
      <trkpt lat="48.70642" lon="2.03203">
        <ele>144.1</ele>
        <time>2014-04-29T13:32:29Z</time>
      </trkpt>
      <trkpt lat="48.70627" lon="2.0321">
        <ele>146</ele>
        <time>2014-04-29T13:32:40Z</time>
      </trkpt>
      <trkpt lat="48.70624" lon="2.03211">
        <ele>144.4</ele>
        <time>2014-04-29T13:32:52Z</time>
      </trkpt>
      <trkpt lat="48.70636" lon="2.03208">
        <ele>142.2</ele>
        <time>2014-04-29T13:33:02Z</time>
      </trkpt>
      <trkpt lat="48.7065" lon="2.03203">
        <ele>141.8</ele>
        <time>2014-04-29T13:33:13Z</time>
      </trkpt>
      <trkpt lat="48.70664" lon="2.03195">
        <ele>140.2</ele>
        <time>2014-04-29T13:33:24Z</time>
      </trkpt>
      <trkpt lat="48.7067" lon="2.03193">
        <ele>138.7</ele>
        <time>2014-04-29T13:33:38Z</time>
      </trkpt>
      <trkpt lat="48.70679" lon="2.03187">
        <ele>140.2</ele>
        <time>2014-04-29T13:33:48Z</time>
      </trkpt>
      <trkpt lat="48.70689" lon="2.03178">
        <ele>140.8</ele>
        <time>2014-04-29T13:33:59Z</time>
      </trkpt>
      <trkpt lat="48.70699" lon="2.03169">
        <ele>139.9</ele>
        <time>2014-04-29T13:34:09Z</time>
      </trkpt>
      <trkpt lat="48.70709" lon="2.03156">
        <ele>141.4</ele>
        <time>2014-04-29T13:34:20Z</time>
      </trkpt>
      <trkpt lat="48.7072" lon="2.03144">
        <ele>145.6</ele>
        <time>2014-04-29T13:34:32Z</time>
      </trkpt>
      <trkpt lat="48.70729" lon="2.03131">
        <ele>145.7</ele>
        <time>2014-04-29T13:34:43Z</time>
      </trkpt>
      <trkpt lat="48.70739" lon="2.03122">
        <ele>147.5</ele>
        <time>2014-04-29T13:34:55Z</time>
      </trkpt>
      <trkpt lat="48.70742" lon="2.03126">
        <ele>149.1</ele>
        <time>2014-04-29T13:35:19Z</time>
      </trkpt>
      <trkpt lat="48.70753" lon="2.03153">
        <ele>156.8</ele>
        <time>2014-04-29T13:35:30Z</time>
      </trkpt>
      <trkpt lat="48.7076" lon="2.03162">
        <ele>156.4</ele>
        <time>2014-04-29T13:35:48Z</time>
      </trkpt>
      <trkpt lat="48.70775" lon="2.03193">
        <ele>153.9</ele>
        <time>2014-04-29T13:35:59Z</time>
      </trkpt>
      <trkpt lat="48.70779" lon="2.032">
        <ele>152.4</ele>
        <time>2014-04-29T13:36:11Z</time>
      </trkpt>
      <trkpt lat="48.70795" lon="2.0323">
        <ele>149.7</ele>
        <time>2014-04-29T13:36:21Z</time>
      </trkpt>
      <trkpt lat="48.70805" lon="2.03249">
        <ele>148.3</ele>
        <time>2014-04-29T13:36:33Z</time>
      </trkpt>
      <trkpt lat="48.70812" lon="2.03266">
        <ele>147.8</ele>
        <time>2014-04-29T13:36:43Z</time>
      </trkpt>
      <trkpt lat="48.7081" lon="2.0328">
        <ele>146</ele>
        <time>2014-04-29T13:36:57Z</time>
      </trkpt>
      <trkpt lat="48.70803" lon="2.03289">
        <ele>142.8</ele>
        <time>2014-04-29T13:37:07Z</time>
      </trkpt>
      <trkpt lat="48.70801" lon="2.03292">
        <ele>144.1</ele>
        <time>2014-04-29T13:37:20Z</time>
      </trkpt>
      <trkpt lat="48.70787" lon="2.03299">
        <ele>144.3</ele>
        <time>2014-04-29T13:37:32Z</time>
      </trkpt>
      <trkpt lat="48.70775" lon="2.03306">
        <ele>143.2</ele>
        <time>2014-04-29T13:37:43Z</time>
      </trkpt>
      <trkpt lat="48.70762" lon="2.03311">
        <ele>142.2</ele>
        <time>2014-04-29T13:37:54Z</time>
      </trkpt>
      <trkpt lat="48.7075" lon="2.0332">
        <ele>143.1</ele>
        <time>2014-04-29T13:38:06Z</time>
      </trkpt>
      <trkpt lat="48.70738" lon="2.0333">
        <ele>140.2</ele>
        <time>2014-04-29T13:38:17Z</time>
      </trkpt>
      <trkpt lat="48.70729" lon="2.03338">
        <ele>139.9</ele>
        <time>2014-04-29T13:38:27Z</time>
      </trkpt>
      <trkpt lat="48.7072" lon="2.03343">
        <ele>141.9</ele>
        <time>2014-04-29T13:38:37Z</time>
      </trkpt>
      <trkpt lat="48.70719" lon="2.03362">
        <ele>142.1</ele>
        <time>2014-04-29T13:38:48Z</time>
      </trkpt>
      <trkpt lat="48.70725" lon="2.03379">
        <ele>141.2</ele>
        <time>2014-04-29T13:38:59Z</time>
      </trkpt>
      <trkpt lat="48.70733" lon="2.03395">
        <ele>140.7</ele>
        <time>2014-04-29T13:39:10Z</time>
      </trkpt>
      <trkpt lat="48.70741" lon="2.03413">
        <ele>138.6</ele>
        <time>2014-04-29T13:39:21Z</time>
      </trkpt>
      <trkpt lat="48.70749" lon="2.03426">
        <ele>138.3</ele>
        <time>2014-04-29T13:39:35Z</time>
      </trkpt>
      <trkpt lat="48.70756" lon="2.03443">
        <ele>136</ele>
        <time>2014-04-29T13:39:46Z</time>
      </trkpt>
      <trkpt lat="48.70765" lon="2.03457">
        <ele>135.3</ele>
        <time>2014-04-29T13:39:57Z</time>
      </trkpt>
      <trkpt lat="48.70774" lon="2.03478">
        <ele>136</ele>
        <time>2014-04-29T13:40:09Z</time>
      </trkpt>
      <trkpt lat="48.70781" lon="2.03498">
        <ele>133.9</ele>
        <time>2014-04-29T13:40:21Z</time>
      </trkpt>
      <trkpt lat="48.70789" lon="2.03514">
        <ele>133.5</ele>
        <time>2014-04-29T13:40:31Z</time>
      </trkpt>
      <trkpt lat="48.70797" lon="2.03531">
        <ele>132.4</ele>
        <time>2014-04-29T13:40:41Z</time>
      </trkpt>
      <trkpt lat="48.70804" lon="2.03552">
        <ele>133.1</ele>
        <time>2014-04-29T13:40:52Z</time>
      </trkpt>
      <trkpt lat="48.70812" lon="2.03569">
        <ele>132.6</ele>
        <time>2014-04-29T13:41:03Z</time>
      </trkpt>
      <trkpt lat="48.70814" lon="2.03592">
        <ele>132</ele>
        <time>2014-04-29T13:41:15Z</time>
      </trkpt>
      <trkpt lat="48.70818" lon="2.03613">
        <ele>133.4</ele>
        <time>2014-04-29T13:41:25Z</time>
      </trkpt>
      <trkpt lat="48.70817" lon="2.03617">
        <ele>134.2</ele>
        <time>2014-04-29T13:41:27Z</time>
      </trkpt>
      <trkpt lat="48.70823" lon="2.03635">
        <ele>129.3</ele>
        <time>2014-04-29T13:41:38Z</time>
      </trkpt>
      <trkpt lat="48.70837" lon="2.03651">
        <ele>131</ele>
        <time>2014-04-29T13:41:50Z</time>
      </trkpt>
      <trkpt lat="48.70847" lon="2.03664">
        <ele>130.8</ele>
        <time>2014-04-29T13:42:00Z</time>
      </trkpt>
      <trkpt lat="48.70855" lon="2.03682">
        <ele>129.8</ele>
        <time>2014-04-29T13:42:12Z</time>
      </trkpt>
      <trkpt lat="48.70855" lon="2.03687">
        <ele>131.9</ele>
        <time>2014-04-29T13:42:34Z</time>
      </trkpt>
      <trkpt lat="48.70842" lon="2.03695">
        <ele>134.2</ele>
        <time>2014-04-29T13:42:45Z</time>
      </trkpt>
      <trkpt lat="48.70827" lon="2.03704">
        <ele>134</ele>
        <time>2014-04-29T13:42:57Z</time>
      </trkpt>
      <trkpt lat="48.70815" lon="2.03711">
        <ele>132.3</ele>
        <time>2014-04-29T13:43:07Z</time>
      </trkpt>
      <trkpt lat="48.708" lon="2.03717">
        <ele>131.9</ele>
        <time>2014-04-29T13:43:18Z</time>
      </trkpt>
      <trkpt lat="48.70785" lon="2.03721">
        <ele>129.6</ele>
        <time>2014-04-29T13:43:28Z</time>
      </trkpt>
      <trkpt lat="48.70771" lon="2.03723">
        <ele>132.5</ele>
        <time>2014-04-29T13:43:38Z</time>
      </trkpt>
      <trkpt lat="48.70758" lon="2.03724">
        <ele>132.6</ele>
        <time>2014-04-29T13:43:48Z</time>
      </trkpt>
      <trkpt lat="48.70745" lon="2.03726">
        <ele>132.7</ele>
        <time>2014-04-29T13:43:58Z</time>
      </trkpt>
      <trkpt lat="48.70732" lon="2.03728">
        <ele>134.8</ele>
        <time>2014-04-29T13:44:08Z</time>
      </trkpt>
      <trkpt lat="48.70728" lon="2.03737">
        <ele>135.2</ele>
        <time>2014-04-29T13:44:18Z</time>
      </trkpt>
      <trkpt lat="48.70718" lon="2.03748">
        <ele>133.7</ele>
        <time>2014-04-29T13:44:28Z</time>
      </trkpt>
      <trkpt lat="48.70704" lon="2.03755">
        <ele>132.1</ele>
        <time>2014-04-29T13:44:38Z</time>
      </trkpt>
      <trkpt lat="48.70692" lon="2.03761">
        <ele>130.9</ele>
        <time>2014-04-29T13:44:49Z</time>
      </trkpt>
      <trkpt lat="48.70682" lon="2.03767">
        <ele>134.5</ele>
        <time>2014-04-29T13:44:59Z</time>
      </trkpt>
      <trkpt lat="48.70667" lon="2.03773">
        <ele>137.3</ele>
        <time>2014-04-29T13:45:11Z</time>
      </trkpt>
      <trkpt lat="48.70649" lon="2.03777">
        <ele>139.3</ele>
        <time>2014-04-29T13:45:22Z</time>
      </trkpt>
      <trkpt lat="48.70635" lon="2.03779">
        <ele>137.1</ele>
        <time>2014-04-29T13:45:33Z</time>
      </trkpt>
      <trkpt lat="48.70624" lon="2.03792">
        <ele>135.9</ele>
        <time>2014-04-29T13:45:45Z</time>
      </trkpt>
      <trkpt lat="48.70618" lon="2.03783">
        <ele>136.5</ele>
        <time>2014-04-29T13:45:53Z</time>
      </trkpt>
      <trkpt lat="48.70606" lon="2.03775">
        <ele>132.6</ele>
        <time>2014-04-29T13:46:03Z</time>
      </trkpt>
      <trkpt lat="48.70592" lon="2.0377">
        <ele>132.9</ele>
        <time>2014-04-29T13:46:13Z</time>
      </trkpt>
      <trkpt lat="48.70577" lon="2.03768">
        <ele>129.3</ele>
        <time>2014-04-29T13:46:24Z</time>
      </trkpt>
      <trkpt lat="48.70574" lon="2.03766">
        <ele>128.9</ele>
        <time>2014-04-29T13:46:26Z</time>
      </trkpt>
      <trkpt lat="48.70558" lon="2.03764">
        <ele>129.5</ele>
        <time>2014-04-29T13:46:37Z</time>
      </trkpt>
      <trkpt lat="48.70549" lon="2.03767">
        <ele>130.7</ele>
        <time>2014-04-29T13:46:48Z</time>
      </trkpt>
      <trkpt lat="48.70543" lon="2.03783">
        <ele>130.4</ele>
        <time>2014-04-29T13:47:00Z</time>
      </trkpt>
      <trkpt lat="48.70544" lon="2.03805">
        <ele>130.1</ele>
        <time>2014-04-29T13:47:12Z</time>
      </trkpt>
      <trkpt lat="48.70547" lon="2.03825">
        <ele>129.3</ele>
        <time>2014-04-29T13:47:24Z</time>
      </trkpt>
      <trkpt lat="48.70558" lon="2.0384">
        <ele>128.4</ele>
        <time>2014-04-29T13:47:35Z</time>
      </trkpt>
      <trkpt lat="48.70568" lon="2.03852">
        <ele>127.5</ele>
        <time>2014-04-29T13:47:49Z</time>
      </trkpt>
      <trkpt lat="48.70578" lon="2.03864">
        <ele>128.8</ele>
        <time>2014-04-29T13:47:59Z</time>
      </trkpt>
      <trkpt lat="48.70592" lon="2.03887">
        <ele>125.9</ele>
        <time>2014-04-29T13:48:09Z</time>
      </trkpt>
      <trkpt lat="48.70614" lon="2.03913">
        <ele>125.9</ele>
        <time>2014-04-29T13:48:39Z</time>
      </trkpt>
      <trkpt lat="48.70618" lon="2.0392">
        <ele>125.1</ele>
        <time>2014-04-29T13:48:43Z</time>
      </trkpt>
      <trkpt lat="48.70623" lon="2.03944">
        <ele>126.8</ele>
        <time>2014-04-29T13:48:55Z</time>
      </trkpt>
      <trkpt lat="48.70619" lon="2.03962">
        <ele>128.2</ele>
        <time>2014-04-29T13:49:05Z</time>
      </trkpt>
      <trkpt lat="48.70619" lon="2.03981">
        <ele>127</ele>
        <time>2014-04-29T13:49:17Z</time>
      </trkpt>
      <trkpt lat="48.70619" lon="2.04001">
        <ele>127.2</ele>
        <time>2014-04-29T13:49:28Z</time>
      </trkpt>
      <trkpt lat="48.70623" lon="2.04015">
        <ele>126.3</ele>
        <time>2014-04-29T13:49:38Z</time>
      </trkpt>
      <trkpt lat="48.70625" lon="2.04033">
        <ele>124.7</ele>
        <time>2014-04-29T13:49:49Z</time>
      </trkpt>
      <trkpt lat="48.70623" lon="2.04046">
        <ele>124.8</ele>
        <time>2014-04-29T13:50:00Z</time>
      </trkpt>
      <trkpt lat="48.70614" lon="2.0405">
        <ele>125.1</ele>
        <time>2014-04-29T13:50:10Z</time>
      </trkpt>
      <trkpt lat="48.70602" lon="2.04053">
        <ele>126.5</ele>
        <time>2014-04-29T13:50:23Z</time>
      </trkpt>
      <trkpt lat="48.70596" lon="2.04052">
        <ele>126.7</ele>
        <time>2014-04-29T13:50:34Z</time>
      </trkpt>
      <trkpt lat="48.70594" lon="2.04049">
        <ele>127.7</ele>
        <time>2014-04-29T13:50:46Z</time>
      </trkpt>
      <trkpt lat="48.7059" lon="2.04053">
        <ele>128.5</ele>
        <time>2014-04-29T13:51:02Z</time>
      </trkpt>
    </trkseg>
  </trk>
</gpx>